[[{"header":{"parameterUnit":"m.s-1","parameterCategory":1,"la1":30.6,"la2":29.2853,"lo1":-89.7004,"lo2":-87.6739,"dx":0.0162,"dy":0.0183,"nx":112,"ny":82,"refTime":"2022-12-27T06:00:00:Z","depth":0,"parameterNumber":2,"parameterNumberName":"U-component_of_WINDS"},"data":[0.0,0.0,0.0,0.0,0.0,0.0,0.0,0.0,0.0,0.0,0.0,0.0,0.0,0.0,0.0,0.0,0.0,0.0,0.0,0.0,0.0,0.0,0.0,0.0,0.0,0.0,0.0,0.0,0.0,0.0,0.0,0.0,0.0,0.0,0.0,0.0,0.0,0.0,0.0,0.0,0.0,0.0,0.0,0.0,0.0,0.0,0.0,0.0,0.0,0.0,0.0,0.0,0.0,0.0,0.0,0.0,0.0,0.0,0.0,0.0,0.0,0.0,0.0,0.0,0.0,0.0,0.0,0.0,0.0,0.0,0.0,0.0,0.0,0.0,0.0,0.0,0.0,0.0,0.0,0.0,0.0,0.0,0.0,0.0,0.0,0.0,0.0,0.0,0.0,0.0,-6.4204,-6.4544,-6.5067,-6.5265,-6.4897,-6.4146,-6.3267,-6.2213,0.0,0.0,0.0,0.0,0.0,0.0,0.0,0.0,0.0,0.0,0.0,0.0,0.0,0.0,0.0,0.0,0.0,0.0,0.0,0.0,0.0,0.0,0.0,0.0,0.0,0.0,0.0,0.0,0.0,0.0,0.0,0.0,0.0,0.0,0.0,0.0,0.0,0.0,0.0,0.0,0.0,0.0,0.0,0.0,0.0,0.0,0.0,0.0,0.0,0.0,0.0,0.0,0.0,0.0,0.0,0.0,0.0,0.0,0.0,0.0,0.0,0.0,0.0,0.0,0.0,0.0,0.0,0.0,0.0,0.0,0.0,0.0,0.0,0.0,0.0,0.0,0.0,0.0,0.0,0.0,0.0,0.0,0.0,0.0,0.0,0.0,0.0,0.0,0.0,0.0,0.0,0.0,0.0,0.0,0.0,0.0,0.0,0.0,0.0,0.0,0.0,0.0,0.0,0.0,-6.3117,-6.513,-6.5404,-6.5799,-6.6582,-6.5503,-6.4332,-6.3297,0.0,0.0,0.0,0.0,0.0,0.0,0.0,0.0,0.0,0.0,0.0,0.0,0.0,0.0,0.0,0.0,0.0,0.0,0.0,0.0,0.0,0.0,0.0,0.0,0.0,0.0,0.0,0.0,0.0,0.0,0.0,0.0,0.0,0.0,0.0,0.0,0.0,0.0,0.0,0.0,0.0,0.0,0.0,0.0,0.0,0.0,0.0,0.0,0.0,0.0,0.0,0.0,0.0,0.0,0.0,0.0,0.0,0.0,0.0,0.0,0.0,0.0,0.0,0.0,0.0,0.0,0.0,0.0,0.0,0.0,0.0,0.0,0.0,0.0,0.0,0.0,0.0,0.0,0.0,0.0,0.0,0.0,0.0,0.0,0.0,0.0,0.0,0.0,0.0,0.0,0.0,0.0,0.0,0.0,0.0,0.0,0.0,0.0,0.0,0.0,0.0,0.0,0.0,-6.2875,-6.4042,-6.5829,-6.6372,-6.6854,-6.7509,-6.6311,-6.4963,-6.3571,-6.2716,0.0,0.0,0.0,0.0,0.0,0.0,0.0,0.0,0.0,0.0,0.0,0.0,0.0,0.0,0.0,0.0,0.0,0.0,0.0,0.0,0.0,0.0,0.0,0.0,0.0,0.0,0.0,0.0,0.0,0.0,0.0,0.0,0.0,0.0,0.0,0.0,0.0,0.0,0.0,0.0,0.0,0.0,0.0,0.0,0.0,0.0,0.0,0.0,0.0,0.0,0.0,0.0,0.0,0.0,0.0,0.0,0.0,0.0,0.0,0.0,0.0,0.0,0.0,0.0,0.0,0.0,0.0,0.0,0.0,0.0,0.0,0.0,0.0,0.0,0.0,0.0,0.0,0.0,0.0,0.0,0.0,0.0,0.0,0.0,0.0,0.0,0.0,0.0,0.0,0.0,0.0,0.0,0.0,0.0,0.0,0.0,0.0,0.0,0.0,0.0,0.0,0.0,-6.3837,-6.5109,-6.6463,-6.7064,-6.7575,-6.7989,-6.6909,-6.5443,-6.3544,-6.2999,0.0,0.0,0.0,0.0,0.0,0.0,0.0,0.0,0.0,0.0,0.0,0.0,0.0,0.0,0.0,0.0,0.0,0.0,0.0,0.0,0.0,0.0,0.0,0.0,0.0,0.0,0.0,0.0,0.0,0.0,0.0,0.0,0.0,0.0,0.0,0.0,0.0,0.0,0.0,0.0,0.0,0.0,0.0,0.0,0.0,0.0,0.0,0.0,0.0,0.0,0.0,0.0,0.0,0.0,0.0,0.0,0.0,0.0,0.0,0.0,0.0,0.0,0.0,0.0,0.0,0.0,0.0,0.0,0.0,0.0,0.0,0.0,0.0,0.0,0.0,0.0,0.0,0.0,0.0,0.0,0.0,0.0,0.0,0.0,0.0,0.0,0.0,0.0,0.0,0.0,0.0,0.0,0.0,0.0,0.0,0.0,0.0,0.0,0.0,0.0,0.0,0.0,-6.3942,-6.5473,-6.685,-6.703,-6.733,-6.7897,-6.7328,-6.5832,-6.3286,-6.3306,0.0,0.0,0.0,0.0,0.0,0.0,0.0,0.0,0.0,0.0,0.0,0.0,0.0,0.0,0.0,0.0,0.0,0.0,0.0,0.0,0.0,0.0,0.0,0.0,0.0,0.0,0.0,0.0,0.0,0.0,0.0,0.0,0.0,0.0,0.0,0.0,0.0,0.0,0.0,0.0,0.0,0.0,0.0,0.0,0.0,0.0,0.0,0.0,0.0,0.0,0.0,0.0,0.0,0.0,0.0,0.0,0.0,0.0,0.0,0.0,0.0,0.0,0.0,0.0,0.0,0.0,0.0,0.0,0.0,0.0,0.0,0.0,0.0,0.0,0.0,0.0,0.0,0.0,0.0,0.0,0.0,0.0,0.0,0.0,0.0,0.0,0.0,0.0,0.0,0.0,0.0,0.0,0.0,0.0,0.0,0.0,0.0,0.0,0.0,0.0,0.0,0.0,-6.3612,-6.5203,-6.7358,-6.7597,-6.7867,-6.8555,-6.7986,-6.646,-6.3827,0.0,0.0,0.0,0.0,0.0,0.0,0.0,0.0,0.0,0.0,0.0,0.0,0.0,0.0,0.0,0.0,0.0,0.0,0.0,0.0,0.0,0.0,0.0,0.0,0.0,0.0,0.0,0.0,0.0,0.0,0.0,0.0,0.0,0.0,0.0,0.0,0.0,0.0,0.0,0.0,0.0,0.0,0.0,0.0,0.0,0.0,0.0,0.0,0.0,0.0,0.0,0.0,0.0,0.0,0.0,0.0,0.0,0.0,0.0,0.0,0.0,0.0,0.0,0.0,0.0,0.0,0.0,0.0,0.0,0.0,0.0,0.0,0.0,0.0,0.0,0.0,0.0,0.0,0.0,0.0,0.0,0.0,0.0,0.0,0.0,0.0,0.0,0.0,0.0,0.0,0.0,0.0,0.0,0.0,0.0,0.0,0.0,0.0,0.0,0.0,0.0,0.0,-6.2513,-6.3702,-6.5353,-6.8016,-6.8106,-6.8256,-6.8944,-6.8375,-6.6849,-6.4156,0.0,0.0,0.0,0.0,0.0,0.0,0.0,0.0,0.0,0.0,0.0,0.0,0.0,0.0,0.0,0.0,0.0,0.0,0.0,0.0,0.0,0.0,0.0,0.0,0.0,0.0,0.0,0.0,0.0,0.0,0.0,0.0,0.0,0.0,0.0,0.0,0.0,0.0,0.0,0.0,0.0,0.0,0.0,0.0,0.0,0.0,0.0,0.0,0.0,0.0,0.0,0.0,0.0,0.0,0.0,0.0,0.0,0.0,0.0,0.0,0.0,0.0,0.0,0.0,0.0,0.0,0.0,0.0,0.0,0.0,0.0,0.0,0.0,0.0,0.0,0.0,0.0,0.0,0.0,0.0,0.0,0.0,0.0,0.0,0.0,0.0,0.0,0.0,0.0,0.0,0.0,0.0,0.0,0.0,0.0,0.0,0.0,0.0,0.0,0.0,0.0,0.0,-6.3177,-6.4392,-6.6041,-6.8704,-6.8405,-6.8256,-6.8944,-6.8375,-6.6849,0.0,0.0,0.0,0.0,0.0,0.0,0.0,0.0,0.0,0.0,0.0,0.0,0.0,0.0,0.0,0.0,0.0,0.0,0.0,0.0,0.0,0.0,0.0,0.0,0.0,0.0,0.0,0.0,0.0,0.0,0.0,0.0,0.0,0.0,0.0,0.0,0.0,0.0,0.0,0.0,0.0,0.0,0.0,0.0,0.0,0.0,0.0,0.0,0.0,0.0,0.0,0.0,0.0,0.0,0.0,0.0,0.0,0.0,0.0,0.0,0.0,0.0,0.0,0.0,0.0,0.0,0.0,0.0,0.0,0.0,0.0,0.0,0.0,0.0,0.0,0.0,0.0,0.0,0.0,0.0,0.0,0.0,0.0,0.0,0.0,0.0,0.0,0.0,0.0,0.0,0.0,0.0,0.0,0.0,0.0,0.0,0.0,0.0,0.0,0.0,0.0,0.0,0.0,-6.3009,-6.4664,-6.637,-6.8076,-6.8944,-6.9273,-6.9034,-6.8824,-6.7956,-6.6221,0.0,0.0,0.0,0.0,0.0,0.0,0.0,0.0,0.0,0.0,0.0,0.0,0.0,0.0,0.0,0.0,0.0,0.0,0.0,0.0,0.0,0.0,0.0,0.0,0.0,0.0,0.0,0.0,0.0,0.0,0.0,0.0,0.0,0.0,0.0,0.0,0.0,0.0,0.0,0.0,0.0,0.0,0.0,0.0,0.0,0.0,0.0,0.0,0.0,0.0,0.0,0.0,0.0,0.0,0.0,0.0,0.0,0.0,0.0,0.0,0.0,0.0,0.0,0.0,0.0,0.0,0.0,0.0,0.0,0.0,0.0,0.0,0.0,0.0,0.0,0.0,0.0,0.0,0.0,0.0,0.0,0.0,0.0,0.0,0.0,0.0,0.0,0.0,0.0,0.0,0.0,0.0,0.0,0.0,0.0,0.0,0.0,0.0,0.0,0.0,0.0,0.0,-6.2867,-6.4784,-6.661,-6.8226,-6.9093,-6.9542,-6.9393,-6.9153,-6.8435,-6.7059,0.0,0.0,0.0,0.0,0.0,0.0,0.0,0.0,0.0,0.0,0.0,0.0,0.0,0.0,0.0,0.0,0.0,0.0,0.0,0.0,0.0,0.0,0.0,0.0,0.0,0.0,0.0,0.0,0.0,0.0,0.0,0.0,0.0,0.0,0.0,0.0,0.0,0.0,0.0,0.0,0.0,0.0,0.0,0.0,0.0,0.0,0.0,0.0,0.0,0.0,0.0,0.0,0.0,0.0,0.0,0.0,0.0,0.0,0.0,0.0,0.0,0.0,0.0,0.0,0.0,0.0,0.0,0.0,0.0,0.0,0.0,0.0,0.0,0.0,0.0,0.0,0.0,0.0,0.0,0.0,0.0,0.0,0.0,0.0,0.0,0.0,0.0,0.0,0.0,0.0,0.0,0.0,0.0,0.0,0.0,0.0,0.0,0.0,0.0,0.0,0.0,0.0,-6.2897,-6.4904,-6.6879,-6.8704,-6.9064,-6.9393,-6.9931,-6.9423,-6.8555,-6.7358,0.0,0.0,0.0,0.0,0.0,0.0,0.0,0.0,0.0,0.0,0.0,0.0,0.0,0.0,0.0,0.0,0.0,0.0,0.0,0.0,0.0,0.0,0.0,0.0,0.0,0.0,0.0,0.0,0.0,0.0,0.0,0.0,0.0,0.0,0.0,0.0,0.0,0.0,0.0,0.0,0.0,0.0,0.0,0.0,0.0,0.0,0.0,0.0,0.0,0.0,0.0,0.0,0.0,0.0,0.0,0.0,0.0,0.0,0.0,0.0,-5.4769,-5.3458,0.0,0.0,0.0,0.0,0.0,0.0,0.0,0.0,0.0,0.0,0.0,0.0,0.0,0.0,0.0,0.0,0.0,0.0,0.0,0.0,0.0,0.0,0.0,0.0,0.0,0.0,0.0,0.0,0.0,0.0,0.0,0.0,0.0,0.0,0.0,0.0,0.0,0.0,0.0,0.0,-6.3017,-6.5712,-6.7717,-6.8136,-6.9572,-7.035,-7.0021,-6.9842,-6.9662,-6.9363,-6.8226,0.0,0.0,0.0,0.0,0.0,0.0,0.0,0.0,0.0,0.0,0.0,0.0,0.0,0.0,0.0,0.0,0.0,0.0,0.0,0.0,0.0,0.0,0.0,0.0,0.0,0.0,0.0,0.0,0.0,0.0,0.0,0.0,0.0,0.0,0.0,0.0,0.0,0.0,0.0,0.0,0.0,0.0,0.0,0.0,0.0,0.0,0.0,0.0,0.0,0.0,0.0,0.0,0.0,0.0,0.0,0.0,0.0,0.0,0.0,-5.6921,-5.575,0.0,0.0,0.0,0.0,0.0,0.0,0.0,0.0,0.0,0.0,0.0,0.0,0.0,0.0,0.0,0.0,0.0,0.0,0.0,0.0,0.0,0.0,0.0,0.0,0.0,0.0,0.0,0.0,0.0,0.0,0.0,0.0,0.0,0.0,0.0,0.0,0.0,0.0,0.0,0.0,-6.3496,-6.6131,-6.8345,-6.9273,-7.029,-7.0889,-7.0889,-7.032,-6.9991,-6.9991,-6.9333,0.0,0.0,0.0,0.0,0.0,0.0,0.0,0.0,0.0,0.0,0.0,0.0,0.0,0.0,0.0,0.0,0.0,0.0,0.0,0.0,0.0,0.0,0.0,0.0,0.0,0.0,0.0,0.0,0.0,0.0,0.0,0.0,0.0,0.0,0.0,0.0,0.0,0.0,0.0,0.0,0.0,0.0,0.0,0.0,0.0,0.0,0.0,0.0,0.0,0.0,0.0,0.0,0.0,-5.7453,-5.8141,-5.88,-5.871,-5.9308,-6.0326,-5.856,-5.7723,-5.7573,-5.7064,0.0,0.0,0.0,0.0,0.0,0.0,0.0,0.0,0.0,0.0,0.0,0.0,0.0,0.0,0.0,0.0,0.0,0.0,0.0,0.0,0.0,0.0,-6.213,-6.213,-6.3394,-6.4023,-6.2017,0.0,0.0,0.0,0.0,0.0,0.0,0.0,0.0,0.0,0.0,0.0,-6.4246,-6.658,-6.8854,-7.0709,-7.1009,-7.1338,-7.1996,-7.1098,-7.044,-7.032,-7.032,-6.9722,0.0,0.0,0.0,0.0,0.0,0.0,0.0,0.0,0.0,0.0,0.0,0.0,0.0,0.0,0.0,0.0,0.0,0.0,0.0,0.0,0.0,0.0,0.0,0.0,0.0,0.0,0.0,0.0,0.0,0.0,0.0,0.0,-5.8969,-5.9778,0.0,0.0,0.0,0.0,0.0,0.0,0.0,0.0,0.0,0.0,0.0,0.0,0.0,-5.5819,-5.6825,-5.8082,-5.871,-5.874,-5.9997,-6.0924,-6.1553,-6.0984,-6.1134,-6.1792,-6.0954,0.0,-5.9697,-5.9608,0.0,0.0,0.0,0.0,0.0,0.0,0.0,0.0,0.0,0.0,0.0,0.0,0.0,0.0,0.0,0.0,0.0,0.0,0.0,0.0,0.0,0.0,-6.4515,-6.4515,-6.4754,-6.4874,-6.4514,-6.3505,-6.2516,-6.2087,-6.1574,-6.0831,0.0,0.0,0.0,0.0,0.0,0.0,-6.5592,-6.7567,-6.9393,-7.0769,-7.1427,-7.2026,-7.2714,-7.2624,-7.2265,-7.1667,-7.1637,-7.1038,-6.9782,-6.9243,0.0,0.0,0.0,0.0,0.0,0.0,0.0,0.0,0.0,0.0,0.0,0.0,0.0,0.0,0.0,0.0,0.0,0.0,0.0,0.0,0.0,0.0,0.0,0.0,0.0,0.0,0.0,0.0,0.0,-5.7299,-5.8502,-5.8922,-5.8473,-5.7474,0.0,0.0,0.0,0.0,0.0,0.0,0.0,0.0,0.0,-5.7059,-5.7304,-5.7916,-5.9036,-6.0599,-6.1343,-6.1343,-6.269,-6.3468,-6.3737,-6.3438,-6.3468,-6.3737,-6.3438,-6.3139,-6.272,-6.0864,-5.9727,-5.9189,0.0,0.0,0.0,0.0,-5.868,-5.889,-6.0296,-6.0805,-6.0835,-6.1224,0.0,0.0,0.0,0.0,0.0,0.0,0.0,-6.2592,-6.3492,-6.4365,-6.5114,-6.5503,-6.6131,-6.67,-6.67,-6.6162,-6.5199,-6.3219,-6.1961,-6.1151,-6.0715,-6.1523,0.0,0.0,0.0,-6.6011,-6.6999,-6.8525,-7.0201,-7.1846,-7.2295,-7.2744,-7.3402,-7.3133,-7.2774,-7.2475,-7.2116,-7.1637,-7.1068,-7.041,-6.9123,0.0,0.0,0.0,0.0,0.0,0.0,0.0,0.0,0.0,0.0,0.0,0.0,0.0,0.0,0.0,0.0,0.0,0.0,0.0,0.0,0.0,0.0,0.0,0.0,0.0,0.0,0.0,0.0,-5.8209,-5.8712,-5.8645,-5.9003,-5.832,0.0,0.0,0.0,0.0,0.0,0.0,-5.6505,-5.6819,-5.7639,-5.9141,-5.9711,-6.0502,-6.1719,-6.2963,-6.3588,-6.3588,-6.4575,-6.5024,-6.5024,-6.5024,-6.5024,-6.5024,-6.4844,-6.4755,-6.4575,-6.2301,-6.1253,-6.1044,-6.0535,-6.0266,-6.0146,-6.0296,-6.0356,-6.0595,-6.2271,-6.2839,-6.2929,-6.3408,-6.3647,-6.3616,-6.2648,0.0,0.0,0.0,0.0,-6.3588,-6.4725,-6.5263,-6.5742,-6.658,-6.7388,-6.8016,-6.8196,-6.7956,-6.7059,-6.4755,-6.3408,-6.257,-6.2391,-6.3318,0.0,-6.4066,-6.5892,-6.7537,-6.8375,-6.9512,-7.0919,-7.2714,-7.3073,-7.3432,-7.4091,-7.3702,-7.3283,-7.2924,-7.2445,-7.1996,-7.1637,-7.1009,-6.9901,-6.8256,0.0,0.0,0.0,0.0,0.0,0.0,0.0,0.0,0.0,0.0,0.0,0.0,0.0,0.0,0.0,0.0,0.0,0.0,0.0,0.0,0.0,0.0,0.0,0.0,0.0,0.0,0.0,0.0,0.0,-6.0765,-6.2003,0.0,0.0,0.0,0.0,-5.6889,-5.6153,-5.6293,-5.7549,-5.8305,-5.9649,-6.1851,-6.2853,-6.3802,-6.4755,-6.4845,-6.4934,-6.4934,-6.4994,-6.5024,-6.5024,-6.5024,-6.5024,-6.4934,-6.4336,-6.4066,-6.4096,-6.4575,-6.4395,-6.3797,-6.3767,-6.3378,-6.2959,-6.3528,-6.3737,-6.3857,-6.4635,-6.4874,-6.4874,-6.4875,-6.4126,-6.2989,-6.2301,-6.1672,0.0,0.0,-6.3947,-6.4545,-6.7119,-6.7328,-6.7238,-6.8525,-6.8405,-6.8136,-6.8794,-6.7956,-6.7178,-6.7627,-6.7178,-6.649,-6.5862,0.0,-6.6789,-6.6789,-6.7448,-6.8405,-6.9722,-7.044,-7.1398,-7.2774,-7.3462,-7.4121,-7.4779,-7.4809,-7.424,-7.2984,-7.2894,-7.2295,-7.1009,-7.035,-6.9692,-6.8974,-6.7657,0.0,0.0,0.0,0.0,0.0,0.0,0.0,0.0,0.0,0.0,0.0,0.0,0.0,0.0,0.0,0.0,0.0,0.0,0.0,0.0,0.0,0.0,0.0,0.0,0.0,0.0,0.0,0.0,-6.153,-6.3348,0.0,-6.0407,-6.1357,-6.1356,-5.962,-6.0015,-6.0611,-6.114,-6.1849,-6.2557,-6.3354,-6.3713,-6.4218,-6.4964,-6.5024,-6.5233,-6.5652,-6.6071,-6.6071,-6.5682,-6.6101,-6.6071,-6.5652,-6.5413,-6.5293,-6.5263,-6.5114,-6.4395,-6.3408,-6.3408,-6.3258,-6.3109,-6.3318,-6.3408,-6.3498,-6.4156,-6.4366,-6.4425,-6.4874,-6.4725,-6.4306,-6.4066,-6.3827,-6.3767,-6.4455,-6.4665,-6.4874,-6.5832,-6.652,-6.7119,-6.7597,-6.8824,-6.9931,-7.0171,-7.053,-7.0859,-7.1098,-6.8555,-6.643,-6.661,-6.7178,-6.7777,-6.8226,-6.8854,-6.9752,-7.1038,-7.1398,-7.2056,-7.3402,-7.3762,-7.4151,-7.4809,-7.4869,-7.4689,-7.421,-7.3373,-7.2714,-7.2206,-7.1158,-7.0081,-6.9034,-6.8944,-6.8046,0.0,0.0,0.0,0.0,0.0,0.0,0.0,0.0,0.0,0.0,0.0,0.0,0.0,0.0,0.0,0.0,0.0,0.0,0.0,0.0,0.0,0.0,0.0,0.0,0.0,-6.1808,-6.308,-6.2275,-6.4619,-6.5271,-6.2524,-6.4143,-6.4643,-6.2809,-6.3036,-6.3179,-6.3132,-6.3495,-6.3798,-6.3948,-6.4398,-6.4904,-6.5353,-6.5353,-6.5682,-6.634,-6.655,-6.655,-6.634,-6.6789,-6.6759,-6.6311,-6.6101,-6.6011,-6.5951,-6.5293,-6.4665,-6.4066,-6.4066,-6.4216,-6.4425,-6.4635,-6.4725,-6.4755,-6.4934,-6.4994,-6.5054,-6.5293,-6.5353,-6.5323,-6.5084,-6.5024,-6.5084,-6.5293,-6.5533,-6.5802,-6.6251,-6.6849,-6.7448,-6.7897,-6.8974,-6.9961,-7.0201,-7.0949,-7.1667,-7.1876,-6.9991,-6.8465,-6.8914,-6.9363,-6.9782,-7.026,-7.0679,-7.1278,-7.2116,-7.2415,-7.2894,-7.3791,-7.4091,-7.439,-7.4839,-7.4869,-7.4779,-7.4569,-7.3732,-7.3163,-7.2924,-7.1846,-7.0829,-6.9991,-6.9961,-6.9093,-6.7328,0.0,0.0,0.0,0.0,0.0,0.0,0.0,0.0,0.0,0.0,0.0,0.0,0.0,0.0,0.0,0.0,0.0,0.0,0.0,0.0,0.0,0.0,0.0,-6.1389,-6.3082,-6.4096,-6.3228,-6.6161,-6.7715,-6.6355,-6.77,-6.7958,-6.6368,-6.487,-6.3829,-6.3149,-6.3178,-6.3327,-6.3684,-6.5203,-6.6041,-6.6071,-6.6041,-6.637,-6.6969,-6.634,-6.637,-6.6969,-6.6969,-6.6969,-6.6939,-6.6281,-6.6011,-6.5951,-6.5293,-6.5413,-6.5981,-6.6011,-6.64,-6.7029,-6.7687,-6.7897,-6.7777,-6.7148,-6.6939,-6.6819,-6.6191,-6.5981,-6.5862,-6.5233,-6.5054,-6.5203,-6.5832,-6.646,-6.7268,-6.8585,-6.8435,-6.8256,-6.9572,-6.8944,-6.8226,-6.8884,-6.9064,-6.9243,-6.9871,-7.1577,-7.2894,-7.2894,-7.2894,-7.2894,-7.2924,-7.2894,0.0,-7.2954,-7.3492,-7.3911,-7.3911,-7.448,-7.4869,-7.4869,-7.4869,-7.4599,-7.3971,-7.3911,-7.3612,-7.2984,-7.2295,-7.1906,-7.1846,-7.0649,-6.9363,-6.8076,0.0,0.0,0.0,0.0,0.0,0.0,0.0,0.0,0.0,0.0,0.0,0.0,0.0,0.0,0.0,0.0,0.0,0.0,0.0,0.0,0.0,-6.2909,-6.4197,-6.397,-6.5772,-6.7214,-6.7538,-6.8881,-6.9483,-6.8793,-6.9126,-6.8572,-6.6574,-6.6022,-6.5197,-6.3858,-6.4421,-6.5077,-6.5674,-6.6367,-6.6939,-6.7418,-6.6969,-6.6819,-6.6999,-6.6819,-6.658,-6.6281,-6.6759,-6.6729,-6.6251,-6.6071,-6.6011,-6.5951,-6.5293,-6.5144,-6.5353,-6.5832,-6.6131,-6.6311,-6.649,-6.6251,-6.5802,-6.5622,-6.5562,-6.5533,-6.5353,-6.5293,-6.5263,-6.5084,-6.5353,-6.5772,-6.5951,-6.6131,-6.637,-6.6729,-6.7059,-6.7358,-6.7717,-6.8645,-6.9482,-6.9662,-7.0081,-7.044,-7.062,-7.1487,-7.2176,-7.2176,-7.2176,-7.2325,-7.2834,-7.2505,-7.2535,-7.3492,-7.3791,-7.4091,-7.454,-7.4779,-7.4869,-7.4869,-7.4869,-7.4809,-7.4629,-7.4151,-7.3821,-7.3642,-7.2984,-7.2176,-7.1188,-7.0829,-7.047,0.0,0.0,0.0,0.0,0.0,0.0,0.0,0.0,0.0,0.0,0.0,0.0,0.0,0.0,0.0,0.0,0.0,0.0,0.0,0.0,0.0,0.0,-6.5141,-6.6671,-6.7102,-6.8225,-6.9267,-7.0015,-7.0764,-7.1076,-7.0805,-7.079,-7.0112,-6.8486,-6.7441,-6.654,-6.5621,-6.5531,-6.5884,-6.6661,-6.7207,-6.7448,-6.7567,-6.7178,-6.6999,-6.6999,-6.67,-6.652,-6.643,-6.6819,-6.6789,-6.643,-6.643,-6.643,-6.64,-6.6011,-6.6011,-6.6251,0.0,0.0,0.0,0.0,-6.658,-6.6221,-6.5951,-6.5862,-6.5862,-6.5862,-6.6041,-6.6251,-6.6251,-6.6729,-6.7268,-6.7268,-6.7448,-6.7687,-6.7687,-6.7956,-6.8166,-6.7897,-6.8495,-6.9153,-6.9153,-6.9213,-6.9512,-7.035,-7.0829,0.0,-7.1787,-7.2116,-7.2535,-7.3223,-7.2984,-7.3103,-7.418,-7.43,-7.445,-7.4839,-7.4869,-7.4869,-7.4869,-7.4869,0.0,0.0,0.0,-7.43,-7.43,-7.3941,0.0,0.0,0.0,-7.1876,-7.1308,-7.1996,0.0,0.0,-6.9576,-6.9816,0.0,0.0,0.0,0.0,0.0,0.0,0.0,0.0,0.0,0.0,0.0,0.0,0.0,0.0,0.0,0.0,-6.7728,-6.9337,-7.0157,-7.0403,-7.0666,-7.1221,-7.1942,-7.2452,-7.2452,-7.2321,-7.1896,-7.1026,-6.9088,-6.7946,-6.7923,-6.6641,0.0,0.0,0.0,-6.7807,-6.7238,-6.7148,-6.7059,-6.6969,-6.64,-6.643,-6.6999,-6.7059,-6.7089,-6.7119,-6.7178,-6.7178,-6.7089,-6.7089,-6.7388,-6.7747,-6.667,-6.658,-6.7178,-6.7687,-6.7867,-6.7777,-6.7208,0.0,0.0,-6.6999,-6.7388,-6.7867,-6.7867,-6.8405,-6.9004,-6.9004,-6.9546,-7.0055,-6.9991,-6.9995,-6.9786,-6.9123,-6.8465,-6.8048,-6.8138,-6.7629,-6.7657,-6.9576,-7.0055,-7.044,-7.1577,-7.2415,-7.3133,-7.3791,-7.3881,-7.4121,-7.4779,-7.4869,-7.4869,-7.4869,-7.4869,0.0,-7.4869,-7.4869,-7.4869,-7.4869,-7.4869,-7.4869,-7.4869,-7.4809,-7.421,-7.3043,-7.3612,-7.3313,-7.2116,-7.2804,-7.3334,-7.3606,-7.1953,-7.1748,0.0,0.0,0.0,0.0,0.0,0.0,0.0,0.0,0.0,0.0,0.0,0.0,0.0,0.0,0.0,-6.5587,-6.7776,-6.9795,-7.1144,-7.1986,-7.2414,-7.2091,-7.2663,-7.3225,-7.3464,-7.2988,-7.2237,-7.1395,-7.0369,-6.9638,-6.9328,-6.8563,-6.8752,-7.0067,-6.9267,-6.8734,-6.8615,-6.8076,-6.7508,-6.6999,-6.6849,0.0,-6.6999,-6.7537,-6.7777,-6.7807,-6.8375,-6.8315,-6.7777,-6.7777,-6.7537,-6.7208,-6.7478,-6.7657,-6.7747,-6.7328,-6.7178,-6.7148,-6.7029,-6.6999,-6.6999,-6.6999,-6.7089,-6.7178,-6.7178,-6.8046,0.0,-6.9004,-6.9673,-7.0374,-7.0055,-6.9826,-6.9502,-6.9097,-6.8465,-6.823,-6.902,-6.8505,-6.8171,-6.9351,-7.0183,-7.0799,-7.1038,-7.2116,-7.3133,-7.3791,-7.3881,-7.4121,-7.4779,-7.4869,-7.4869,-7.4869,-7.4869,-7.4869,-7.4869,-7.4869,-7.4869,-7.4869,-7.4869,-7.4869,-7.4869,-7.436,-7.3971,-7.3702,-7.3821,-7.3762,-7.3492,-7.418,-7.4714,-7.4992,-7.3569,-7.3461,0.0,0.0,0.0,0.0,0.0,0.0,0.0,0.0,0.0,0.0,0.0,-6.1917,-6.3033,0.0,-6.5515,-6.6977,-6.8851,-7.0664,-7.2151,-7.3077,-7.354,-7.3254,-7.3533,-7.3815,-7.3968,-7.334,-7.2727,-7.2288,-7.1708,-7.139,-7.1561,-7.0776,-7.0767,-7.1813,-7.0298,-6.9333,-6.9004,-6.8315,-6.7627,-6.6999,-6.6999,-6.7178,-6.7478,-6.7837,-6.8166,-6.8495,-6.8854,-6.8615,-6.7956,-6.7627,-6.7298,-6.7029,-6.7358,-6.7478,-6.7448,-6.7119,-6.6999,-6.6999,-6.6999,-6.6999,-6.6999,-6.6999,-6.7208,-6.7539,-6.7724,-6.856,-6.9546,-6.9863,-7.0441,-7.0889,-7.0761,-7.0712,-7.057,-6.989,-6.9592,-6.9599,-7.0119,-6.9875,-6.981,-7.1026,-7.1624,-7.2038,-7.2405,-7.3112,-7.3694,-7.3851,-7.3881,-7.4121,-7.4779,-7.4869,-7.4869,-7.4869,-7.4869,-7.4869,-7.4869,-7.4869,-7.4869,-7.4869,-7.4869,-7.4869,-7.4869,-7.4569,-7.424,-7.3911,-7.421,-7.424,-7.3881,-7.4774,-7.5346,-7.5685,-7.5189,-7.5267,0.0,0.0,0.0,0.0,0.0,0.0,0.0,-5.9718,-5.9905,-6.2308,-6.2638,-6.2848,-6.4031,-6.5189,-6.6593,-6.8526,-7.0082,-7.1587,-7.2912,-7.3707,-7.4221,-7.4221,-7.4221,-7.4221,-7.4221,-7.3641,-7.3376,-7.3508,-7.3154,-7.3315,-7.416,-7.3122,-7.2822,-7.3506,-7.1719,-7.0484,-6.9939,-6.9026,-6.8299,-6.7788,-6.7361,-6.7448,-6.7956,-6.7956,-6.8286,-6.8794,-6.8794,-6.8495,-6.7926,-6.7268,-6.6999,-6.6999,-6.6999,-6.6999,-6.6999,-6.6999,-6.6999,-6.6999,-6.6999,-6.6999,-6.6999,-6.6999,-6.742,-6.7993,-6.836,-6.9201,-7.013,-7.0726,-7.1241,-7.1628,-7.1564,-7.1786,-7.1855,-7.0993,-7.0877,-7.1099,-7.1404,-7.1311,-7.1615,-7.3047,-7.3317,-7.359,-7.4107,-7.448,-7.454,-7.4046,-7.4069,-7.427,-7.4809,-7.4869,-7.4869,-7.4869,-7.4869,-7.4869,-7.4869,-7.4869,-7.4869,-7.4869,-7.4869,-7.4869,-7.4869,-7.4869,-7.4629,-7.4091,-7.4599,-7.4698,-7.4226,-7.5038,-7.5617,-7.6088,-7.6355,-7.6554,-5.8472,-5.8119,-5.8603,-5.9771,-5.9613,-5.9736,0.0,-6.2126,-6.2183,-6.3534,-6.4467,-6.5078,-6.5241,-6.6729,-6.8276,-6.9166,-7.0746,-7.215,-7.2978,-7.3707,-7.4221,-7.4221,-7.4221,-7.4221,-7.4221,-7.4155,-7.4337,-7.4966,-7.4996,-7.5573,-7.6875,-7.5732,-7.5394,-7.6192,-7.4278,-7.3222,-7.316,-7.1466,-7.0524,-7.0432,-6.8725,-6.7897,-6.7956,-6.7956,-6.8016,-6.8076,-6.8076,-6.8046,-6.7926,-6.7268,-6.6999,-6.6999,-6.6999,-6.6999,-6.6999,-6.6999,-6.6999,-6.6999,-6.6999,-6.6999,-6.6999,-6.6999,-6.7212,-6.7698,-6.8301,-6.9241,-7.0124,-7.0793,-7.1682,-7.2326,-7.1977,-7.2167,-7.2326,-7.1949,-7.14,-7.1404,-7.2909,-7.2505,-7.2347,-7.4039,-7.4607,-7.477,-7.4861,-7.5407,-7.5516,-7.448,-7.4594,-7.4809,-7.4869,-7.4869,-7.4869,-7.4869,-7.4869,-7.4869,-7.4869,-7.4869,-7.4869,-7.4869,-7.4869,-7.4869,-7.4869,-7.4869,-7.4839,-7.4779,-7.4839,-7.5044,-7.5256,-7.5316,-7.5752,-7.6421,-7.6488,-7.6686,-6.0075,-5.8981,-5.8547,-5.9408,-5.9666,-6.0076,-6.1495,-6.2118,-6.2827,-6.45,-6.54,-6.5876,-6.583,-6.693,-6.8121,-6.8895,-7.0346,-7.162,-7.2382,-7.3442,-7.4005,-7.3608,-7.3906,-7.4221,-7.4221,-7.4619,-7.4933,-7.5264,-7.6059,-7.6788,-7.7384,-7.6583,-7.6103,-7.595,-7.4078,-7.3096,-7.3096,-7.1504,-7.0959,-7.1335,-6.9357,-6.8667,-6.9032,-6.8328,-6.8196,-6.8555,-6.8136,-6.7956,-6.7926,-6.7268,-6.6999,-6.6999,-6.6999,-6.6999,-6.6999,-6.6999,-6.7121,-6.7243,-6.706,-6.7121,-6.7365,-6.7755,-6.7998,-6.8303,-6.9336,-7.0065,-7.0705,-7.1382,-7.2025,-7.2575,-7.2845,-7.3127,-7.3409,-7.3425,-7.3367,-7.3496,-7.4206,-7.4326,-7.4507,-7.5218,-7.5797,-7.6156,-7.6156,-7.6238,-7.613,-7.5692,-7.5368,-7.521,-7.521,-7.5006,-7.4869,-7.4869,-7.4869,-7.4869,-7.4869,-7.4869,-7.4869,-7.4869,-7.4869,-7.4869,-7.4869,-7.5074,-7.521,-7.521,-7.5414,-7.5617,-7.5654,-7.5954,-7.6221,-7.6457,-7.6686,-7.6884,-6.0697,-5.9667,-5.9091,-5.9876,-6.04,-6.0968,-6.1881,-6.2635,-6.3498,-6.4929,-6.5581,-6.5857,-6.5811,-6.6799,-6.7844,-6.8572,-6.9931,-7.1156,-7.2016,-7.3127,-7.3724,-7.3343,-7.4057,-7.4621,-7.4722,-7.5068,-7.543,-7.5827,-7.6821,-7.7517,-7.7715,-7.7337,-7.6776,-7.6027,-7.4734,-7.39,-7.3708,-7.2349,-7.1927,-7.2436,-7.0459,-6.9673,-6.9753,-6.8363,-6.7986,-6.8405,-6.7926,-6.7687,-6.7657,-6.7178,-6.6999,-6.6999,-6.7121,-6.7121,-6.7182,-6.7243,-6.7365,-6.7487,-6.7365,-6.7547,-6.8001,-6.8485,-6.8848,-6.9305,-7.0404,-7.1015,-7.1442,-7.206,-7.249,-7.2824,-7.3499,-7.3809,-7.409,-7.451,-7.4669,-7.4769,-7.4953,-7.523,-7.5507,-7.5692,-7.6123,-7.6523,-7.6708,-7.6542,-7.6406,-7.6589,-7.6088,-7.5685,-7.555,-7.5346,-7.5142,-7.5074,-7.5006,-7.5006,-7.4869,-7.4869,-7.4869,-7.4869,-7.5006,-7.5006,-7.5006,-7.5346,-7.558,-7.558,-7.585,-7.6021,-7.6057,-7.6355,-7.6554,-7.662,-7.6884,-7.7016,-5.9413,-5.9763,-6.0396,-6.2314,-6.2652,-6.2867,-6.4276,-6.4604,-6.4636,-6.4702,-6.495,-6.5132,-6.5132,-6.6469,-6.7844,-6.8572,-6.9931,-7.1253,-7.2259,-7.2828,-7.3309,-7.3733,-7.4889,-7.5739,-7.599,-7.557,-7.586,-7.7252,-7.7384,-7.7715,-7.8444,-7.8457,-7.8126,-7.7398,-7.7279,-7.6915,-7.622,-7.4941,-7.4309,-7.4309,-7.2436,-7.0923,-6.9753,-6.788,-6.7029,-6.7059,-6.7029,-6.7029,-6.7029,-6.6999,-6.6999,-6.706,-6.7365,-6.7487,-6.7548,-6.785,-6.7789,-6.7548,-6.785,-6.8395,-6.8941,-6.8941,-6.9641,-7.0557,-7.1229,-7.1691,-7.2121,-7.2768,-7.2983,-7.3137,-7.3814,-7.3999,-7.4153,-7.483,-7.4491,-7.4214,-7.4861,-7.4491,-7.4245,-7.4892,-7.5046,-7.5261,-7.5938,-7.6031,-7.6277,-7.6923,-7.6686,-7.6355,-7.5923,-7.5954,-7.585,-7.5414,-7.5346,-7.521,-7.4937,-7.4869,-7.4869,-7.4869,-7.521,-7.5346,-7.5346,-7.5782,-7.5984,-7.5984,-7.5984,-7.6155,-7.6488,-7.6488,-7.6686,-7.695,-7.7016,-7.7016,-5.9766,-6.0254,-6.0925,-6.1766,-6.2278,-6.2846,-6.3752,-6.4511,-6.4963,-6.4963,-6.4883,-6.4984,-6.5492,-6.6434,-6.7588,-6.8969,-7.0343,-7.1327,-7.188,-7.2901,-7.3469,-7.3112,-7.477,-7.5974,-7.604,-7.664,-7.7285,-7.7959,-7.8093,-7.8299,-7.8744,-7.8617,-7.7947,-7.6722,-7.6689,-7.6357,-7.5628,-7.4738,-7.4497,-7.499,-7.3091,-7.1505,-7.0266,-6.883,-6.8206,-6.8177,-6.7335,-6.6999,-6.6999,-6.6999,-6.7121,-6.7365,-6.7487,-6.7669,-6.791,-6.8697,-6.8544,-6.818,-6.8516,-6.9245,-7.0068,-7.0526,-7.0893,-7.1322,-7.2244,-7.2583,-7.2706,-7.2922,-7.3322,-7.3814,-7.4491,-7.4984,-7.5507,-7.6184,-7.5815,-7.5384,-7.563,-7.5507,-7.5384,-7.563,-7.6031,-7.64,-7.6646,-7.6677,-7.6769,-7.6985,-7.6752,-7.6355,-7.6021,-7.5984,-7.5984,-7.585,-7.555,-7.5414,-7.5519,-7.5346,-7.5346,-7.5647,-7.5782,-7.5782,-7.5782,-7.6155,-7.6355,-7.6355,-7.6554,-7.6686,-7.6818,-7.6818,-7.6884,-7.7016,-7.7016,-7.7016,-5.9806,-6.0204,-6.0833,-6.1234,-6.1719,-6.2311,-6.3265,-6.4177,-6.4838,-6.4838,-6.4785,-6.4847,-6.5313,-6.6257,-6.7291,-6.8127,-6.9608,-7.0811,-7.1312,-7.2337,-7.3108,-7.3332,-7.5064,-7.6272,-7.6288,-7.7463,-7.818,-7.8096,-7.827,-7.8531,-7.885,-7.883,-7.8112,-7.6513,-7.648,-7.5964,-7.4951,-7.4453,-7.4453,-7.4867,-7.322,-7.2004,-7.121,-6.9579,-6.8766,-6.8707,-6.7548,-6.718,-6.7512,-6.7512,-6.7696,-6.8122,-6.8728,-6.8729,-6.8636,-6.9578,-6.9667,-6.927,-6.9304,-6.9731,-7.0372,-7.1047,-7.1445,-7.1844,-7.2706,-7.2983,-7.3045,-7.326,-7.366,-7.4214,-7.5138,-7.5692,-7.6123,-7.6554,-7.6154,-7.56,-7.5353,-7.5292,-7.5292,-7.5292,-7.5846,-7.6369,-7.6615,-7.6862,-7.7016,-7.7016,-7.6818,-7.662,-7.6385,-7.6385,-7.6288,-7.6155,-7.5954,-7.5819,-7.5923,-7.5752,-7.5685,-7.5954,-7.6088,-7.6155,-7.6155,-7.6488,-7.6686,-7.6686,-7.6884,-7.7016,-7.7016,-7.7016,-7.7016,-7.7016,-7.7016,-7.7016,-5.9524,-5.9694,-6.0278,-6.0972,-6.1161,-6.1525,-6.2984,-6.3769,-6.4266,-6.4343,-6.4517,-6.4614,-6.469,-6.6065,-6.701,-6.6363,-6.8037,-6.9836,-7.087,-7.1438,-7.2412,-7.433,-7.5754,-7.6616,-7.6826,-7.7914,-7.8354,-7.7755,-7.8029,-7.8415,-7.8822,-7.9098,-7.8515,-7.6822,-7.6704,-7.5903,-7.4221,-7.4221,-7.4221,-7.4171,-7.3044,-7.2485,-7.2432,-7.0004,-6.8883,-6.8825,-6.7578,-6.7634,-6.8543,-6.8573,-6.8757,-6.9245,-7.0862,-7.0679,-6.9608,-7.0585,-7.0921,-7.0828,-7.0213,-6.9997,-7.012,-7.0798,-7.1475,-7.2152,-7.2829,-7.3045,-7.3168,-7.3845,-7.4061,-7.4399,-7.5692,-7.6,-7.6031,-7.6061,-7.5507,-7.483,-7.4214,-7.4091,-7.4091,-7.4091,-7.4645,-7.5292,-7.5938,-7.6585,-7.7016,-7.7016,-7.7016,-7.7016,-7.7016,-7.7016,-7.6884,-7.6554,-7.6554,-7.6324,-7.599,-7.6021,-7.6021,-7.599,-7.6324,-7.6554,-7.6554,-7.6818,-7.7016,-7.7016,-7.7016,-7.7016,-7.7016,-7.7016,-7.7016,-7.7016,-7.7016,-7.7016,-6.0728,-6.1148,-6.1745,-6.1912,-6.1917,-6.2159,-6.3112,-6.3405,-6.358,-6.3753,-6.3659,-6.3758,-6.4495,-6.5893,-6.726,-6.8378,-6.967,-7.1084,-7.2595,-7.2932,-7.3405,-7.4445,-7.5898,-7.6608,-7.6048,-7.6845,-7.719,-7.6809,-7.7631,-7.81,-7.7866,-7.7765,-7.716,-7.6005,-7.5971,-7.5437,-7.4221,-7.4221,-7.4221,-7.4171,-7.3884,-7.3731,-7.3679,-7.1265,-7.0262,-7.0438,-6.8786,-6.8362,-6.8941,-6.9426,-6.9823,-7.019,-7.0587,-7.0679,-7.0615,-7.1444,-7.1352,-7.0952,-7.1321,-7.1444,-7.1567,-7.2244,-7.2583,-7.286,-7.3537,-7.3753,-7.3876,-7.4553,-7.5107,-7.5569,-7.5907,-7.6,-7.6154,-7.6646,-7.5846,-7.5076,-7.5415,-7.5507,-7.5507,-7.5507,-7.6031,-7.6554,-7.6739,-7.6892,-7.7016,-7.7016,-7.7016,-7.7016,-7.7016,-7.7016,-7.695,-7.6884,-7.6686,-7.6554,-7.6686,-7.6488,-7.6488,-7.6686,-7.6818,-7.6884,-7.6884,-7.695,-7.7016,-7.7016,-7.7016,-7.7016,-7.7016,-7.7016,-7.7016,-7.7016,-7.7016,-7.7016,-6.0765,-6.0952,-6.1388,-6.1682,-6.176,-6.1979,-6.2825,-6.3306,-6.3583,-6.3375,-6.337,-6.3565,-6.4125,-6.5684,-6.715,-6.7784,-6.9427,-7.1176,-7.28,-7.3003,-7.351,-7.4931,-7.5845,-7.6183,-7.5743,-7.642,-7.671,-7.6111,-7.7042,-7.7597,-7.7546,-7.7497,-7.7044,-7.6057,-7.6057,-7.5539,-7.4406,-7.4372,-7.4372,-7.4372,-7.4473,-7.4573,-7.4473,-7.2611,-7.1753,-7.1664,-7.0709,-7.0211,-7.0159,-7.1106,-7.1321,-7.12,-7.1813,-7.1783,-7.1475,-7.2152,-7.1967,-7.1475,-7.2183,-7.2429,-7.2491,-7.286,-7.2983,-7.3168,-7.4153,-7.443,-7.4584,-7.5261,-7.5723,-7.6092,-7.6369,-7.6461,-7.6461,-7.6554,-7.6,-7.5476,-7.5538,-7.5784,-7.6092,-7.64,-7.6769,-7.7016,-7.7016,-7.7016,-7.7016,-7.7016,-7.7016,-7.7016,-7.7016,-7.7016,-7.7016,-7.7016,-7.6818,-7.6818,-7.695,-7.6818,-7.6818,-7.7016,-7.7016,-7.7016,-7.7016,-7.7016,-7.7016,-7.7016,-7.7016,-7.7016,-7.7016,-7.7016,-7.7016,-7.7016,-7.7016,-7.7016,-6.0458,-6.0304,-6.0496,-6.119,-6.1466,-6.1738,-6.248,-6.3299,-6.3699,-6.3174,-6.3374,-6.3616,-6.3616,-6.5425,-6.6712,-6.6269,-6.837,-7.0646,-7.2157,-7.2496,-7.3274,-7.5303,-7.5642,-7.5709,-7.5709,-7.6318,-7.6454,-7.5743,-7.6454,-7.7033,-7.7327,-7.7573,-7.7303,-7.6384,-7.6335,-7.5786,-7.4656,-7.4656,-7.4656,-7.4656,-7.487,-7.5018,-7.4968,-7.3833,-7.312,-7.2816,-7.2834,-7.2559,-7.2089,-7.3086,-7.3089,-7.2459,-7.3446,-7.3137,-7.2183,-7.2768,-7.2614,-7.2214,-7.2891,-7.3106,-7.3137,-7.3229,-7.326,-7.3476,-7.4738,-7.5138,-7.5261,-7.5969,-7.6154,-7.6277,-7.6862,-7.6954,-7.6769,-7.6277,-7.6061,-7.5877,-7.5384,-7.5723,-7.6308,-7.6892,-7.7016,-7.7016,-7.7016,-7.7016,-7.7016,-7.7016,-7.7016,-7.7016,-7.7016,-7.7016,-7.7016,-7.7016,-7.7016,-7.7016,-7.7016,-7.7016,-7.7016,-7.7016,-7.7016,-7.7016,-7.7016,-7.7016,-7.7016,-7.7016,-7.7016,-7.7016,-7.7016,-7.7016,-7.7016,-7.7016,-7.7108,-7.7139,-6.1757,-6.1905,-6.1929,-6.2237,-6.2773,-6.3204,-6.3073,-6.3158,-6.3148,-6.2824,-6.294,-6.3171,-6.3357,-6.4697,-6.6091,-6.7018,-6.8481,-7.0212,-7.2135,-7.2902,-7.368,-7.4695,-7.5337,-7.5709,-7.5709,-7.5811,-7.5845,-7.5709,-7.6454,-7.6657,-7.6067,-7.6082,-7.5952,-7.5527,-7.5366,-7.5152,-7.4919,-7.4919,-7.4919,-7.4919,-7.4968,-7.5018,-7.5002,-7.4412,-7.4189,-7.4399,-7.4591,-7.4703,-7.4854,-7.4653,-7.4435,-7.4228,-7.3447,-7.3014,-7.2829,-7.2952,-7.2922,-7.2891,-7.3568,-7.3814,-7.3907,-7.4461,-7.4645,-7.4799,-7.56,-7.5846,-7.5969,-7.6646,-7.6831,-7.6862,-7.6985,-7.6615,-7.6308,-7.6739,-7.64,-7.6123,-7.6585,-7.6769,-7.6892,-7.6985,-7.7016,-7.7016,-7.7016,-7.7016,-7.7016,-7.7016,-7.7016,-7.7016,-7.7016,-7.7016,-7.7016,-7.7016,-7.7016,-7.7016,-7.7016,-7.7016,-7.7016,-7.7016,-7.7016,-7.7016,-7.7016,-7.7016,-7.7016,-7.7016,-7.7016,-7.7016,-7.7016,-7.7016,-7.7016,-7.7016,-7.76,-7.7847,-6.2057,-6.2361,-6.2433,-6.2479,-6.3155,-6.3605,-6.2857,-6.2753,-6.2751,-6.2501,-6.2569,-6.2893,-6.3383,-6.492,-6.6313,-6.6913,-6.8675,-7.0435,-7.1796,-7.2858,-7.3747,-7.4525,-7.527,-7.5709,-7.5709,-7.5709,-7.5709,-7.5709,-7.6048,-7.6284,-7.6318,-7.6318,-7.627,-7.6125,-7.5512,-7.5164,-7.5164,-7.5164,-7.5164,-7.5131,-7.5277,-7.5609,-7.5965,-7.5739,-7.5819,-7.6168,-7.6862,-7.6789,-7.6079,-7.5835,-7.5359,-7.4652,-7.3477,-7.2983,-7.2983,-7.2983,-7.3199,-7.3599,-7.4276,-7.4738,-7.5138,-7.5846,-7.5815,-7.5661,-7.6338,-7.6523,-7.6615,-7.6923,-7.7016,-7.7016,-7.7016,-7.6769,-7.6615,-7.6954,-7.6769,-7.6615,-7.6954,-7.7016,-7.7016,-7.7016,-7.7016,-7.7016,-7.7016,-7.7016,-7.7016,-7.7016,-7.7016,-7.7016,-7.7016,-7.7016,-7.7016,-7.7016,-7.7016,-7.7016,-7.7016,-7.7016,-7.7016,-7.7016,-7.7016,-7.7016,-7.7016,-7.7016,-7.7016,-7.7016,-7.7016,-7.7016,-7.7016,-7.7385,-7.7539,-7.757,-7.8247,-7.8585,-6.2224,-6.2558,-6.2814,-6.285,-6.3435,-6.3717,-6.2891,-6.269,-6.2529,-6.2117,-6.2249,-6.2703,-6.3462,-6.5069,-6.6431,-6.6833,-6.8603,-7.0259,-7.126,-7.2508,-7.3557,-7.4289,-7.5134,-7.5709,-7.5709,-7.5709,-7.5709,-7.5709,-7.5845,-7.6217,-7.686,-7.7063,-7.7063,-7.6893,-7.6092,-7.5542,-7.5373,-7.5373,-7.5373,-7.5373,-7.5614,-7.6115,-7.6893,-7.7063,-7.7362,-7.777,-7.8876,-7.8597,-7.7346,-7.7125,-7.6451,-7.5417,-7.3934,-7.3385,-7.3385,-7.3262,-7.3537,-7.4122,-7.4922,-7.5569,-7.6123,-7.68,-7.6646,-7.6338,-7.6862,-7.7016,-7.7016,-7.7016,-7.7016,-7.7016,-7.7016,-7.7016,-7.7016,-7.7016,-7.7016,-7.7016,-7.7016,-7.7016,-7.7016,-7.7016,-7.7016,-7.7016,-7.7016,-7.7016,-7.7016,-7.7016,-7.7016,-7.7016,-7.7016,-7.7016,-7.7016,-7.7016,-7.7016,-7.7016,-7.7016,-7.7016,-7.7016,-7.7016,-7.7016,-7.7016,-7.7016,-7.7016,-7.7016,-7.7016,-7.7169,-7.7231,-7.7231,-7.7908,-7.8247,-7.8278,-7.8986,-7.9324,-6.266,-6.3101,-6.3817,-6.4007,-6.4065,-6.4076,-6.3957,-6.3374,-6.2587,-6.1605,-6.1979,-6.2703,-6.3462,-6.4324,-6.5486,-6.7387,-6.789,-6.8651,-7.0352,-7.1862,-7.296,-7.3557,-7.483,-7.5709,-7.5709,-7.5709,-7.5709,-7.5709,-7.6386,-7.6826,-7.6893,-7.7536,-7.757,-7.6927,-7.6777,-7.6405,-7.5662,-7.5662,-7.5662,-7.5662,-7.5709,-7.6115,-7.6927,-7.757,-7.8265,-7.8976,-7.9752,-8.0006,-7.9785,-7.8677,-7.8164,-7.7839,-7.5502,-7.4593,-7.4568,-7.4067,-7.3937,-7.4184,-7.5476,-7.5969,-7.6123,-7.68,-7.6985,-7.6954,-7.7016,-7.7016,-7.7016,-7.7016,-7.7016,-7.7016,-7.7016,-7.7016,-7.7016,-7.7016,-7.7016,-7.7016,-7.7016,-7.7016,-7.7016,-7.7016,-7.7016,-7.7016,-7.7016,-7.7016,-7.7016,-7.7016,-7.7016,-7.7016,-7.7016,-7.7016,-7.7016,-7.7016,-7.7016,-7.7016,-7.7016,-7.7016,-7.7016,-7.7016,-7.7016,-7.7016,-7.7016,-7.7016,-7.7016,-7.7016,-7.7631,-7.7939,-7.7939,-7.8647,-7.9016,-7.9016,-7.9694,-8.0032,-6.3196,-6.335,-6.3358,-6.3452,-6.33,-6.2994,-6.2394,-6.1769,-6.1287,-6.1014,-6.1536,-6.2438,-6.3722,-6.4752,-6.5918,0.0,0.0,0.0,-6.9472,-7.1113,-7.2482,-7.296,-7.4339,-7.5378,-7.5642,-7.5709,-7.5709,-7.5709,-7.6454,-7.6893,-7.6893,-7.7604,-7.8077,-7.8213,-7.7773,-7.7198,-7.642,-7.642,-7.6183,-7.5709,-7.6183,-7.6826,-7.757,-7.8314,-7.9058,-7.9769,-8.0073,-8.0209,-8.0074,-7.8922,-7.8411,-7.825,-7.6532,-7.5417,-7.4806,-7.4989,-7.4874,-7.4676,-7.5199,-7.5661,-7.6,-7.5846,-7.6092,-7.6492,-7.6892,-7.6739,-7.6492,-7.6892,-7.7016,-7.7016,-7.7016,-7.7016,-7.7081,-7.7507,-7.7277,-7.7212,-7.8023,-7.7894,-7.7572,-7.7572,-7.7959,-7.7959,-7.7147,-7.7312,-7.7442,-7.7081,-7.7016,-7.7016,-7.7016,-7.7016,-7.7016,-7.7016,-7.7016,-7.7016,-7.7016,-7.7016,-7.7016,-7.7016,-7.7016,-7.7016,-7.7016,-7.7016,-7.72,-7.7631,-7.7877,-7.8247,-7.8678,-7.9755,-8.0278,-8.0309,-8.1387,-8.191,-6.312,-6.3171,-6.3032,-6.3032,-6.2623,-6.2015,-6.148,-6.0808,-6.034,-6.048,-6.1186,-6.2301,-6.4043,-6.5214,-6.6408,0.0,0.0,-6.8801,-6.9207,-7.0686,-7.1917,-7.2448,-7.3742,-7.4873,-7.5479,-7.5622,-7.5709,-7.5709,-7.6217,-7.6758,-7.7198,-7.7705,-7.8247,-7.8754,-7.8483,-7.7976,-7.7232,-7.6995,-7.6724,-7.6386,-7.6724,-7.7401,-7.8348,-7.8855,-7.9498,-8.0209,-8.0209,-8.0209,-8.0124,-7.9288,-7.8922,-7.8783,-7.7621,-7.6363,-7.5396,-7.568,-7.5307,-7.4738,-7.4922,-7.5446,-7.5938,-7.5702,-7.5921,-7.6446,-7.7321,-7.7003,-7.64,-7.6892,-7.7147,-7.7312,-7.7507,-7.7572,-7.7701,-7.8183,-7.7959,-7.783,-7.8817,-7.8628,-7.8311,-7.8311,-7.8691,-7.8691,-7.7765,-7.8023,-7.8151,-7.7636,-7.7572,-7.7572,-7.7572,-7.7377,-7.7277,-7.7277,-7.7147,-7.7016,-7.7016,-7.7016,-7.7016,-7.7016,-7.72,-7.7323,-7.7323,-7.7539,-7.7847,-7.8339,-7.8739,-7.917,-7.9694,-8.1017,-8.1664,-8.1694,-8.2649,-8.308,-6.2217,-6.251,-6.32,-6.32,-6.2277,-6.1478,-6.2051,-6.1198,-6.0262,-6.0139,-6.1004,-6.237,-6.4322,-6.536,-6.6754,-6.9467,0.0,0.0,-6.9893,-7.0751,-7.1422,-7.196,-7.3129,-7.4218,-7.492,-7.5445,-7.5709,-7.5709,-7.5709,0.0,-7.7908,-7.7976,-7.7976,-7.801,-7.872,-7.872,-7.7976,-7.7266,-7.7266,-7.7942,-7.7232,-7.7671,-7.9092,-7.9126,-7.9498,-8.0209,-8.0209,-8.0209,-8.0209,-8.0209,-8.0209,-8.0074,-7.8836,-7.7621,-7.6516,-7.5978,-7.5026,-7.4091,-7.4769,-7.5446,-7.6129,-7.6803,-7.6993,-7.7245,-7.8534,-7.8056,-7.7016,-7.7016,-7.7442,-7.812,-7.8817,-7.9005,-7.9005,-7.9005,-7.9005,-7.9005,-7.9005,-7.9005,-7.9005,-7.9005,-7.9005,-7.9005,-7.9005,-7.9005,-7.9005,-7.9005,-7.9005,-7.9005,-7.9005,-7.8375,-7.8023,-7.8023,-7.7408,-7.7016,-7.7016,-7.7016,-7.7016,-7.7016,-7.7662,-7.8031,-7.8031,-7.8709,-7.9078,-7.9078,-8.0371,-8.1048,-8.1048,-8.2402,-8.308,-8.308,-8.308,-8.308,-6.2429,-6.2289,-6.229,-6.2767,-6.1748,-6.0732,-6.1133,-6.0874,-6.0454,-6.0171,-6.1855,-6.368,-6.4599,-6.6033,-6.7663,-6.9591,-6.8917,0.0,-6.9016,-7.076,-7.2133,-7.2668,-7.466,-7.5805,-7.55,-7.5622,-7.5709,-7.5709,-7.6217,-7.6724,-7.7232,-7.8213,-7.8991,-7.9498,-7.9735,-7.9498,-7.8754,-7.8517,-7.828,-7.7976,-7.828,-7.8653,-7.9126,-7.9634,-7.9972,-8.0209,-8.0209,-8.0209,-8.0209,-8.0209,-8.0209,-8.0158,-7.9819,-7.8411,-7.6629,-7.6908,-7.6069,-7.4771,-7.5462,-7.6116,-7.6741,-7.6931,-7.7337,-7.7746,-7.8153,-7.8061,-7.7779,-7.8249,-7.8501,-7.8754,-7.8943,-7.9005,-7.913,-7.9565,-7.9317,-7.9255,-8.0149,-7.9995,-7.9688,-7.9688,-8.0056,-8.0088,-7.913,-7.9379,-7.9565,-7.9068,-7.9005,-7.9005,-7.9005,-7.8817,-7.888,-7.9352,-7.9224,-7.8709,-7.7759,-7.7724,-7.7908,-7.8401,-7.8647,-7.8955,-7.9447,-7.9663,-8.0217,-8.111,-8.154,-8.2002,-8.2464,-8.3326,-8.4003,-8.4465,-8.4957,-8.5142,-6.1717,-6.1768,-6.1761,-6.1992,-6.1168,-6.0419,-6.0878,-6.0793,-6.0578,-6.0516,-6.2386,-6.4223,-6.465,-6.6285,-6.8097,-6.9636,-6.8895,-6.8552,-6.981,-7.1138,-7.2365,-7.3352,-7.5195,-7.6035,-7.5337,-7.554,-7.5709,-7.5709,-7.6454,-7.7029,-7.7299,-7.845,-7.9431,-8.0175,-8.0209,-7.9972,-7.9532,-7.9261,-7.9025,-7.8822,-7.9025,-7.9261,-7.9532,-8.0006,-8.0209,-8.0209,-8.0209,-8.0209,0.0,-8.0209,-8.0209,-8.0209,-8.0209,-7.9079,-7.7467,-7.7851,-7.7078,-7.5868,-7.6211,-7.6838,-7.7402,-7.7641,-7.8416,-7.9112,-7.9112,-7.8806,-7.8499,-7.919,-7.9379,-7.9441,-7.9688,-7.975,-7.9873,-8.0271,-8.0088,-7.9966,-8.0846,-8.0634,-8.0392,-8.0392,-8.0694,-8.0726,-7.9905,-8.0088,-8.0271,-7.9811,-7.975,-7.9878,-8.0133,-7.9979,-8.0046,-8.084,-8.065,-8.0136,-7.9207,-7.8955,-7.8853,-7.9078,-7.9355,-7.9663,-8.0094,-8.0586,-8.1233,-8.2064,-8.2587,-8.3049,-8.348,-8.4157,-8.4834,-8.5511,-8.5911,-8.625,0.0,-6.1078,-6.153,-6.1081,-6.0661,-6.0481,-6.1087,-6.1015,0.0,-6.1182,-6.2884,-6.4492,-6.4781,-6.6391,-6.8204,-6.9707,-6.8895,-6.9036,-7.1693,-7.1925,-7.2424,-7.4172,-7.5015,-7.5241,-7.4742,-7.5303,-7.5709,-7.5777,-7.6521,-7.7299,-7.8044,-7.8788,-7.9498,-8.0175,-8.0209,-8.0209,-8.0209,-7.9532,-7.9532,-8.0175,-7.9532,-7.9532,-8.0209,-8.0209,-8.0209,-8.0209,-8.0209,-8.0209,-8.0259,-8.0259,-8.0259,-8.0259,-8.0259,-7.9683,-7.885,-7.8716,-7.812,-7.73,-7.7302,-7.7763,-7.8334,-7.9003,-8.0086,-8.1085,-8.1025,-8.0149,-7.9255,-7.9873,-8.0056,-8.0178,-8.0846,-8.0966,-8.0966,-8.0966,-8.0966,-8.0966,-8.0966,-8.0966,-8.0966,-8.0966,-8.0966,-8.0966,-8.0966,-8.0966,-8.1058,-8.109,-8.1122,-8.1382,-8.2094,-8.1611,-8.1529,-8.2234,-8.1793,-8.1373,-8.1311,-8.0616,-7.9942,-7.9299,-7.9878,-8.0278,-8.0309,-8.154,-8.2248,-8.2279,-8.3541,-8.4188,-8.4249,-8.4865,-8.5542,-8.6188,-8.625,-8.6589,-6.0756,0.0,-6.0957,-6.099,-6.0788,-6.0578,0.0,-6.1808,-6.2688,-6.2502,-6.4973,-6.7102,-6.6936,-6.7976,-6.9205,-7.0166,-6.9083,-6.8947,-7.1389,-7.3448,-7.5104,-7.6116,-7.6551,-7.6415,-7.5554,-7.5608,-7.5946,-7.6555,-7.7299,-7.8044,-7.8822,-7.9532,-8.0006,-8.0175,-8.0209,-8.0209,-8.0209,-8.004,-8.004,-8.0209,-8.0006,-8.004,-8.0209,-8.0209,-8.0209,-8.0209,-8.0209,-8.0309,-8.051,-8.051,-8.0659,-8.0808,-8.0808,-8.0107,-7.9184,-7.9708,-7.9077,-7.8183,-7.997,-8.0573,-8.0664,-8.1349,-8.1803,-8.1934,-8.1204,-8.0786,-8.0573,-8.0726,-8.0786,-8.0786,-8.0966,-8.0966,-8.0966,-8.0966,-8.0966,-8.0966,-8.0966,-8.0966,-8.0966,-8.0966,-8.0966,-8.0966,-8.0966,-8.0966,-8.122,-8.177,-8.1867,-8.2126,-8.2839,-8.2814,-8.2949,-8.3627,-8.3568,-8.348,-8.3448,-8.1899,-8.0813,-8.0624,-8.1233,-8.1848,-8.2372,-8.3172,-8.388,-8.4372,-8.4711,-8.5111,-8.5634,-8.5788,-8.625,-8.6958,-8.7451,-8.7512,-6.1822,-6.1347,-6.0924,-6.0812,-6.098,-6.1171,-6.1326,-6.2719,-6.3779,-6.3231,-6.5782,-6.7774,-6.6695,-6.8328,-6.9769,-6.946,-6.9837,-7.0903,-7.2841,-7.4394,-7.5719,-7.6718,-7.6629,-7.648,0.0,-7.6408,-7.653,-7.686,-7.7908,-7.8686,-7.9092,-7.9803,-8.0209,-8.0209,-8.0209,-8.0209,-8.0209,-8.0209,-8.0209,-8.0209,-8.0209,-8.0209,-8.0209,-8.0209,-8.0209,-8.0209,-8.0209,-8.036,-8.061,-8.061,-8.0759,-8.1005,-8.1005,-8.0845,-8.0784,-8.1083,-8.1049,-8.1017,-8.2167,-8.2532,-8.2467,-8.2873,-8.2986,-8.2873,-8.2362,-8.1992,-8.1525,-8.1144,-8.0966,-8.0966,-8.0966,-8.0966,-8.0966,-8.0966,-8.0966,-8.0966,-8.0966,-8.0966,-8.0966,-8.0966,-8.0966,-8.0966,-8.0966,-8.1317,-8.1673,-8.2062,-8.2385,-8.2871,-8.3551,-8.3648,-8.394,-8.462,-8.4685,-8.4596,-8.4251,-8.3156,-8.2371,-8.211,-8.2665,-8.3116,-8.3077,-8.3714,-8.4403,-8.508,-8.5419,-8.5758,-8.6127,-8.6435,-8.6958,-8.7666,-8.8035,-8.8159,-6.3084,-6.2296,-6.136,-6.0905,-6.1459,-6.2191,-6.2363,-6.381,-6.4947,-6.4269,-6.6446,-6.7988,-6.6378,-6.8398,-6.9902,-6.8672,-7.0997,-7.3445,-7.4834,-7.5283,-7.578,-7.6782,-7.6416,0.0,-7.7292,-7.7428,-7.74,-7.7329,-7.848,-7.9259,-7.9311,-7.9921,-8.0259,-8.0209,-8.0209,-8.0209,-8.0209,-8.0209,-8.0209,-8.0209,-8.0209,-8.0209,-8.0209,-8.0209,-8.0209,-8.0259,-8.0259,-8.046,-8.0709,-8.0709,-8.0906,-8.1102,-8.1239,-8.1797,-8.2546,-8.2667,-8.3227,-8.3906,-8.3874,-8.3981,-8.4089,-8.3926,-8.3926,-8.3872,-8.3762,-8.3154,-8.2452,-8.1643,-8.1204,-8.1025,-8.1204,-8.1085,-8.0966,-8.0966,-8.0966,-8.0966,-8.0966,-8.0966,-8.0966,-8.0966,-8.0966,-8.1058,-8.1187,-8.1705,-8.2191,-8.2385,-8.3033,-8.3778,-8.4458,-8.4555,-8.4782,-8.5397,-8.5365,-8.5048,-8.4572,-8.4604,-8.4378,-8.3729,-8.397,-8.4063,-8.3619,-8.3998,-8.4629,-8.541,-8.5892,-8.6219,-8.6435,-8.705,-8.7697,-8.8343,-8.8343,-8.8589,-6.3886,-6.3271,-6.2461,-6.1813,-6.2698,-6.3583,-6.2939,-6.5255,-6.7517,-6.741,-6.8837,-7.0127,-7.0097,-6.9773,-6.9621,-7.0078,-7.2385,-7.446,-7.5451,-7.6882,-7.7766,-7.7477,-7.7547,-7.7809,-7.8142,-7.8354,-7.8675,-7.9065,-7.9498,-7.9956,-8.0356,-8.0492,-8.046,-8.0209,-8.0209,-8.0209,-8.0209,-8.0209,-8.0209,-8.0209,-8.0209,-8.0209,-8.0209,-8.0209,-8.036,-8.056,-8.056,-8.0808,-8.1297,-8.1297,-8.1442,-8.1702,-8.2356,-8.2714,-8.299,-8.4269,-8.4403,-8.3958,-8.46,-8.5256,-8.5754,-8.5048,-8.4785,-8.4679,-8.3926,-8.3598,-8.3487,-8.3321,-8.219,-8.1204,-8.1992,-8.1617,-8.0966,-8.0966,-8.0966,-8.0966,-8.0966,-8.0966,-8.0966,-8.0966,-8.0966,-8.122,-8.1835,-8.2029,-8.2515,-8.3713,-8.449,-8.5235,-8.598,-8.6077,-8.611,-8.6239,-8.5656,-8.5496,-8.6047,-8.6565,-8.663,-8.5953,-8.4814,-8.465,-8.5721,-8.5211,-8.5555,-8.6917,-8.6358,-8.6712,-8.7881,-8.7974,-8.8374,-8.9051,-8.9051,-8.8805,-6.5376,-6.4943,-6.4333,-6.3562,-6.3888,-6.4411,-6.4415,-6.6634,-6.8654,-6.8421,-6.9471,-7.0377,-7.0129,-7.0143,-7.1059,-7.371,-7.4094,-7.4817,-7.6847,-7.6755,-7.6892,-7.7904,0.0,-7.8041,-7.9289,-7.9474,-7.9563,-7.9698,-8.0204,-8.058,-8.0774,-8.0808,-8.0759,-8.0659,-8.051,-8.051,-8.0659,-8.051,-8.041,-8.041,-8.041,-8.041,-8.041,-8.041,-8.051,-8.061,-8.0759,-8.1054,-8.1393,-8.1393,-8.1778,-8.2431,-8.2776,-8.3431,-8.4294,-8.5397,-8.5527,-8.5258,-8.56,-8.5992,-8.6244,-8.5805,-8.5703,-8.5601,-8.5239,-8.4785,-8.4412,-8.4412,-8.3154,-8.185,-8.228,-8.1701,-8.0966,-8.0966,-8.0966,-8.0966,-8.0966,-8.0966,-8.0966,-8.0966,-8.1673,-8.2191,-8.2126,-8.3389,-8.4523,-8.4749,-8.543,-8.6012,-8.6369,-8.6401,-8.6272,-8.5851,-8.5851,-8.5851,-8.5818,-8.6077,-8.6598,-8.7499,-8.6167,-8.5825,-8.6811,-8.6909,-8.7016,-8.7288,-8.7643,-8.7958,-8.8189,-8.8559,-8.8897,-8.9205,-8.9205,-8.902,-6.6446,-6.6341,-6.601,-6.5293,-6.5401,-6.5809,-6.607,-6.8183,-6.9986,-6.9637,-7.0171,-7.059,-7.0273,-7.102,-7.2771,-7.6095,-7.5499,-7.5533,-7.8292,-7.712,-7.674,-7.8706,-7.8396,-7.8684,-8.0377,-8.0548,-8.0501,-8.0261,-8.0809,-8.1151,-8.1102,-8.1102,-8.1054,-8.1005,-8.0808,-8.0808,-8.1005,-8.0857,-8.0759,-8.0709,-8.0709,-8.0709,-8.0709,-8.0709,-8.0759,-8.0808,-8.1005,-8.1248,-8.1524,-8.1696,-8.2205,-8.2949,-8.3293,-8.4259,-8.5535,-8.6087,-8.6294,-8.6294,-8.6294,-8.6294,-8.6294,-8.6294,-8.6294,-8.6294,-8.6294,-8.5805,-8.5308,-8.5308,-8.4197,-8.2873,-8.251,-8.1876,-8.1263,-8.1025,-8.0966,-8.109,-8.1252,-8.1155,-8.1063,-8.1479,-8.2288,-8.2904,-8.2871,-8.4555,-8.5818,-8.5591,-8.6045,-8.6401,-8.6401,-8.6401,-8.6174,-8.5624,-8.5915,-8.598,-8.5591,-8.5559,-8.6371,-8.8102,-8.7005,-8.6707,-8.7544,-8.8126,-8.8338,-8.833,-8.8931,-8.9189,-8.9004,-8.9306,-8.9553,-8.9704,-8.9553,-8.9477,-6.6476,-6.6767,-6.6893,-6.6408,-6.7497,-6.8476,-6.7572,-7.009,-7.2563,-7.2436,-7.1917,-7.1796,-7.2823,-7.3322,-7.3926,-7.4896,-7.611,-7.7534,-7.9189,-7.9293,-7.95,-8.0362,-8.0396,-8.0613,-8.127,-8.1517,-8.1564,-8.1325,-8.1585,-8.1633,-8.1393,-8.1345,-8.1248,-8.1005,-8.1005,-8.1005,-8.1005,-8.1248,-8.12,-8.0956,-8.0956,-8.0956,-8.0956,-8.0956,-8.1102,-8.1345,-8.1345,-8.149,-8.1797,-8.2487,-8.2797,-8.3052,-8.4466,-8.5535,-8.6225,-8.6294,-8.6294,-8.6294,-8.6294,-8.6294,-8.6294,-8.6294,-8.6294,-8.6294,-8.6294,-8.6244,-8.6194,-8.6194,-8.5549,-8.4466,-8.285,-8.2338,-8.205,-8.1204,-8.0966,-8.122,-8.19,-8.1511,-8.1414,-8.2774,-8.258,-8.2806,-8.4717,-8.4652,-8.4814,-8.6142,-8.6369,-8.6401,-8.6401,-8.6401,-8.6401,-8.6336,-8.5753,-8.5624,-8.6272,-8.6336,-8.6629,-8.747,-8.6723,-8.6947,-8.8343,-8.8422,-8.9273,-9.124,-8.9982,-8.9995,-9.128,-9.0536,-9.061,-9.1302,-9.0568,-9.0197,-6.7535,-6.8284,-6.9025,-6.9417,-7.0932,-7.1889,-7.0116,-7.112,-7.2521,-7.2943,-7.2227,-7.1517,-7.1525,-7.3525,-7.5292,-7.5612,-7.7361,-7.8844,-7.9431,-7.95,-7.9776,-8.0534,-8.0603,-8.0901,-8.1564,-8.1763,-8.1763,-8.1668,-8.1763,-8.1763,-8.1668,-8.1668,-8.1585,-8.149,-8.1345,-8.1345,-8.149,-8.1442,-8.1442,-8.149,-8.1345,-8.1248,-8.1248,-8.1248,-8.1297,-8.1393,-8.162,-8.1715,-8.1845,-8.2604,-8.319,-8.3742,-8.5294,-8.6053,-8.6294,-8.6294,-8.6294,-8.6294,-8.6294,-8.6294,-8.6294,-8.6294,-8.6294,-8.6294,-8.6294,-8.6294,-8.6194,-8.5652,-8.5652,-8.5549,-8.4359,-8.3598,-8.3198,-8.3323,-8.2906,-8.2812,-8.4176,-8.3852,-8.3382,-8.3938,-8.4528,-8.4902,-8.4679,-8.5494,-8.6239,-8.6401,-8.6401,-8.6401,-8.6401,-8.6401,-8.6239,-8.5753,-8.5462,-8.5591,-8.6336,-8.6401,-8.6693,-8.7373,-8.7147,-8.7664,-8.9121,-8.9978,-9.0826,-9.161,-9.1492,-9.1484,-9.152,-9.1197,-9.1229,-9.152,-9.1826,-9.2009,-6.8739,-6.9795,-7.088,-7.1653,-7.296,-7.3699,-7.2377,-7.2831,-7.3529,-7.3406,-7.2749,-7.2086,-7.1556,-7.4163,-7.6451,-7.6449,-7.8189,-7.95,-7.95,-7.9707,-8.0155,-8.0914,-8.0983,-8.1224,-8.1741,-8.181,-8.181,-8.181,-8.181,-8.181,-8.181,-8.181,-8.181,-8.181,-8.1585,-8.1585,-8.181,-8.162,-8.162,-8.181,-8.1826,-8.1833,-8.1833,-8.1833,-8.1971,-8.226,-8.2404,-8.25,-8.2569,-8.3328,-8.4087,-8.4846,-8.588,-8.6294,-8.6294,-8.6294,-8.6467,-8.6605,-8.6398,-8.6467,-8.6605,-8.6398,-8.6294,-8.6294,-8.6294,-8.6294,-8.6194,-8.5601,-8.5977,-8.6488,-8.5891,-8.5124,-8.4506,-8.4756,-8.4498,-8.4579,-8.5938,-8.5597,-8.5136,-8.56,-8.6295,-8.6555,-8.586,-8.6786,-8.7539,-8.731,-8.7081,-8.6826,-8.6515,-8.6453,-8.6293,-8.5719,-8.5851,-8.6174,-8.6693,-8.6725,-8.7016,-8.7729,-8.7988,-8.8636,-8.9866,-9.1259,-9.2155,-9.2312,-9.2583,-9.2525,-9.224,-9.2025,-9.2136,-9.2744,-9.3207,-9.3558,-7.0,-7.1126,-7.2389,-7.2647,-7.3067,-7.3583,-7.4257,-7.5548,-7.6081,-7.4183,-7.3845,-7.3826,-7.3795,-7.5665,-7.7205,-7.7213,-7.8534,-7.9534,-7.95,-8.0155,-8.0914,-8.1707,-8.181,-8.181,-8.181,-8.181,-8.181,-8.181,-8.181,-8.181,-8.181,-8.181,-8.181,-8.181,-8.181,-8.181,-8.181,-8.181,-8.181,-8.181,-8.2569,-8.2914,-8.2914,-8.2914,-8.3328,-8.4018,-8.4018,-8.4018,-8.4087,-8.488,-8.5639,-8.6294,-8.6294,-8.6294,-8.6294,-8.6294,-8.6777,-8.7294,-8.657,-8.6777,-8.7294,-8.6536,-8.6294,-8.6294,-8.6294,-8.6294,-8.6294,-8.6329,-8.6846,-8.7398,-8.7432,-8.6782,-8.5904,-8.5056,-8.5404,-8.6108,-8.6878,-8.6443,-8.6376,-8.785,-8.7548,-8.7481,-8.8864,-8.8529,-8.8328,-8.8998,-8.8529,-8.7746,-8.6798,-8.6711,-8.6643,-8.6463,-8.7016,-8.7437,-8.7437,-8.7437,-8.7729,-8.8474,-8.9186,-8.9899,-9.0579,-9.2036,-9.3137,-9.3817,-9.3121,-9.3121,-9.3817,-9.3121,-9.3614,-9.5442,-9.4609,-9.4745,-7.0136,-7.1464,-7.2972,-7.3706,-7.429,-7.486,-7.562,-7.628,-7.6505,-7.5653,-7.5398,-7.5019,-7.3995,-7.614,-7.7693,-7.6578,-7.8603,-8.012,-7.9569,-8.0638,-8.1535,-8.1776,-8.181,-8.181,-8.181,-8.181,-8.181,-8.181,-8.181,-8.181,-8.181,-8.181,-8.181,-8.181,-8.181,-8.181,-8.181,-8.181,-8.181,-8.181,-8.2569,-8.2914,-8.2914,-8.3466,-8.3811,-8.4018,-8.4018,-8.4018,-8.4087,-8.488,-8.5639,-8.6294,-8.6294,-8.6294,-8.6294,-8.6294,-8.6432,-8.6605,-8.6398,-8.6432,-8.6605,-8.6363,-8.6294,-8.6294,-8.6294,-8.6294,-8.6432,-8.6949,-8.7225,-8.7536,-8.8088,-8.8399,-8.8568,-8.8304,-8.7905,-8.7973,-8.9409,-8.8994,-8.8552,-8.8993,-8.8891,-8.8689,-8.8444,-8.8228,-8.8161,-8.8362,-8.8228,-8.7912,-8.7524,-8.7314,-8.7173,-8.7114,-8.7308,-8.7632,-8.815,-8.8182,-8.8993,-9.0975,-9.1108,-9.1162,-9.1356,-9.2295,-9.3137,-9.3817,-9.4333,-9.4707,-9.4909,-9.5409,-9.5901,-9.6452,-9.693,-9.7337,-7.0427,-7.1832,-7.3471,-7.4026,-7.4652,-7.555,-7.7308,-7.6876,-7.6195,-7.6562,-7.6085,-7.5615,-7.5639,-7.6911,-7.7831,-7.751,-7.8982,-8.012,-7.9982,-8.1017,-8.181,-8.181,-8.181,-8.181,-8.181,-8.181,-8.181,-8.181,-8.181,-8.181,-8.181,-8.181,-8.181,-8.181,-8.181,-8.181,-8.181,-8.2397,-8.2673,-8.2707,-8.3742,-8.4121,-8.3845,-8.4294,-8.4639,-8.4915,-8.4915,-8.4915,-8.4949,-8.5432,-8.5915,-8.6294,-8.6294,-8.6294,-8.6294,-8.6294,-8.6501,-8.6708,-8.6398,-8.6501,-8.6708,-8.6398,-8.6294,-8.6294,-8.6294,-8.6294,-8.6467,-8.7191,-8.7639,-8.8053,-8.8846,-8.9571,-9.0054,-8.9778,-8.9461,-8.9556,-9.0603,-9.0353,-9.003,-9.003,-9.003,-8.9867,-8.9283,-8.9172,-8.9172,-8.9172,-8.9128,-8.9144,-8.9324,-8.9127,-8.8969,-8.8969,-8.9232,-8.9593,-9.0053,-9.0348,-9.1323,-9.3113,-9.3299,-9.35,-9.3762,-9.379,-9.4247,-9.5043,-9.5672,-9.5999,-9.5999,-9.6645,-9.709,-9.7529,-9.8086,-9.8606,-7.0649,-7.2045,-7.3721,-7.3607,-7.434,-7.5832,-7.8891,-7.7435,-7.5851,-7.7217,-7.6403,-7.6006,-7.7955,-7.785,-7.7942,-7.9188,-7.9534,-7.9844,-8.0534,-8.1293,-8.181,-8.181,-8.181,-8.181,-8.181,-8.181,-8.181,-8.181,-8.181,-8.181,-8.181,-8.181,-8.181,-8.181,-8.181,-8.1845,-8.1914,-8.3328,-8.4052,-8.4156,-8.5604,-8.5949,-8.5294,-8.5294,-8.5673,-8.6294,-8.6294,-8.6294,-8.6294,-8.6294,-8.6294,-8.6294,-8.6294,-8.6294,-8.6294,-8.6294,-8.6742,-8.7225,-8.6536,-8.6742,-8.7191,-8.6536,-8.6363,-8.6398,-8.6398,-8.6467,-8.6674,-8.7398,-8.8157,-8.8881,-8.9605,-9.0295,-9.064,-9.0002,-9.0382,-9.0812,-9.0812,-9.0812,-9.0812,-9.0812,-9.0812,-9.0812,-9.0812,-9.0881,-9.095,-9.1019,-9.0851,-9.1013,-9.175,-9.1656,-9.1502,-9.1502,-9.2078,-9.2514,-9.2514,-9.3183,-9.3948,-9.478,-9.5422,-9.6222,-9.7119,-9.6129,-9.5934,-9.69,-9.7027,-9.7027,-9.7027,-9.7153,-9.7654,-9.8546,-9.8546,-9.9061,-7.0032,-7.1421,-7.2955,-7.2307,-7.4033,-7.6458,-7.8369,-7.8757,-7.8772,-7.9128,-7.8852,-7.8384,-7.7609,-7.8325,-7.8933,-7.8683,-7.9638,-8.0431,-8.0603,-8.1293,-8.181,-8.181,-8.181,-8.181,-8.181,-8.181,-8.181,-8.181,-8.181,-8.181,-8.181,-8.181,-8.181,-8.181,-8.181,-8.2086,-8.2673,-8.3569,-8.4328,-8.4949,-8.588,-8.6225,-8.6053,-8.6053,-8.6156,-8.6294,-8.6294,-8.6294,-8.6294,-8.6294,-8.6294,-8.6294,-8.6294,-8.6294,-8.6294,-8.6294,-8.6398,-8.6536,-8.6363,-8.6398,-8.6501,-8.6363,-8.6708,-8.7156,-8.7156,-8.7605,-8.826,-8.9019,-8.9329,-8.964,-9.0364,-9.0674,-9.0883,-9.1126,-9.0988,-9.0812,-9.0812,-9.0812,-9.0812,-9.0812,-9.0812,-9.0812,-9.0812,-9.133,-9.195,-9.2502,-9.2425,-9.2373,-9.2543,-9.2373,-9.2246,-9.2246,-9.2413,-9.2514,-9.2514,-9.3183,-9.4254,-9.5781,-9.5794,-9.6844,-9.917,-9.7495,-9.6709,-9.69,-9.7654,-9.8086,-9.8086,-9.8907,-9.9382,-9.9592,-9.9592,-10.0019,-6.9733,-7.1161,-7.3047,-7.3674,-7.5317,-7.7189,-7.8752,-7.9705,-8.003,-7.9289,-7.9076,-7.8804,-7.7955,-7.843,-7.8982,-7.8948,-7.9879,-8.0741,-8.1121,-8.1535,-8.181,-8.181,-8.181,-8.181,-8.181,-8.181,-8.181,-8.181,-8.181,-8.181,-8.181,-8.181,-8.181,-8.181,-8.2155,-8.2673,-8.3431,-8.4915,-8.6053,-8.6811,-8.7225,-8.7018,-8.6294,-8.6294,-8.6294,-8.6294,-8.6294,-8.6294,-8.6329,-8.6674,-8.6846,-8.6846,-8.6846,-8.6846,-8.6777,-8.6432,-8.6294,-8.6294,-8.6294,-8.6294,-8.6363,-8.6708,-8.7087,-8.7467,-8.7881,-8.826,-8.8743,-8.9502,-8.9709,-8.9881,-9.0605,-9.1022,-9.1247,-9.1504,-9.1196,-9.0865,-9.1092,-9.097,-9.0812,-9.0812,-9.0812,-9.0916,-9.1295,-9.2019,-9.2778,-9.3537,-9.3601,-9.3666,-9.4008,-9.3929,-9.3879,-9.3879,-9.3879,-9.3879,-9.3879,-9.4898,-9.595,-9.6885,-9.7099,-9.8062,-9.9791,-9.8565,-9.7956,-9.833,-9.8847,-9.9086,-9.9086,-9.9651,-9.9883,-9.9883,-10.0297,-10.0676,-6.9624,-7.1124,-7.3376,-7.5499,-7.6802,-7.7985,-7.9415,-8.0331,-8.0477,-7.9004,-7.8629,-7.8419,-7.8231,-7.843,-7.881,-7.9396,-8.0258,-8.1052,-8.1707,-8.181,-8.181,-8.181,-8.181,-8.181,-8.181,-8.181,-8.181,-8.181,-8.181,-8.181,-8.181,-8.181,-8.1845,-8.1983,-8.2604,-8.3397,-8.4397,-8.6294,-8.7743,-8.8777,-8.8639,-8.7777,-8.6294,-8.6294,-8.6294,-8.6294,-8.6294,-8.6363,-8.6536,-8.7156,-8.7501,-8.7605,-8.7605,-8.7536,-8.7329,-8.6708,-8.6432,-8.6294,-8.6294,-8.6398,-8.6605,-8.7225,-8.7621,-8.8068,-8.8724,-8.9035,-8.9242,-8.9864,-8.9933,-9.0019,-9.0745,-9.1247,-9.1657,-9.1809,-9.1453,-9.1144,-9.1504,-9.1144,-9.0812,-9.0812,-9.0916,-9.1295,-9.2226,-9.2882,-9.3572,-9.4365,-9.4468,-9.471,-9.5296,-9.54,-9.54,-9.54,-9.54,-9.54,-9.54,-9.6676,-9.7469,-9.7469,-9.8193,-9.8883,-9.9469,-9.9055,-9.909,-9.9676,-9.9814,-9.9883,-9.9883,-9.9883,-9.9952,-10.009,-10.078,-10.1194,-6.9566,-7.1171,-7.3298,-7.4847,-7.6864,-7.8671,-7.9574,-8.0333,-8.0623,-7.976,-7.9004,-7.8244,-7.7505,-7.8465,-7.9396,-7.95,-8.0707,-8.1672,-8.1776,-8.181,-8.181,-8.181,-8.181,-8.181,-8.181,-8.181,-8.181,-8.181,-8.181,-8.181,-8.181,-8.181,-8.2086,-8.2742,-8.2845,-8.3914,-8.5984,-8.6294,-8.7501,-8.9536,-8.8915,-8.7777,-8.6294,-8.6294,-8.6294,-8.6294,-8.6294,-8.6674,-8.726,-8.7363,-8.7812,-8.8433,-8.8433,-8.8019,-8.7398,-8.7294,-8.6846,-8.6294,-8.6294,-8.6742,-8.7294,-8.7363,-8.86,-9.0114,-9.0218,-9.0705,-9.1226,-9.1331,-9.1005,-9.0779,-9.135,-9.1555,-9.1809,-9.2784,-9.2554,-9.206,-9.1657,-9.1144,-9.0812,-9.0812,-9.1364,-9.2295,-9.3709,-9.4054,-9.4365,-9.5124,-9.5227,-9.5262,-9.5365,-9.54,-9.54,-9.54,-9.54,-9.54,-9.54,-9.6158,-9.6641,-9.6641,-9.74,-9.7883,-9.7986,-9.8504,-9.8849,-9.8917,-9.9573,-9.9883,-9.9883,-9.9883,-10.0263,-10.0883,-10.0987,-10.178,-7.087,-7.2326,-7.394,-7.565,-7.7339,-7.8674,-7.8996,-7.9341,-7.9329,-7.8469,-7.7996,-7.7641,-7.7268,-7.8465,-7.95,-7.95,-8.081,-8.181,-8.181,-8.181,-8.181,-8.181,-8.181,-8.181,-8.181,-8.181,-8.181,-8.181,-8.181,-8.181,-8.181,-8.219,-8.2569,-8.288,-8.3742,-8.488,-8.6294,-8.7156,-8.8088,-8.9088,-8.8743,-8.7777,-8.6294,-8.6294,-8.6294,-8.6294,-8.6294,-8.6742,-8.7432,-8.7881,-8.8536,-8.9226,-8.9226,-8.9019,-8.8605,-8.7743,-8.7191,-8.6915,-8.6915,-8.7122,-8.7536,-8.8433,-8.9311,-9.014,-9.0555,-9.0901,-9.1144,-9.1144,-9.1196,-9.1299,-9.1555,-9.206,-9.2603,-9.3072,-9.3024,-9.2748,-9.2554,-9.186,-9.1386,-9.1802,-9.2877,-9.3917,-9.461,-9.4825,-9.502,-9.5331,-9.54,-9.54,-9.54,-9.54,-9.54,-9.54,-9.54,-9.54,-9.54,-9.6089,-9.6503,-9.6503,-9.6814,-9.7227,-9.7676,-9.7572,-9.7917,-9.878,-9.9504,-9.9883,-9.9883,-10.0366,-10.078,-10.109,-10.1884,-10.2677,-7.1314,-7.2698,-7.4129,-7.5442,-7.6911,-7.8056,-7.817,-7.8181,-7.8119,0.0,-7.7461,-7.7292,-7.7499,-7.8603,-7.95,-7.95,-8.081,-8.181,-8.181,-8.181,-8.181,-8.181,-8.181,-8.181,-8.181,-8.181,-8.181,-8.181,-8.181,-8.1879,-8.2086,-8.2604,-8.3087,-8.3466,-8.4777,-8.5915,-8.688,-8.8398,-8.8881,-8.8295,-8.8501,-8.7777,-8.6294,-8.6294,-8.6294,-8.6329,-8.6501,-8.7018,-8.7777,-8.8536,-8.9295,-8.9985,-8.9985,-8.9881,-8.9536,-8.8191,-8.7708,-8.7674,-8.7467,-8.7674,-8.8191,-8.9484,-9.0123,-9.0503,-9.1057,-9.123,-9.123,-9.123,-9.1402,-9.1657,-9.191,-9.2603,-9.3215,-9.3357,-9.3404,-9.3345,-9.332,-9.2674,-9.2402,-9.343,-9.4547,-9.5332,-9.5383,-9.5531,-9.553,-9.5455,-9.54,-9.54,-9.54,-9.54,-9.54,-9.54,-9.54,-9.54,-9.54,-9.5882,-9.6227,-9.6227,-9.6227,-9.6469,-9.7055,-9.671,-9.7124,-9.8469,-9.9435,-9.9987,-10.0194,-10.078,-10.1263,-10.1677,-10.278,-10.3401,-6.9648,-7.1406,-7.3185,-7.3046,-7.4798,-7.6651,-7.7232,-7.7386,-7.7725,-7.9192,-7.8258,-7.7465,-7.8223,-7.8982,-7.95,-7.95,-8.081,-8.181,-8.181,-8.181,-8.181,-8.181,-8.181,-8.181,-8.181,-8.181,-8.181,-8.181,-8.181,-8.2121,-8.2811,-8.288,-8.3569,-8.5018,-8.5846,-8.6949,-8.8467,-8.995,-8.9605,-8.7467,-8.8226,-8.7777,-8.6294,-8.6294,-8.6294,-8.6329,-8.7053,-8.7812,-8.8605,-8.9329,-9.0088,-9.0743,-9.0743,-9.0329,-8.9605,-8.8812,-8.8536,-8.8433,-8.7674,-8.8364,-8.9709,-9.0256,-9.1281,-9.2273,-9.2309,-9.2309,-9.2309,-9.2309,-9.196,-9.1809,-9.2845,-9.3167,-9.331,-9.3858,-9.3995,-9.3897,-9.3651,-9.3531,-9.3952,-9.5462,-9.5813,-9.5888,-9.6098,-9.6166,-9.5986,-9.551,-9.54,-9.54,-9.54,-9.54,-9.54,-9.54,-9.54,-9.54,-9.54,-9.5434,-9.5434,-9.5434,-9.5434,-9.5468,-9.5503,-9.6158,-9.6883,-9.771,-9.9159,-10.0297,-10.0987,-10.1056,-10.178,-10.3194,-10.3298,-10.3677,-6.94,-7.1287,-7.3102,-7.2926,-7.4971,-7.6913,-7.6146,-7.6608,-7.7398,-7.7953,-7.7619,-7.7465,-7.8258,-7.9017,-7.95,-7.95,-8.081,-8.181,-8.181,-8.181,-8.181,-8.181,-8.181,-8.181,-8.181,-8.181,-8.2017,-8.2466,-8.2535,-8.2845,-8.3569,-8.4121,-8.4846,-8.588,-8.6639,-8.7743,-8.9295,-8.9364,-8.8984,-8.8157,-8.795,-8.7294,-8.6294,-8.6294,-8.6294,-8.6363,-8.7639,-8.8329,-8.8639,-8.9398,-9.0123,-9.0812,-9.0812,-9.064,-9.0329,-8.9571,-8.9295,-8.926,-8.8984,-8.9432,-9.0293,-9.0624,-9.1448,-9.2259,-9.1555,-9.1606,-9.186,-9.186,-9.201,-9.2259,-9.3024,-9.3451,-9.3872,-9.4591,-9.478,-9.5009,-9.5877,-9.5835,-9.5766,-9.6296,-9.6826,-9.7083,-9.6764,-9.6432,-9.6147,-9.5932,-9.564,-9.553,-9.5878,-9.5585,-9.54,-9.54,-9.54,-9.54,-9.54,-9.54,-9.54,-9.54,-9.5848,-9.6089,-9.6089,-9.6848,-9.7848,-9.909,-9.9607,-10.0297,-10.109,-10.2056,-10.278,-10.3298,-10.3781,-10.4194,-6.8816,0.0,-7.1626,-7.2019,-7.374,-7.5335,-7.4999,-7.5585,-7.6305,-7.7026,-7.7016,-7.7258,-7.8534,-7.9189,-7.95,-7.95,-8.081,-8.181,-8.181,-8.181,-8.181,-8.181,-8.181,-8.181,-8.181,-8.181,-8.2121,-8.2845,-8.2914,0.0,-8.4363,-8.4915,-8.5777,-8.7018,-8.7812,-8.8674,-8.9674,-8.9191,-8.8708,-8.8191,-8.7674,-8.7018,-8.6294,-8.6294,-8.6432,-8.6742,-8.8053,-8.8605,-8.8674,-8.9674,-9.0364,-9.0812,-9.0812,-9.0985,-9.1088,-9.0088,-9.0019,-9.0451,-9.0089,-9.0362,-9.0945,-9.1467,-9.196,-9.2309,-9.1759,-9.1708,-9.191,-9.206,-9.2407,-9.2797,-9.3357,-9.373,-9.4173,-9.4994,-9.5387,-9.5922,-9.7207,-9.7218,-9.7048,-9.7333,-9.7794,-9.7952,-9.7365,-9.7041,-9.673,-9.6484,-9.5986,-9.5804,-9.6147,-9.5749,-9.54,-9.54,-9.5606,-9.5744,-9.5744,-9.602,-9.6158,-9.6158,-9.6607,-9.6883,-9.6883,-9.7641,-9.8642,-9.9883,-10.0401,-10.109,-10.178,-10.278,-10.3401,-10.3677,-10.4324,-10.447,0.0,0.0,0.0,0.0,-7.0865,-7.1842,-7.3852,0.0,-7.4637,-7.6685,-7.6612,-7.6854,-7.9017,-7.9465,-7.95,-7.95,-8.081,-8.181,-8.181,-8.181,-8.181,-8.181,-8.181,-8.181,-8.181,-8.181,-8.2155,-8.288,-8.2949,-8.3638,-8.5156,-8.5294,-8.6294,-8.8536,-8.9329,-8.9709,-8.9709,-8.9674,-8.8915,-8.7398,-8.7398,-8.6984,-8.6294,-8.6294,-8.6708,-8.7467,-8.826,-8.8605,-8.8743,-9.0192,-9.0812,-9.0812,-9.0847,-9.1295,-9.1778,-9.0295,-9.0709,-9.185,-9.0846,-9.1015,-9.1809,-9.2845,-9.288,-9.2554,-9.3024,-9.2797,-9.2505,-9.3072,-9.3215,-9.331,-9.3822,-9.3995,-9.4209,-9.503,-9.5815,-9.6564,-9.7349,-9.7528,-9.7778,-9.8527,-9.867,-9.8526,-9.7987,-9.7888,-9.7703,-9.7109,-9.6537,-9.6254,-9.6254,-9.5749,-9.5489,-9.5434,-9.6089,-9.6538,-9.6538,-9.7227,-9.7676,-9.7676,-9.771,-9.771,-9.7745,-9.8469,-9.9193,-9.9987,-10.147,-10.2573,-10.3298,-10.3298,-10.3677,-10.447,-10.447,-10.447,-6.7024,0.0,0.0,0.0,0.0,0.0,0.0,0.0,-7.5363,-7.5644,-7.6473,-7.7236,-7.7737,-7.8775,-7.95,-7.95,-8.081,-8.181,-8.181,-8.181,-8.181,-8.181,-8.181,-8.181,-8.181,-8.2293,-8.2914,0.0,-8.4225,-8.4984,-8.5949,-8.7053,-8.795,-8.857,-8.9847,-9.026,-8.9709,-8.9157,-8.8398,-8.7398,-8.688,-8.6501,-8.6294,-8.6294,-8.6708,-8.7467,-8.826,-8.8915,-8.9467,-9.0433,-9.0812,-9.0881,-9.1433,-9.1433,-9.1157,-9.1295,-9.1524,-9.168,-9.1381,-9.1935,-9.2748,-9.2651,-9.3072,-9.3451,-9.2797,-9.2797,-9.3024,-9.3167,-9.3215,-9.331,-9.3822,-9.4423,-9.5066,-9.5815,-9.66,-9.7385,-9.817,-9.8349,-9.842,-9.8634,-9.867,-9.8526,-9.7987,-9.7888,-9.7838,-9.7653,-9.7161,-9.6799,-9.6799,-9.676,-9.6656,-9.6249,-9.6883,-9.7365,-9.7365,-9.7538,-9.7676,-9.7676,-9.8193,-9.8711,-9.9262,-9.9987,-10.1056,-10.2298,-10.278,-10.3367,-10.422,-10.422,-10.4263,-10.447,-10.447,-10.447,0.0,0.0,0.0,0.0,0.0,0.0,0.0,0.0,0.0,0.0,-7.6021,-7.6586,-7.7071,-7.8465,-7.95,-7.95,-8.081,-8.181,-8.181,-8.181,-8.181,-8.181,-8.181,-8.181,-8.181,-8.219,-8.288,-8.3949,-8.4432,-8.519,-8.626,-8.7743,-8.8605,-8.8605,-9.0019,-9.0467,-8.9709,-8.8984,-8.8191,-8.7398,-8.6674,-8.6294,-8.6294,-8.6294,-8.688,-8.795,-8.8398,-8.9191,-9.0192,-9.064,-9.1019,-9.1364,-9.1813,-9.1882,-9.1831,-9.2181,-9.2253,-9.211,-9.2215,-9.2651,-9.3167,-9.312,-9.3357,-9.3591,-9.3215,-9.312,-9.3262,-9.3451,-9.3544,-9.3662,-9.4342,-9.4851,-9.5458,-9.6564,-9.7171,-9.7706,-9.8527,-9.867,-9.867,-9.867,-9.867,-9.8574,-9.8283,-9.8234,-9.8234,-9.8234,-9.7517,-9.7112,-9.7463,-9.7197,-9.6996,-9.7008,-9.7676,-9.8159,-9.8159,-9.8435,-9.8607,-9.8607,-9.9331,-9.9952,-10.0366,-10.1401,-10.2401,-10.3298,-10.3574,-10.3988,-10.447,-10.447,-10.447,-10.447,-10.447,-10.447,0.0,0.0,0.0,0.0,0.0,0.0,0.0,0.0,0.0,0.0,-7.5249,-7.5388,-7.6849,-7.8359,-7.943,-7.9499,-8.0766,-8.1754,-8.1776,-8.181,-8.181,-8.181,-8.181,-8.181,-8.181,-8.1879,-8.2466,-8.3811,-8.4052,-8.4811,-8.6329,-8.7812,-8.8639,-8.8708,-9.0088,-9.0467,-8.9709,-8.8984,-8.8191,-8.7398,-8.6674,-8.6294,-8.6294,-8.6398,-8.7225,-8.8605,-8.8674,-8.9502,-9.0812,-9.0812,-9.1261,-9.1985,-9.1985,-9.2452,-9.3043,-9.286,-9.2806,-9.2888,-9.3127,-9.3215,-9.3357,-9.3822,-9.3684,-9.3357,-9.3858,-9.3637,-9.3404,-9.3904,-9.3995,-9.4173,-9.4994,-9.528,-9.5708,-9.7135,-9.7564,-9.7813,-9.8527,-9.867,-9.867,-9.867,-9.867,-9.867,-9.867,-9.867,-9.867,-9.867,-9.7924,-9.7547,-9.8095,-9.7434,-9.7189,-9.7823,-9.8526,-9.8975,-9.9032,-9.9561,-9.9883,-9.9883,-10.0676,-10.109,-10.1194,-10.2573,-10.3298,-10.3401,-10.4091,-10.447,-10.447,-10.447,-10.447,-10.447,-10.447,-10.447,0.0,0.0,0.0,0.0,0.0,0.0,0.0,-6.9901,-7.1527,0.0,-7.4042,-7.5449,-7.624,-7.765,-7.8909,-7.9538,-8.0628,-8.1471,-8.1754,-8.181,-8.181,-8.181,-8.181,-8.181,-8.181,-8.2328,-8.2811,-8.3087,-8.4259,-8.5639,-8.7122,-8.8088,-8.8881,-8.9467,-9.0329,-9.0467,-8.9709,-8.8984,-8.8191,-8.7398,-8.6674,-8.6294,-8.6329,-8.6915,-8.7708,-8.8639,-8.9226,-8.9985,-9.0812,-9.0812,-9.1261,-9.1985,-9.1985,-9.232,-9.2843,-9.2808,-9.2965,-9.314,-9.3155,-9.3497,-9.3822,-9.3995,-9.3949,-9.3868,-9.3995,-9.3949,-9.3904,-9.3995,-9.3995,-9.4173,-9.4994,-9.5637,-9.6315,-9.7278,-9.7992,-9.8491,-9.867,-9.867,-9.867,-9.867,-9.867,-9.867,-9.867,-9.867,-9.867,-9.867,-9.9096,-9.903,-9.8304,-9.9076,-9.9592,-9.9361,-9.9514,-9.9907,-10.0396,-10.0102,-9.9883,-9.9883,-10.0676,-10.1366,-10.1987,-10.278,-10.3574,-10.4324,-10.4367,-10.447,-10.447,-10.447,-10.447,-10.447,-10.447,-10.447,0.0,0.0,0.0,-6.5804,0.0,0.0,0.0,0.0,-6.9941,-7.1871,-7.3182,-7.4201,-7.4932,-7.6918,-7.8497,-7.8574,-7.9758,-8.0976,-8.1602,-8.1771,-8.181,-8.181,-8.181,-8.181,-8.181,-8.2121,-8.25,-8.288,-8.4328,-8.5673,-8.6811,-8.795,-8.895,-8.9674,-9.0433,-9.064,-9.026,-8.9157,-8.8398,-8.7984,-8.6846,-8.6294,-8.6329,-8.7087,-8.7846,-8.8639,-8.9398,-8.9916,-9.026,-9.026,-9.0866,-9.1854,-9.2235,-9.2322,-9.2319,-9.3226,-9.3404,-9.3215,-9.3497,-9.3776,-9.3995,-9.3995,-9.3995,-9.3995,-9.3995,-9.3995,-9.3995,-9.3995,-9.4281,-9.478,-9.5565,-9.6315,-9.71,-9.7885,-9.8384,-9.867,-9.867,-9.867,-9.867,-9.867,-9.867,-9.867,-9.867,-9.867,-9.8813,-9.9241,-9.9354,-9.9541,-9.9759,-10.0185,-10.062,-10.0735,-10.0474,-10.0491,-10.0774,-10.0194,-9.9883,-9.9883,-10.0987,-10.178,-10.2194,-10.3298,-10.4091,-10.447,-10.447,-10.447,-10.447,-10.447,-10.447,-10.447,-10.447,-10.447,0.0,0.0,0.0,0.0,0.0,-6.6206,0.0,0.0,0.0,0.0,0.0,0.0,0.0,0.0,0.0,0.0,0.0,0.0,0.0,-8.1734,0.0,-8.2163,-8.1955,-8.1871,-8.2071,-8.2209,-8.2462,-8.288,-8.435,-8.5595,-8.6467,-8.7708,-8.8846,-8.9881,-9.0502,-9.0812,-9.0812,-8.9329,-8.8605,-8.857,-8.7053,-8.6363,-8.6536,-8.7122,-8.7915,-8.8846,-8.9295,-8.9571,-8.9709,-8.964,-9.0225,-9.1258,-9.2059,-9.2231,-9.229,-9.3621,-9.3794,-9.3404,-9.3822,-9.3995,-9.3995,-9.3995,-9.3995,-9.3995,-9.3995,-9.4102,-9.4209,-9.4209,-9.478,-9.5601,-9.635,-9.7028,-9.7706,-9.8491,-9.867,-9.867,-9.867,-9.867,-9.867,-9.867,-9.867,-9.867,-9.867,-9.8813,-9.9134,-9.9812,-9.9705,-10.0007,-10.1216,-10.1082,-10.1099,-10.1802,-10.1184,-10.0795,-10.0997,-10.0286,-9.9952,-10.009,-10.1401,-10.2263,-10.2401,-10.3841,-10.447,-10.447,-10.447,-10.447,-10.447,-10.447,-10.447,-10.447,-10.447,-10.447,0.0,0.0,0.0,0.0,-6.5804,0.0,0.0,0.0,-6.7558,-6.9344,0.0,0.0,0.0,0.0,0.0,0.0,0.0,0.0,-8.0399,-8.1821,-8.2957,-8.3455,-8.247,-8.213,-8.3042,-8.3655,-8.3693,-8.2962,-8.4461,-8.5914,-8.7207,-8.7467,-8.8501,-9.0605,-9.0778,-9.0812,-9.0812,-8.9329,-8.8605,-8.857,-8.7053,-8.6639,-8.7294,-8.7363,-8.8191,-8.9536,-8.8984,-8.9088,-8.9692,-8.946,-8.9503,-8.9692,-9.0458,-9.2055,-9.3943,-9.3521,-9.3568,-9.3914,-9.3995,-9.3995,-9.3995,-9.3995,-9.3995,-9.3995,-9.3995,-9.4495,-9.5066,-9.5066,-9.5601,-9.635,-9.7171,-9.7421,-9.7706,-9.8491,-9.867,-9.867,-9.867,-9.867,-9.867,-9.867,-9.867,-9.867,-9.867,-9.9276,-9.9812,-9.9883,-10.1012,-10.1704,-10.1409,-10.1907,-10.228,-10.2386,-10.1423,-10.1018,-10.1583,-10.0605,-10.0194,-10.0883,-10.1677,-10.247,-10.3091,-10.3988,-10.447,-10.447,-10.447,-10.447,-10.447,-10.447,-10.447,-10.447,-10.447,-10.447,0.0,0.0,0.0,0.0,0.0,0.0,-6.5975,0.0,-6.7302,0.0,0.0,0.0,0.0,0.0,0.0,0.0,-7.7841,0.0,0.0,0.0,-8.2185,0.0,0.0,0.0,0.0,-8.4326,-8.3861,-8.2389,-8.4728,-8.6371,-8.6724,-8.7605,-8.8915,-9.0743,-9.0812,-9.0812,-9.0812,-8.9778,-8.9019,-8.8605,-8.795,-8.7329,-8.6811,-8.8122,-8.8846,-8.9053,-8.9191,-8.9311,-8.941,-8.8897,-8.9305,-9.0303,-9.062,-9.1669,-9.3085,-9.3509,-9.3776,-9.3995,-9.3995,-9.3995,-9.3995,-9.3995,-9.3995,-9.4066,-9.453,-9.4923,-9.5387,-9.6279,-9.71,-9.7778,-9.8099,-9.8527,-9.8848,-9.8706,-9.867,-9.867,-9.867,-9.867,-9.867,-9.867,-9.9062,-9.9384,-9.9384,-9.9669,-10.0204,-10.1096,-10.181,-10.2281,-10.2508,-10.2777,-10.299,-10.299,-10.1998,-10.1614,-10.2288,-10.0778,-10.0401,-10.1677,-10.2401,-10.3194,-10.3988,-10.4263,-10.447,-10.447,-10.447,-10.447,-10.447,-10.447,-10.447,-10.447,-10.447,-10.447,-7.0671,0.0,0.0,0.0,0.0,0.0,0.0,0.0,0.0,0.0,0.0,0.0,0.0,0.0,0.0,0.0,0.0,0.0,0.0,0.0,0.0,0.0,0.0,0.0,0.0,0.0,0.0,0.0,0.0,-8.7033,-8.6636,-8.7674,-8.9053,-9.0743,-9.0812,-9.0812,-9.0812,-9.0088,-8.9433,-8.8881,-8.8467,-8.7812,-8.6984,-8.8226,-8.8708,-8.8605,-8.8708,-8.8981,-8.9274,-8.8656,-8.9563,-9.1243,-9.1382,-9.1924,-9.2752,-9.369,-9.3995,-9.3995,-9.3995,-9.3995,-9.4031,-9.4245,-9.4316,-9.4459,-9.528,-9.5672,-9.6065,-9.7171,-9.8063,-9.867,-9.867,-9.9134,-9.9419,-9.8813,-9.867,-9.867,-9.867,-9.867,-9.8741,-9.8991,-9.9491,-10.0026,-10.049,-10.0525,-10.0918,-10.1989,-10.2381,-10.2702,-10.3309,-10.338,-10.338,-10.338,-10.2738,-10.2295,-10.2483,-10.14,-10.1266,-10.2366,-10.3194,-10.3884,-10.4531,-10.447,-10.447,-10.447,-10.447,-10.447,-10.447,-10.447,-10.447,-10.447,-10.447,-10.447,0.0,0.0,0.0,-7.0507,0.0,0.0,0.0,0.0,-6.9693,0.0,0.0,0.0,0.0,0.0,0.0,0.0,0.0,0.0,0.0,0.0,0.0,0.0,0.0,0.0,0.0,0.0,0.0,0.0,0.0,0.0,-8.7361,-8.7432,-8.8467,-9.0743,-9.0812,-9.0812,-9.0812,-9.0088,-8.9674,-8.964,-8.8157,-8.7812,-8.8467,-8.7053,-8.7225,-8.8501,-8.7053,-8.7527,-8.9359,-8.9091,-9.0211,-9.2093,-9.2565,-9.3246,-9.3959,-9.3959,-9.3995,-9.3995,-9.3995,-9.3995,-9.4102,-9.4923,-9.5173,-9.5315,-9.6065,-9.6814,-9.7421,-9.7492,-9.8063,-9.867,-9.867,-9.8706,-9.8706,-9.8706,-9.867,-9.867,-9.867,-9.867,-9.892,-9.9705,-9.9883,-10.0418,-10.1881,-10.2096,-10.2096,-10.2203,-10.2881,-10.338,-10.338,-10.338,-10.338,-10.338,-10.3476,-10.3129,-10.18,-10.2491,-10.3082,-10.3289,-10.3988,-10.4531,-10.447,-10.447,-10.447,-10.447,-10.447,-10.447,-10.447,-10.447,-10.447,-10.447,-10.447,-10.447,0.0,0.0,-7.3611,-7.2759,0.0,0.0,0.0,0.0,0.0,0.0,0.0,0.0,0.0,0.0,0.0,0.0,0.0,0.0,0.0,0.0,0.0,0.0,0.0,0.0,0.0,0.0,0.0,0.0,0.0,0.0,0.0,-8.7639,-8.8777,-9.0019,-9.0571,-9.0812,-9.0812,-9.0571,-8.995,-8.8984,-8.895,-8.826,-8.7087,-8.7605,-8.7812,-8.7777,-8.7612,-8.8091,-8.9079,-8.9319,-9.0358,-9.1843,-9.2558,-9.3281,-9.3995,-9.3995,-9.3995,-9.3995,-9.3995,-9.4352,-9.4851,-9.5101,-9.553,-9.6065,-9.685,-9.7278,-9.7706,-9.8777,-9.9276,-9.9491,-9.9491,-9.9491,-9.9348,-9.8813,-9.867,-9.867,-9.867,-9.867,-9.892,-9.974,-10.0311,-10.0989,-10.1989,-10.3095,-10.3808,-10.3808,-10.4023,-10.4415,-10.4915,-10.4487,-10.4415,-10.4915,-10.4202,-10.38,-10.3908,-10.4032,-10.3778,-10.3298,-10.4057,-10.447,-10.447,-10.447,-10.447,-10.447,-10.447,-10.447,-10.447,-10.447,-10.447,-10.447,-10.447,-10.447,-7.7496,-7.6619,0.0,-7.5633,-7.5156,0.0,-7.2813,0.0,-7.3829,0.0,0.0,0.0,0.0,0.0,0.0,0.0,0.0,0.0,0.0,0.0,0.0,0.0,0.0,0.0,0.0,0.0,0.0,0.0,0.0,0.0,0.0,0.0,-8.895,-8.9674,-9.0433,-9.0812,-9.0812,-9.0812,-9.0192,-8.8984,-8.9191,-8.8398,-8.6742,-8.7467,-8.7603,-8.7319,-8.7666,-8.834,-8.9213,-8.9856,-9.088,-9.2104,-9.2889,-9.3531,-9.3995,-9.3995,-9.4173,-9.4423,-9.4423,-9.4923,-9.5637,-9.5922,-9.635,-9.6886,-9.7671,-9.792,-9.8063,-9.8848,-9.9241,-9.9419,-9.9134,-9.9491,-9.9705,-9.8884,-9.892,-9.9027,-9.8741,-9.892,-9.9348,-10.0097,-10.0918,-10.181,-10.2881,-10.3916,-10.4594,-10.4594,-10.4808,-10.52,-10.5628,-10.5307,-10.52,-10.5628,-10.5212,-10.5004,-10.5489,-10.4797,-10.4193,-10.3806,-10.3884,-10.4194,-10.4531,-10.4194,-10.4194,-10.447,-10.447,-10.447,-10.447,-10.447,-10.447,-10.447,-10.447,-10.447]},{"header":{"parameterUnit":"m.s-1","parameterCategory":1,"la1":30.6,"la2":29.2853,"lo1":-89.7004,"lo2":-87.6739,"dx":0.0162,"dy":0.0183,"nx":112,"ny":82,"refTime":"2022-12-27T06:00:00:Z","depth":0,"parameterNumber":3,"parameterNumberName":"V-component_of_WINDS"},"data":[0.0,0.0,0.0,0.0,0.0,0.0,0.0,0.0,0.0,0.0,0.0,0.0,0.0,0.0,0.0,0.0,0.0,0.0,0.0,0.0,0.0,0.0,0.0,0.0,0.0,0.0,0.0,0.0,0.0,0.0,0.0,0.0,0.0,0.0,0.0,0.0,0.0,0.0,0.0,0.0,0.0,0.0,0.0,0.0,0.0,0.0,0.0,0.0,0.0,0.0,0.0,0.0,0.0,0.0,0.0,0.0,0.0,0.0,0.0,0.0,0.0,0.0,0.0,0.0,0.0,0.0,0.0,0.0,0.0,0.0,0.0,0.0,0.0,0.0,0.0,0.0,0.0,0.0,0.0,0.0,0.0,0.0,0.0,0.0,0.0,0.0,0.0,0.0,0.0,0.0,5.1184,5.1571,5.2106,5.2733,5.3616,5.3113,5.2153,5.0604,0.0,0.0,0.0,0.0,0.0,0.0,0.0,0.0,0.0,0.0,0.0,0.0,0.0,0.0,0.0,0.0,0.0,0.0,0.0,0.0,0.0,0.0,0.0,0.0,0.0,0.0,0.0,0.0,0.0,0.0,0.0,0.0,0.0,0.0,0.0,0.0,0.0,0.0,0.0,0.0,0.0,0.0,0.0,0.0,0.0,0.0,0.0,0.0,0.0,0.0,0.0,0.0,0.0,0.0,0.0,0.0,0.0,0.0,0.0,0.0,0.0,0.0,0.0,0.0,0.0,0.0,0.0,0.0,0.0,0.0,0.0,0.0,0.0,0.0,0.0,0.0,0.0,0.0,0.0,0.0,0.0,0.0,0.0,0.0,0.0,0.0,0.0,0.0,0.0,0.0,0.0,0.0,0.0,0.0,0.0,0.0,0.0,0.0,0.0,0.0,0.0,0.0,0.0,0.0,5.1226,5.3332,5.3675,5.424,5.5622,5.4842,5.3623,5.2178,0.0,0.0,0.0,0.0,0.0,0.0,0.0,0.0,0.0,0.0,0.0,0.0,0.0,0.0,0.0,0.0,0.0,0.0,0.0,0.0,0.0,0.0,0.0,0.0,0.0,0.0,0.0,0.0,0.0,0.0,0.0,0.0,0.0,0.0,0.0,0.0,0.0,0.0,0.0,0.0,0.0,0.0,0.0,0.0,0.0,0.0,0.0,0.0,0.0,0.0,0.0,0.0,0.0,0.0,0.0,0.0,0.0,0.0,0.0,0.0,0.0,0.0,0.0,0.0,0.0,0.0,0.0,0.0,0.0,0.0,0.0,0.0,0.0,0.0,0.0,0.0,0.0,0.0,0.0,0.0,0.0,0.0,0.0,0.0,0.0,0.0,0.0,0.0,0.0,0.0,0.0,0.0,0.0,0.0,0.0,0.0,0.0,0.0,0.0,0.0,0.0,0.0,0.0,5.1029,5.2441,5.4265,5.4713,5.5355,5.6522,5.5641,5.4269,5.2521,5.147,0.0,0.0,0.0,0.0,0.0,0.0,0.0,0.0,0.0,0.0,0.0,0.0,0.0,0.0,0.0,0.0,0.0,0.0,0.0,0.0,0.0,0.0,0.0,0.0,0.0,0.0,0.0,0.0,0.0,0.0,0.0,0.0,0.0,0.0,0.0,0.0,0.0,0.0,0.0,0.0,0.0,0.0,0.0,0.0,0.0,0.0,0.0,0.0,0.0,0.0,0.0,0.0,0.0,0.0,0.0,0.0,0.0,0.0,0.0,0.0,0.0,0.0,0.0,0.0,0.0,0.0,0.0,0.0,0.0,0.0,0.0,0.0,0.0,0.0,0.0,0.0,0.0,0.0,0.0,0.0,0.0,0.0,0.0,0.0,0.0,0.0,0.0,0.0,0.0,0.0,0.0,0.0,0.0,0.0,0.0,0.0,0.0,0.0,0.0,0.0,0.0,0.0,5.2506,5.3911,5.5032,5.553,5.6077,5.6923,5.6143,5.467,5.2615,5.2048,0.0,0.0,0.0,0.0,0.0,0.0,0.0,0.0,0.0,0.0,0.0,0.0,0.0,0.0,0.0,0.0,0.0,0.0,0.0,0.0,0.0,0.0,0.0,0.0,0.0,0.0,0.0,0.0,0.0,0.0,0.0,0.0,0.0,0.0,0.0,0.0,0.0,0.0,0.0,0.0,0.0,0.0,0.0,0.0,0.0,0.0,0.0,0.0,0.0,0.0,0.0,0.0,0.0,0.0,0.0,0.0,0.0,0.0,0.0,0.0,0.0,0.0,0.0,0.0,0.0,0.0,0.0,0.0,0.0,0.0,0.0,0.0,0.0,0.0,0.0,0.0,0.0,0.0,0.0,0.0,0.0,0.0,0.0,0.0,0.0,0.0,0.0,0.0,0.0,0.0,0.0,0.0,0.0,0.0,0.0,0.0,0.0,0.0,0.0,0.0,0.0,0.0,5.3298,5.4938,5.597,5.612,5.6371,5.6972,5.6495,5.5239,5.2986,5.2535,0.0,0.0,0.0,0.0,0.0,0.0,0.0,0.0,0.0,0.0,0.0,0.0,0.0,0.0,0.0,0.0,0.0,0.0,0.0,0.0,0.0,0.0,0.0,0.0,0.0,0.0,0.0,0.0,0.0,0.0,0.0,0.0,0.0,0.0,0.0,0.0,0.0,0.0,0.0,0.0,0.0,0.0,0.0,0.0,0.0,0.0,0.0,0.0,0.0,0.0,0.0,0.0,0.0,0.0,0.0,0.0,0.0,0.0,0.0,0.0,0.0,0.0,0.0,0.0,0.0,0.0,0.0,0.0,0.0,0.0,0.0,0.0,0.0,0.0,0.0,0.0,0.0,0.0,0.0,0.0,0.0,0.0,0.0,0.0,0.0,0.0,0.0,0.0,0.0,0.0,0.0,0.0,0.0,0.0,0.0,0.0,0.0,0.0,0.0,0.0,0.0,0.0,5.3023,5.4712,5.652,5.6721,5.6947,5.7524,5.7047,5.5767,5.3557,0.0,0.0,0.0,0.0,0.0,0.0,0.0,0.0,0.0,0.0,0.0,0.0,0.0,0.0,0.0,0.0,0.0,0.0,0.0,0.0,0.0,0.0,0.0,0.0,0.0,0.0,0.0,0.0,0.0,0.0,0.0,0.0,0.0,0.0,0.0,0.0,0.0,0.0,0.0,0.0,0.0,0.0,0.0,0.0,0.0,0.0,0.0,0.0,0.0,0.0,0.0,0.0,0.0,0.0,0.0,0.0,0.0,0.0,0.0,0.0,0.0,0.0,0.0,0.0,0.0,0.0,0.0,0.0,0.0,0.0,0.0,0.0,0.0,0.0,0.0,0.0,0.0,0.0,0.0,0.0,0.0,0.0,0.0,0.0,0.0,0.0,0.0,0.0,0.0,0.0,0.0,0.0,0.0,0.0,0.0,0.0,0.0,0.0,0.0,0.0,0.0,0.0,5.1532,5.3098,5.4838,5.7072,5.7148,5.7273,5.7851,5.7374,5.6093,5.3833,0.0,0.0,0.0,0.0,0.0,0.0,0.0,0.0,0.0,0.0,0.0,0.0,0.0,0.0,0.0,0.0,0.0,0.0,0.0,0.0,0.0,0.0,0.0,0.0,0.0,0.0,0.0,0.0,0.0,0.0,0.0,0.0,0.0,0.0,0.0,0.0,0.0,0.0,0.0,0.0,0.0,0.0,0.0,0.0,0.0,0.0,0.0,0.0,0.0,0.0,0.0,0.0,0.0,0.0,0.0,0.0,0.0,0.0,0.0,0.0,0.0,0.0,0.0,0.0,0.0,0.0,0.0,0.0,0.0,0.0,0.0,0.0,0.0,0.0,0.0,0.0,0.0,0.0,0.0,0.0,0.0,0.0,0.0,0.0,0.0,0.0,0.0,0.0,0.0,0.0,0.0,0.0,0.0,0.0,0.0,0.0,0.0,0.0,0.0,0.0,0.0,0.0,5.2079,5.3673,5.5415,5.765,5.7399,5.7273,5.7851,5.7374,5.6093,0.0,0.0,0.0,0.0,0.0,0.0,0.0,0.0,0.0,0.0,0.0,0.0,0.0,0.0,0.0,0.0,0.0,0.0,0.0,0.0,0.0,0.0,0.0,0.0,0.0,0.0,0.0,0.0,0.0,0.0,0.0,0.0,0.0,0.0,0.0,0.0,0.0,0.0,0.0,0.0,0.0,0.0,0.0,0.0,0.0,0.0,0.0,0.0,0.0,0.0,0.0,0.0,0.0,0.0,0.0,0.0,0.0,0.0,0.0,0.0,0.0,0.0,0.0,0.0,0.0,0.0,0.0,0.0,0.0,0.0,0.0,0.0,0.0,0.0,0.0,0.0,0.0,0.0,0.0,0.0,0.0,0.0,0.0,0.0,0.0,0.0,0.0,0.0,0.0,0.0,0.0,0.0,0.0,0.0,0.0,0.0,0.0,0.0,0.0,0.0,0.0,0.0,0.0,5.2404,5.4139,5.5691,5.7123,5.7851,5.8127,5.7926,5.775,5.7022,5.5566,0.0,0.0,0.0,0.0,0.0,0.0,0.0,0.0,0.0,0.0,0.0,0.0,0.0,0.0,0.0,0.0,0.0,0.0,0.0,0.0,0.0,0.0,0.0,0.0,0.0,0.0,0.0,0.0,0.0,0.0,0.0,0.0,0.0,0.0,0.0,0.0,0.0,0.0,0.0,0.0,0.0,0.0,0.0,0.0,0.0,0.0,0.0,0.0,0.0,0.0,0.0,0.0,0.0,0.0,0.0,0.0,0.0,0.0,0.0,0.0,0.0,0.0,0.0,0.0,0.0,0.0,0.0,0.0,0.0,0.0,0.0,0.0,0.0,0.0,0.0,0.0,0.0,0.0,0.0,0.0,0.0,0.0,0.0,0.0,0.0,0.0,0.0,0.0,0.0,0.0,0.0,0.0,0.0,0.0,0.0,0.0,0.0,0.0,0.0,0.0,0.0,0.0,5.2635,5.4361,5.5892,5.7248,5.7976,5.8353,5.8227,5.8027,5.7424,5.6269,0.0,0.0,0.0,0.0,0.0,0.0,0.0,0.0,0.0,0.0,0.0,0.0,0.0,0.0,0.0,0.0,0.0,0.0,0.0,0.0,0.0,0.0,0.0,0.0,0.0,0.0,0.0,0.0,0.0,0.0,0.0,0.0,0.0,0.0,0.0,0.0,0.0,0.0,0.0,0.0,0.0,0.0,0.0,0.0,0.0,0.0,0.0,0.0,0.0,0.0,0.0,0.0,0.0,0.0,0.0,0.0,0.0,0.0,0.0,0.0,0.0,0.0,0.0,0.0,0.0,0.0,0.0,0.0,0.0,0.0,0.0,0.0,0.0,0.0,0.0,0.0,0.0,0.0,0.0,0.0,0.0,0.0,0.0,0.0,0.0,0.0,0.0,0.0,0.0,0.0,0.0,0.0,0.0,0.0,0.0,0.0,0.0,0.0,0.0,0.0,0.0,0.0,5.266,5.4461,5.6118,5.765,5.7951,5.8227,5.8679,5.8252,5.7524,5.652,0.0,0.0,0.0,0.0,0.0,0.0,0.0,0.0,0.0,0.0,0.0,0.0,0.0,0.0,0.0,0.0,0.0,0.0,0.0,0.0,0.0,0.0,0.0,0.0,0.0,0.0,0.0,0.0,0.0,0.0,0.0,0.0,0.0,0.0,0.0,0.0,0.0,0.0,0.0,0.0,0.0,0.0,0.0,0.0,0.0,0.0,0.0,0.0,0.0,0.0,0.0,0.0,0.0,0.0,0.0,0.0,0.0,0.0,0.0,0.0,4.545,4.4461,0.0,0.0,0.0,0.0,0.0,0.0,0.0,0.0,0.0,0.0,0.0,0.0,0.0,0.0,0.0,0.0,0.0,0.0,0.0,0.0,0.0,0.0,0.0,0.0,0.0,0.0,0.0,0.0,0.0,0.0,0.0,0.0,0.0,0.0,0.0,0.0,0.0,0.0,0.0,0.0,5.276,5.5139,5.6821,5.7173,5.8378,5.9031,5.8755,5.8604,5.8453,5.8202,5.7248,0.0,0.0,0.0,0.0,0.0,0.0,0.0,0.0,0.0,0.0,0.0,0.0,0.0,0.0,0.0,0.0,0.0,0.0,0.0,0.0,0.0,0.0,0.0,0.0,0.0,0.0,0.0,0.0,0.0,0.0,0.0,0.0,0.0,0.0,0.0,0.0,0.0,0.0,0.0,0.0,0.0,0.0,0.0,0.0,0.0,0.0,0.0,0.0,0.0,0.0,0.0,0.0,0.0,0.0,0.0,0.0,0.0,0.0,0.0,4.7445,4.647,0.0,0.0,0.0,0.0,0.0,0.0,0.0,0.0,0.0,0.0,0.0,0.0,0.0,0.0,0.0,0.0,0.0,0.0,0.0,0.0,0.0,0.0,0.0,0.0,0.0,0.0,0.0,0.0,0.0,0.0,0.0,0.0,0.0,0.0,0.0,0.0,0.0,0.0,0.0,0.0,5.3161,5.5491,5.7349,5.8127,5.8981,5.9483,5.9483,5.9006,5.873,5.873,5.8177,0.0,0.0,0.0,0.0,0.0,0.0,0.0,0.0,0.0,0.0,0.0,0.0,0.0,0.0,0.0,0.0,0.0,0.0,0.0,0.0,0.0,0.0,0.0,0.0,0.0,0.0,0.0,0.0,0.0,0.0,0.0,0.0,0.0,0.0,0.0,0.0,0.0,0.0,0.0,0.0,0.0,0.0,0.0,0.0,0.0,0.0,0.0,0.0,0.0,0.0,0.0,0.0,0.0,4.8209,4.8786,4.9339,4.9264,4.9766,5.0619,4.9138,4.8435,4.8309,4.7883,0.0,0.0,0.0,0.0,0.0,0.0,0.0,0.0,0.0,0.0,0.0,0.0,0.0,0.0,0.0,0.0,0.0,0.0,0.0,0.0,0.0,0.0,5.1444,5.1444,5.2491,5.2894,5.0783,0.0,0.0,0.0,0.0,0.0,0.0,0.0,0.0,0.0,0.0,0.0,5.3909,5.5867,5.7775,5.9332,5.9583,5.9859,6.0412,5.9659,5.9106,5.9006,5.9006,5.8504,0.0,0.0,0.0,0.0,0.0,0.0,0.0,0.0,0.0,0.0,0.0,0.0,0.0,0.0,0.0,0.0,0.0,0.0,0.0,0.0,0.0,0.0,0.0,0.0,0.0,0.0,0.0,0.0,0.0,0.0,0.0,0.0,3.8295,3.8913,0.0,0.0,0.0,0.0,0.0,0.0,0.0,0.0,0.0,0.0,0.0,0.0,0.0,4.7359,4.7682,4.8736,4.9264,4.9289,5.0343,5.1122,5.1649,5.1172,5.1297,5.185,5.1147,0.0,5.0092,5.0017,0.0,0.0,0.0,0.0,0.0,0.0,0.0,0.0,0.0,0.0,0.0,0.0,0.0,0.0,0.0,0.0,0.0,0.0,0.0,0.0,0.0,0.0,5.4135,5.4135,5.4215,5.4315,5.4014,5.2233,5.0851,5.1067,5.0645,5.0257,0.0,0.0,0.0,0.0,0.0,0.0,5.5039,5.6696,5.8227,5.9382,5.9935,6.0437,6.1014,6.0939,6.0638,6.0136,6.0111,5.9608,5.8554,5.8102,0.0,0.0,0.0,0.0,0.0,0.0,0.0,0.0,0.0,0.0,0.0,0.0,0.0,0.0,0.0,0.0,0.0,0.0,0.0,0.0,0.0,0.0,0.0,0.0,0.0,0.0,0.0,0.0,0.0,3.7567,3.8722,3.8723,3.8978,3.9409,0.0,0.0,0.0,0.0,0.0,0.0,0.0,0.0,0.0,4.9274,4.905,4.9356,5.0088,5.0962,5.1473,5.1473,5.2603,5.3256,5.3482,5.3231,5.3256,5.3482,5.3231,5.298,5.2628,5.1071,5.0117,4.9665,0.0,0.0,0.0,0.0,4.9238,4.9414,5.0594,5.1021,5.1046,5.1373,0.0,0.0,0.0,0.0,0.0,0.0,0.0,5.2172,5.2923,5.3889,5.4637,5.4963,5.5491,5.5968,5.5968,5.5149,5.3985,5.2579,5.1647,5.0972,5.0946,5.1624,0.0,0.0,0.0,5.539,5.6219,5.7499,5.8905,6.0286,6.0663,6.104,6.1592,6.1366,6.1065,6.0814,6.0512,6.0111,5.9633,5.9081,5.8001,0.0,0.0,0.0,0.0,0.0,0.0,0.0,0.0,0.0,0.0,0.0,0.0,0.0,0.0,0.0,0.0,0.0,0.0,0.0,0.0,0.0,0.0,0.0,0.0,0.0,0.0,0.0,0.0,3.8528,3.9323,3.9001,4.0079,4.0931,0.0,0.0,0.0,0.0,0.0,0.0,4.9554,4.961,5.0215,5.1524,5.1224,5.156,5.2481,5.3067,5.3356,5.3356,5.4185,5.4561,5.4561,5.4561,5.4561,5.4561,5.4411,5.4336,5.4185,5.2277,5.1398,5.1222,5.0795,5.0569,5.0469,5.0594,5.0645,5.0845,5.2251,5.2729,5.2804,5.3206,5.3406,5.3262,5.2104,0.0,0.0,0.0,0.0,5.3356,5.431,5.4762,5.5164,5.5867,5.6545,5.7072,5.7223,5.7022,5.6269,5.4336,5.3206,5.2503,5.2352,5.313,0.0,5.3758,5.529,5.6671,5.7374,5.8328,5.9508,6.1014,6.1316,6.1617,6.2169,6.1843,6.1492,6.119,6.0788,6.0412,6.0111,5.9583,5.8654,5.7273,0.0,0.0,0.0,0.0,0.0,0.0,0.0,0.0,0.0,0.0,0.0,0.0,0.0,0.0,0.0,0.0,0.0,0.0,0.0,0.0,0.0,0.0,0.0,0.0,0.0,0.0,0.0,0.0,0.0,4.089,4.1429,0.0,0.0,0.0,0.0,4.6068,4.8172,4.9913,5.1027,5.1471,5.2426,5.3766,5.392,5.4132,5.4456,5.4532,5.4486,5.4486,5.4536,5.4561,5.4561,5.4561,5.4561,5.4607,5.3984,5.3758,5.3783,5.4185,5.4034,5.3532,5.3507,5.3181,5.2829,5.3306,5.3482,5.3582,5.4235,5.4436,5.4436,5.4557,5.3808,5.2854,5.2277,5.1749,0.0,0.0,5.3658,5.416,5.6319,5.6495,5.642,5.7499,5.7399,5.7173,5.7725,5.7022,5.6369,5.6746,5.6369,5.5792,5.5265,0.0,5.6043,5.6043,5.6595,5.7399,5.8504,5.9106,5.991,6.1065,6.1642,6.2195,6.2747,6.2772,6.2295,6.124,6.1165,6.0663,5.9583,5.9031,5.8478,5.7876,5.6771,0.0,0.0,0.0,0.0,0.0,0.0,0.0,0.0,0.0,0.0,0.0,0.0,0.0,0.0,0.0,0.0,0.0,0.0,0.0,0.0,0.0,0.0,0.0,0.0,0.0,0.0,0.0,0.0,4.1503,4.2228,0.0,4.3188,4.4476,4.6445,4.9147,5.0806,5.2572,5.469,5.4479,5.462,5.5073,5.4296,5.4124,5.4632,5.4561,5.4737,5.5089,5.544,5.544,5.5114,5.5465,5.544,5.5089,5.4888,5.4787,5.4762,5.4637,5.4034,5.3206,5.3206,5.308,5.2955,5.313,5.3206,5.3281,5.3833,5.4009,5.4059,5.4436,5.431,5.3959,5.3758,5.3557,5.3507,5.4084,5.426,5.4436,5.5239,5.5817,5.6319,5.6721,5.775,5.8679,5.888,5.9182,5.9458,5.9659,5.7524,5.5742,5.5892,5.6369,5.6872,5.7248,5.7775,5.8529,5.9608,5.991,6.0462,6.1592,6.1893,6.222,6.2772,6.2822,6.2672,6.227,6.1567,6.1014,6.0588,5.9709,5.8805,5.7926,5.7851,5.7097,0.0,0.0,0.0,0.0,0.0,0.0,0.0,0.0,0.0,0.0,0.0,0.0,0.0,0.0,0.0,0.0,0.0,0.0,0.0,0.0,0.0,0.0,0.0,0.0,0.0,4.1299,4.2348,4.2005,4.3279,4.4129,4.3984,4.5753,4.8052,5.0862,5.231,5.396,5.5977,5.5684,5.5337,5.5223,5.4637,5.4461,5.4838,5.4838,5.5114,5.5666,5.5842,5.5842,5.5666,5.6043,5.6018,5.5641,5.5465,5.539,5.534,5.4787,5.426,5.3758,5.3758,5.3884,5.4059,5.4235,5.431,5.4336,5.4486,5.4536,5.4587,5.4787,5.4838,5.4813,5.4612,5.4561,5.4612,5.4787,5.4988,5.5214,5.5591,5.6093,5.6595,5.6972,5.7876,5.8704,5.8905,5.9533,6.0136,6.0311,5.873,5.7449,5.7826,5.8202,5.8554,5.8956,5.9307,5.9809,6.0512,6.0763,6.1165,6.1918,6.2169,6.2421,6.2797,6.2822,6.2747,6.2571,6.1868,6.1391,6.119,6.0286,5.9433,5.873,5.8704,5.7976,5.6495,0.0,0.0,0.0,0.0,0.0,0.0,0.0,0.0,0.0,0.0,0.0,0.0,0.0,0.0,0.0,0.0,0.0,0.0,0.0,0.0,0.0,0.0,0.0,4.0729,4.1852,4.2726,4.2548,4.4626,4.5675,4.4757,4.7625,4.9943,5.0696,5.2413,5.3797,5.4773,5.4799,5.4687,5.4391,5.5076,5.5415,5.544,5.5415,5.5691,5.6194,5.5666,5.5691,5.6194,5.6194,5.6194,5.6168,5.5616,5.539,5.534,5.4787,5.4888,5.5365,5.539,5.5717,5.6244,5.6796,5.6972,5.6872,5.6344,5.6168,5.6068,5.5541,5.5365,5.5265,5.4737,5.4587,5.4712,5.5239,5.5767,5.6445,5.7549,5.7424,5.7273,5.8378,5.7851,5.7248,5.7801,5.7951,5.8102,5.8629,6.006,6.1165,6.1165,6.1165,6.1165,6.119,6.1165,0.0,6.1215,6.1667,6.2019,6.2019,6.2496,6.2822,6.2822,6.2822,6.2596,6.2069,6.2019,6.1768,6.124,6.0663,6.0337,6.0286,5.9282,5.8202,5.7123,0.0,0.0,0.0,0.0,0.0,0.0,0.0,0.0,0.0,0.0,0.0,0.0,0.0,0.0,0.0,0.0,0.0,0.0,0.0,0.0,0.0,4.1049,4.229,4.2844,4.4155,4.523,4.5448,4.6461,4.6757,4.575,4.6517,4.8015,5.0167,5.089,5.2443,5.5267,5.5631,5.5827,5.6091,5.606,5.6168,5.657,5.6194,5.6068,5.6219,5.6068,5.5867,5.5616,5.6018,5.5993,5.5591,5.544,5.539,5.534,5.4787,5.4662,5.4838,5.5239,5.5491,5.5641,5.5792,5.5591,5.5214,5.5064,5.5013,5.4988,5.4838,5.4787,5.4762,5.4612,5.4838,5.5189,5.534,5.5491,5.5691,5.5993,5.6269,5.652,5.6821,5.76,5.8303,5.8453,5.8805,5.9106,5.9257,5.9985,6.0563,6.0563,6.0563,6.0688,6.1115,6.0839,6.0864,6.1667,6.1918,6.2169,6.2546,6.2747,6.2822,6.2822,6.2822,6.2772,6.2621,6.222,6.1943,6.1793,6.124,6.0563,5.9734,5.9433,5.9131,0.0,0.0,0.0,0.0,0.0,0.0,0.0,0.0,0.0,0.0,0.0,0.0,0.0,0.0,0.0,0.0,0.0,0.0,0.0,0.0,0.0,0.0,4.2202,4.3504,4.4414,4.5264,4.5955,4.6452,4.6949,4.7044,4.6532,4.6412,4.7291,4.9416,5.0246,5.1753,5.4455,5.5476,5.6146,5.6558,5.6518,5.6595,5.6696,5.6369,5.6219,5.6219,5.5968,5.5817,5.5742,5.6068,5.6043,5.5742,5.5742,5.5742,5.5717,5.539,5.539,5.5591,0.0,0.0,0.0,0.0,5.5867,5.5566,5.534,5.5265,5.5265,5.5265,5.5415,5.5591,5.5591,5.5993,5.6445,5.6445,5.6595,5.6796,5.6796,5.7022,5.7198,5.6972,5.7474,5.8027,5.8027,5.8077,5.8328,5.9031,5.9433,0.0,6.0236,6.0512,6.0864,6.1441,6.124,6.1341,6.2245,6.2345,6.2471,6.2797,6.2822,6.2822,6.2822,6.2822,0.0,0.0,0.0,6.2345,6.2345,6.2044,0.0,0.0,0.0,6.0311,5.9834,6.0412,0.0,0.0,5.8252,5.8453,0.0,0.0,0.0,0.0,0.0,0.0,0.0,0.0,0.0,0.0,0.0,0.0,0.0,0.0,0.0,0.0,4.3669,4.4921,4.5452,4.5502,4.5672,4.6252,4.672,4.6939,4.6939,4.6854,4.7361,4.8587,4.9851,5.1201,5.271,5.4569,0.0,0.0,0.0,5.6897,5.642,5.6344,5.6269,5.6194,5.5717,5.5742,5.6219,5.6269,5.6294,5.6319,5.6369,5.6369,5.6294,5.6294,5.6545,5.6846,5.5942,5.5867,5.6369,5.6796,5.6947,5.6872,5.6394,0.0,0.0,5.6219,5.6545,5.6947,5.6947,5.7399,5.7901,5.7901,5.8227,5.8653,5.873,5.8603,5.8427,5.8001,5.7449,5.6973,5.7048,5.6622,5.6771,5.8252,5.8653,5.9106,6.006,6.0763,6.1366,6.1918,6.1994,6.2195,6.2747,6.2822,6.2822,6.2822,6.2822,0.0,6.2822,6.2822,6.2822,6.2822,6.2822,6.2822,6.2822,6.2772,6.227,6.1291,6.1768,6.1517,6.0512,6.109,6.1126,6.0676,5.9976,5.9673,0.0,0.0,0.0,0.0,0.0,0.0,0.0,0.0,0.0,0.0,0.0,0.0,0.0,0.0,0.0,4.2592,4.3595,4.4571,4.5433,4.5639,4.5911,4.6705,4.7188,4.7326,4.7027,4.6611,4.6911,4.8043,4.8025,4.8875,5.0717,5.2968,5.4565,5.5484,5.6973,5.7675,5.7575,5.7123,5.6646,5.6219,5.6093,0.0,5.6219,5.6671,5.6872,5.6897,5.7374,5.7323,5.6872,5.6872,5.6671,5.6394,5.662,5.6771,5.6846,5.6495,5.6369,5.6344,5.6244,5.6219,5.6219,5.6219,5.6294,5.6369,5.6369,5.7097,0.0,5.7901,5.8075,5.827,5.8653,5.8074,5.7548,5.7851,5.7449,5.6999,5.7149,5.6975,5.6949,5.7423,5.85,5.9408,5.9608,6.0512,6.1366,6.1918,6.1994,6.2195,6.2747,6.2822,6.2822,6.2822,6.2822,6.2822,6.2822,6.2822,6.2822,6.2822,6.2822,6.2822,6.2822,6.2395,6.2069,6.1843,6.1943,6.1893,6.1667,6.2245,6.2277,6.1819,6.0781,6.0422,0.0,0.0,0.0,0.0,0.0,0.0,0.0,0.0,0.0,0.0,0.0,3.9922,4.0642,0.0,4.1838,4.2669,4.3652,4.4586,4.5524,4.5886,4.6176,4.6556,4.6846,4.6912,4.667,4.6274,4.6221,4.6832,4.7575,4.8608,4.9875,5.3092,5.5289,5.6107,5.7564,5.8177,5.7901,5.7323,5.6746,5.6219,5.6219,5.6369,5.662,5.6922,5.7198,5.7474,5.7775,5.7575,5.7022,5.6746,5.647,5.6244,5.652,5.662,5.6595,5.6319,5.6219,5.6219,5.6219,5.6219,5.6219,5.6219,5.6394,5.6547,5.6325,5.7274,5.8227,5.7847,5.8067,5.8567,5.8721,5.829,5.7787,5.7998,5.7622,5.7246,5.7289,5.7217,5.7419,5.8031,5.878,5.9384,5.9553,6.0537,6.1426,6.1969,6.1994,6.2195,6.2747,6.2822,6.2822,6.2822,6.2822,6.2822,6.2822,6.2822,6.2822,6.2822,6.2822,6.2822,6.2822,6.2571,6.2295,6.2019,6.227,6.2295,6.1994,6.2327,6.2249,6.1837,6.1023,6.0678,0.0,0.0,0.0,0.0,0.0,0.0,0.0,3.8504,3.8717,4.0754,4.0678,4.0425,4.1186,4.1331,4.1814,4.2924,4.3898,4.4733,4.5561,4.6057,4.6266,4.6266,4.6266,4.6266,4.6266,4.6016,4.585,4.5933,4.7507,4.8756,4.9319,5.3004,5.5375,5.5895,5.7047,5.746,5.7015,5.6774,5.6427,5.6004,5.6273,5.6595,5.7022,5.7022,5.7298,5.7725,5.7725,5.7474,5.6997,5.6445,5.6219,5.6219,5.6219,5.6219,5.6219,5.6219,5.6219,5.6219,5.6219,5.6219,5.6219,5.6219,5.6446,5.6674,5.6477,5.7299,5.8197,5.7657,5.8077,5.8653,5.8731,5.8521,5.8187,5.8133,5.7781,5.7446,5.7565,5.7618,5.7864,5.8889,5.9238,5.9459,5.9877,6.0718,6.1446,6.1857,6.2013,6.232,6.2772,6.2822,6.2822,6.2822,6.2822,6.2822,6.2822,6.2822,6.2822,6.2822,6.2822,6.2822,6.2822,6.2822,6.2621,6.2169,6.2596,6.254,6.2008,6.2132,6.1919,6.134,6.1008,6.0757,3.3251,3.4405,3.5648,3.6359,3.7431,3.8978,0.0,4.1315,4.1158,4.2653,4.2873,4.287,4.2978,4.3128,4.3392,4.3958,4.453,4.5084,4.5602,4.6057,4.6266,4.6266,4.6266,4.6266,4.6266,4.6225,4.6451,4.6844,4.709,4.7568,4.8505,5.0483,5.1817,5.2243,5.3472,5.4058,5.4012,5.4962,5.5472,5.54,5.6401,5.6972,5.7022,5.7022,5.7072,5.7123,5.7123,5.7097,5.6997,5.6445,5.6219,5.6219,5.6219,5.6219,5.6219,5.6219,5.6219,5.6219,5.6219,5.6219,5.6219,5.6219,5.6024,5.5806,5.6303,5.6573,5.6912,5.7327,5.7531,5.7789,5.8286,5.805,5.7789,5.8134,5.7819,5.7565,5.8124,5.8191,5.8325,5.9025,5.9878,6.0547,6.0621,6.1064,6.1425,6.1396,6.2177,6.2772,6.2822,6.2822,6.2822,6.2822,6.2822,6.2822,6.2822,6.2822,6.2822,6.2822,6.2822,6.2822,6.2822,6.2822,6.2797,6.2747,6.2797,6.2552,6.2174,6.2224,6.1754,6.0924,6.0841,6.059,3.3989,3.5703,3.6851,3.7756,3.8655,3.967,4.0993,4.1115,4.1388,4.2894,4.2878,4.2576,4.2648,4.2742,4.2981,4.3364,4.4064,4.4753,4.5229,4.5892,4.6244,4.5995,4.6182,4.6266,4.6266,4.6514,4.6823,4.703,4.7527,4.7982,4.8355,5.0329,5.1332,5.1349,5.2475,5.3107,5.3107,5.3031,5.3109,5.3389,5.4554,5.5234,5.5652,5.6576,5.7223,5.7524,5.7173,5.7022,5.6997,5.6445,5.6219,5.6219,5.6219,5.6219,5.6219,5.6219,5.6072,5.5926,5.6146,5.6072,5.5902,5.6227,5.6178,5.6054,5.6147,5.6611,5.7001,5.678,5.7163,5.7728,5.8204,5.8038,5.7871,5.8667,5.8489,5.82,5.8499,5.8726,5.9001,5.9297,5.9888,6.0442,6.0442,6.0778,6.1101,6.1022,6.1853,6.2413,6.2413,6.2659,6.2822,6.2822,6.2822,6.2822,6.2822,6.2822,6.2822,6.2822,6.2822,6.2822,6.2822,6.2577,6.2413,6.2413,6.2167,6.1919,6.1812,6.1506,6.1174,6.0817,6.059,6.0339,3.4079,3.5851,3.7014,3.8329,3.9318,4.0163,4.0764,4.0968,4.1433,4.2671,4.2386,4.1955,4.2027,4.2147,4.2393,4.2849,4.3698,4.4463,4.4783,4.5584,4.5956,4.5386,4.5939,4.6289,4.6127,4.668,4.7134,4.7382,4.8003,4.8438,4.8562,5.0103,5.0817,5.0321,5.1123,5.1505,5.1371,5.1131,5.1187,5.1549,5.2734,5.3704,5.462,5.6104,5.7047,5.7399,5.6997,5.6796,5.6771,5.6369,5.6219,5.6219,5.6072,5.6072,5.5999,5.5926,5.5779,5.5632,5.5779,5.5805,5.5683,5.6079,5.6251,5.6247,5.6253,5.6614,5.6955,5.6553,5.689,5.7539,5.8072,5.8056,5.8015,5.8871,5.8732,5.8416,5.856,5.8776,5.8993,5.9137,5.9474,5.9786,5.9931,6.0206,6.0504,6.065,6.134,6.1837,6.2002,6.2249,6.2495,6.2577,6.2659,6.2659,6.2822,6.2822,6.2822,6.2822,6.2659,6.2659,6.2659,6.2249,6.2027,6.2027,6.1696,6.1423,6.1316,6.1008,6.0757,6.0674,6.0339,6.0171,3.2933,3.3985,3.531,3.6981,3.9055,4.0827,4.1741,4.1954,4.1975,4.2018,4.1778,4.1494,4.1494,4.1939,4.2393,4.2849,4.3698,4.4308,4.4389,4.5178,4.5365,4.4523,4.5555,4.6186,4.5772,4.6537,4.7403,4.8272,4.8355,4.8562,4.9017,4.9144,4.8937,4.8481,4.8524,4.8295,4.7859,4.9485,5.0358,5.0358,5.1549,5.2961,5.462,5.5708,5.6244,5.6269,5.6244,5.6244,5.6244,5.6219,5.6219,5.6146,5.5779,5.5632,5.5558,5.5189,5.5263,5.5558,5.5189,5.5385,5.5827,5.5827,5.5893,5.6123,5.6658,5.6516,5.6347,5.6852,5.7021,5.7141,5.767,5.7814,5.7935,5.8464,5.8199,5.7983,5.8488,5.8199,5.8007,5.8512,5.8632,5.88,5.9329,5.9402,5.9594,6.0099,6.059,6.1008,6.1482,6.1506,6.1696,6.2167,6.2249,6.2413,6.2741,6.2822,6.2822,6.2822,6.2413,6.2249,6.2249,6.1779,6.1531,6.1531,6.1531,6.1257,6.0841,6.0841,6.059,6.0255,6.0171,6.0171,3.39,3.47,3.5798,3.8409,3.9867,4.0715,4.1401,4.1594,4.1686,4.1686,4.0938,4.0409,4.0627,4.111,4.1621,4.2058,4.3106,4.3817,4.3511,4.4237,4.4582,4.4039,4.5148,4.5875,4.5689,4.6735,4.7476,4.7423,4.8325,4.8808,4.8609,4.8887,4.8707,4.7941,4.792,4.7713,4.7258,4.7499,4.7803,4.812,4.9301,5.0769,5.247,5.3897,5.4497,5.4596,5.5754,5.6219,5.6219,5.6219,5.6072,5.5779,5.5632,5.5411,5.5238,5.5135,5.5013,5.4843,5.5359,5.5699,5.5985,5.635,5.6517,5.6605,5.6825,5.6835,5.6804,5.6973,5.7285,5.767,5.8199,5.8584,5.8993,5.9522,5.9233,5.8897,5.9089,5.8993,5.8897,5.9089,5.9402,5.969,5.9883,5.9907,5.9979,6.0147,6.0507,6.1008,6.1423,6.1531,6.1531,6.1696,6.2002,6.2167,6.1977,6.2249,6.2249,6.1944,6.1779,6.1779,6.1779,6.1257,6.1008,6.1008,6.0757,6.059,6.0423,6.0423,6.0339,6.0171,6.0171,6.0171,3.375,3.4236,3.4945,3.8449,3.9509,3.9888,4.0498,4.0885,4.1009,4.1009,4.0286,3.9738,4.0024,4.0503,4.0833,4.1036,4.2135,4.2863,4.2637,4.3357,4.3819,4.352,4.4658,4.5377,4.5274,4.643,4.7208,4.7273,4.7964,4.836,4.8437,4.8544,4.822,4.7463,4.7443,4.7237,4.6721,4.6411,4.6411,4.6782,4.812,4.9371,5.0443,5.267,5.3726,5.3801,5.5435,5.6246,5.6274,5.6274,5.6053,5.5658,5.5904,5.5655,5.5086,5.5221,5.5045,5.4854,5.5251,5.5467,5.5602,5.6134,5.6449,5.6637,5.6932,5.7021,5.7069,5.7237,5.755,5.7983,5.8704,5.9137,5.9474,5.981,5.9498,5.9065,5.8872,5.8824,5.8824,5.8824,5.9257,5.9666,5.9859,6.0051,6.0171,6.0171,6.0423,6.0674,6.1032,6.1032,6.1091,6.1257,6.1506,6.1672,6.1482,6.1754,6.1837,6.1506,6.134,6.1257,6.1257,6.0841,6.059,6.059,6.0339,6.0171,6.0171,6.0171,6.0171,6.0171,6.0171,6.0171,3.2487,3.2665,3.2899,3.709,3.8125,3.8352,3.9261,3.9847,4.0158,4.0108,3.9827,3.9596,3.9545,3.9991,4.0164,3.9875,4.0881,4.1755,4.185,4.2501,4.308,4.3131,4.4179,4.4793,4.4355,4.5438,4.6615,4.7532,4.7233,4.7349,4.8184,4.788,4.741,4.6961,4.7004,4.6741,4.6266,4.6266,4.6266,4.6347,4.789,4.8662,4.8741,5.2037,5.3576,5.3651,5.546,5.6251,5.6377,5.6402,5.6177,5.5824,5.6493,5.6095,5.5245,5.5395,5.5409,5.5337,5.4856,5.4688,5.4784,5.5313,5.5842,5.6371,5.69,5.7069,5.7165,5.7694,5.7862,5.8127,5.9137,5.9378,5.9402,5.9426,5.8993,5.8464,5.7983,5.7886,5.7886,5.7886,5.8319,5.8824,5.9329,5.9834,6.0171,6.0171,6.0171,6.0171,6.0171,6.0171,6.0339,6.0757,6.0757,6.0983,6.1399,6.1423,6.1423,6.1399,6.0983,6.0757,6.0757,6.0423,6.0171,6.0171,6.0171,6.0171,6.0171,6.0171,6.0171,6.0171,6.0171,6.0171,3.0526,3.0821,3.1801,3.5655,3.6654,3.7164,3.9055,3.962,3.9633,3.9355,3.8535,3.7838,3.7896,3.8524,3.9126,3.9378,4.0732,4.1872,4.223,4.2426,4.2701,4.3089,4.393,4.4341,4.3906,4.4478,4.5129,4.5697,4.653,4.6811,4.6441,4.6611,4.6707,4.6576,4.6555,4.6455,4.6266,4.6266,4.6266,4.6347,4.673,4.6972,4.7052,5.0365,5.1754,5.1647,5.4961,5.6228,5.5952,5.6346,5.629,5.5957,5.6148,5.5844,5.5419,5.5818,5.5746,5.5433,5.5722,5.5818,5.5914,5.6444,5.6708,5.6925,5.7454,5.7622,5.7718,5.8247,5.868,5.9041,5.9305,5.9378,5.9498,5.9883,5.9257,5.8656,5.8921,5.8993,5.8993,5.8993,5.9402,5.981,5.9955,6.0075,6.0171,6.0171,6.0171,6.0171,6.0171,6.0171,6.0255,6.0339,6.059,6.0757,6.059,6.0841,6.0841,6.059,6.0423,6.0339,6.0339,6.0255,6.0171,6.0171,6.0171,6.0171,6.0171,6.0171,6.0171,6.0171,6.0171,6.0171,2.9391,2.9811,3.0691,3.3752,3.4499,3.5066,3.7191,3.7757,3.7828,3.8174,3.7421,3.6699,3.6743,3.7637,3.8379,3.8448,3.9983,4.1405,4.2031,4.2148,4.2441,4.3262,4.3789,4.3984,4.373,4.4121,4.44,4.4498,4.5381,4.5822,4.5678,4.5763,4.5837,4.5813,4.5813,4.5838,4.6044,4.6023,4.6023,4.6023,4.5861,4.5698,4.5861,4.8403,5.0009,5.0882,5.2921,5.4732,5.6183,5.5679,5.5722,5.6129,5.6613,5.6336,5.5842,5.6371,5.6227,5.5842,5.6395,5.6588,5.6636,5.6925,5.7021,5.7165,5.7935,5.8151,5.8271,5.88,5.9161,5.945,5.9666,5.9738,5.9738,5.981,5.9378,5.8969,5.9017,5.9209,5.945,5.969,5.9979,6.0171,6.0171,6.0171,6.0171,6.0171,6.0171,6.0171,6.0171,6.0171,6.0171,6.0171,6.0423,6.0423,6.0255,6.0423,6.0423,6.0171,6.0171,6.0171,6.0171,6.0171,6.0171,6.0171,6.0171,6.0171,6.0171,6.0171,6.0171,6.0171,6.0171,6.0171,2.8675,2.9087,2.9587,3.1599,3.2168,3.2741,3.4812,3.5268,3.5673,3.675,3.6405,3.5901,3.5901,3.6828,3.7648,3.7398,3.9077,4.0685,4.166,4.1855,4.2305,4.3476,4.3672,4.3711,4.3711,4.4062,4.4141,4.373,4.4141,4.4699,4.5435,4.5013,4.4856,4.4881,4.4965,4.52,4.5637,4.5637,4.5637,4.5637,4.5209,4.4964,4.5046,4.6811,4.8626,5.0396,5.0644,5.2717,5.5943,5.47,5.4827,5.6104,5.7253,5.7141,5.6395,5.6852,5.6732,5.6419,5.6949,5.7117,5.7141,5.7213,5.7237,5.7405,5.8392,5.8704,5.88,5.9353,5.9498,5.9594,6.0051,6.0123,5.9979,5.9594,5.9426,5.9281,5.8897,5.9161,5.9618,6.0075,6.0171,6.0171,6.0171,6.0171,6.0171,6.0171,6.0171,6.0171,6.0171,6.0171,6.0171,6.0171,6.0171,6.0171,6.0171,6.0171,6.0171,6.0171,6.0171,6.0171,6.0171,6.0171,6.0171,6.0171,6.0171,6.0171,6.0171,6.0171,6.0171,6.0171,6.0243,6.0267,2.782,2.7967,2.8386,2.9936,3.0532,3.1426,3.389,3.4471,3.4734,3.5635,3.5429,3.5016,3.4759,3.5402,3.6353,3.734,3.8646,4.0028,4.1542,4.209,4.2539,4.3125,4.3496,4.3711,4.3711,4.3769,4.3789,4.3711,4.4141,4.4258,4.4028,4.3926,4.4072,4.4489,4.4838,4.5044,4.5127,4.5127,4.5127,4.5127,4.5046,4.4964,4.5066,4.7064,4.8064,4.8315,5.043,5.1582,5.2049,5.3619,5.4453,5.4801,5.6486,5.7045,5.69,5.6997,5.6973,5.6949,5.7478,5.767,5.7742,5.8175,5.8319,5.844,5.9065,5.9257,5.9353,5.9883,6.0027,6.0051,6.0147,5.9859,5.9618,5.9955,5.969,5.9474,5.9834,5.9979,6.0075,6.0147,6.0171,6.0171,6.0171,6.0171,6.0171,6.0171,6.0171,6.0171,6.0171,6.0171,6.0171,6.0171,6.0171,6.0171,6.0171,6.0171,6.0171,6.0171,6.0171,6.0171,6.0171,6.0171,6.0171,6.0171,6.0171,6.0171,6.0171,6.0171,6.0171,6.0171,6.0628,6.082,2.7629,2.7521,2.7552,2.8309,2.8615,2.9322,3.1683,3.2147,3.2492,3.4289,3.4327,3.4059,3.4057,3.5157,3.6193,3.6805,3.846,3.9952,4.1035,4.1853,4.2578,4.3027,4.3457,4.3711,4.3711,4.3711,4.3711,4.3711,4.3906,4.4043,4.4062,4.4062,4.4146,4.4395,4.4591,4.4718,4.4718,4.4718,4.4718,4.4698,4.4452,4.4426,4.4747,4.5734,4.6804,4.7942,4.8379,4.9511,5.1437,5.2486,5.3505,5.4487,5.6254,5.7021,5.7021,5.7021,5.7189,5.7502,5.8031,5.8392,5.8704,5.9257,5.9233,5.9113,5.9642,5.9786,5.9859,6.0099,6.0171,6.0171,6.0171,5.9979,5.9859,6.0123,5.9979,5.9859,6.0123,6.0171,6.0171,6.0171,6.0171,6.0171,6.0171,6.0171,6.0171,6.0171,6.0171,6.0171,6.0171,6.0171,6.0171,6.0171,6.0171,6.0171,6.0171,6.0171,6.0171,6.0171,6.0171,6.0171,6.0171,6.0171,6.0171,6.0171,6.0171,6.0171,6.0171,6.046,6.058,6.0604,6.1133,6.1398,2.7541,2.7364,2.7068,2.7084,2.7008,2.754,2.9745,2.9985,3.0498,3.3028,3.336,3.334,3.3743,3.4963,3.5975,3.6382,3.8027,3.9548,4.0317,4.1442,4.2361,4.2891,4.3379,4.3711,4.3711,4.3711,4.3711,4.3711,4.3789,4.4004,4.4375,4.4492,4.4492,4.4394,4.4375,4.4387,4.4288,4.4288,4.4288,4.4288,4.3876,4.3945,4.4394,4.4492,4.5683,4.7657,4.6346,4.7576,5.059,5.0927,5.1932,5.3423,5.5587,5.6438,5.6438,5.6981,5.7454,5.7911,5.8536,5.9041,5.9474,6.0003,5.9883,5.9642,6.0051,6.0171,6.0171,6.0171,6.0171,6.0171,6.0171,6.0171,6.0171,6.0171,6.0171,6.0171,6.0171,6.0171,6.0171,6.0171,6.0171,6.0171,6.0171,6.0171,6.0171,6.0171,6.0171,6.0171,6.0171,6.0171,6.0171,6.0171,6.0171,6.0171,6.0171,6.0171,6.0171,6.0171,6.0171,6.0171,6.0171,6.0171,6.0171,6.0171,6.0291,6.0339,6.0339,6.0869,6.1133,6.1157,6.171,6.1975,2.7327,2.7192,2.7007,2.6758,2.6619,2.7198,2.94,2.9636,3.002,3.224,3.2955,3.334,3.3743,3.4202,3.5095,3.6588,3.7053,3.7859,3.9702,4.0761,4.1595,4.2361,4.3203,4.3711,4.3711,4.3711,4.3711,4.3711,4.4101,4.4355,4.4394,4.4766,4.4785,4.4414,4.4439,4.4224,4.3793,4.3793,4.3793,4.3793,4.3711,4.3945,4.4414,4.4785,4.53,4.5942,4.6161,4.6425,4.688,4.8568,4.9318,4.9828,5.3236,5.4568,5.48,5.6962,5.7766,5.7959,5.8969,5.9353,5.9474,6.0003,6.0147,6.0123,6.0171,6.0171,6.0171,6.0171,6.0171,6.0171,6.0171,6.0171,6.0171,6.0171,6.0171,6.0171,6.0171,6.0171,6.0171,6.0171,6.0171,6.0171,6.0171,6.0171,6.0171,6.0171,6.0171,6.0171,6.0171,6.0171,6.0171,6.0171,6.0171,6.0171,6.0171,6.0171,6.0171,6.0171,6.0171,6.0171,6.0171,6.0171,6.0171,6.0171,6.0652,6.0893,6.0893,6.1446,6.1734,6.1734,6.2263,6.2528,2.707,2.6809,2.6487,2.6364,2.6625,2.7146,2.8024,2.864,2.9479,3.1256,3.1949,3.2417,3.2995,3.3977,3.4865,0.0,0.0,0.0,3.8311,3.9622,4.0696,4.1595,4.2488,4.3191,4.3672,4.3711,4.3711,4.3711,4.4141,4.4394,4.4394,4.4805,4.5078,4.5156,4.4902,4.457,4.4121,4.4121,4.3984,4.3711,4.3984,4.4355,4.4785,4.5215,4.5644,4.6055,4.623,4.6308,4.6464,4.8245,4.8997,4.9253,5.1743,5.3423,5.4475,5.5742,5.7064,5.8343,5.8752,5.9113,5.9378,5.9257,5.945,5.9762,6.0075,5.9955,5.9762,6.0075,6.0171,6.0171,6.0171,6.0171,6.0087,5.9473,5.9835,5.9919,5.8794,5.8964,5.9388,5.9388,5.8879,5.8879,6.0003,5.9726,5.9558,6.0087,6.0171,6.0171,6.0171,6.0171,6.0171,6.0171,6.0171,6.0171,6.0171,6.0171,6.0171,6.0171,6.0171,6.0171,6.0171,6.0171,6.0315,6.0652,6.0845,6.1133,6.147,6.2312,6.272,6.2744,6.3586,6.3995,2.6549,2.6328,2.5948,2.5948,2.6421,2.7045,2.7292,2.8113,2.9104,3.0237,3.1092,3.1744,3.2193,3.3767,3.4939,0.0,0.0,3.7259,3.7576,3.878,3.9864,4.0677,4.1721,4.2577,4.3249,4.355,4.3711,4.3711,4.4004,4.4316,4.457,4.4863,4.5176,4.5469,4.5312,4.5019,4.459,4.4453,4.4297,4.4101,4.4297,4.4687,4.5234,4.5527,4.5898,4.6308,4.6308,4.6308,4.6376,4.7641,4.8245,4.8397,5.0167,5.1993,5.3655,5.4733,5.6491,5.8392,5.8536,5.8945,5.9329,5.8615,5.8652,5.9058,5.933,5.9488,5.969,6.0075,6.0003,5.9726,5.9473,5.9388,5.9219,5.8515,5.8879,5.9049,5.7659,5.7917,5.8345,5.8345,5.7831,5.7831,5.9134,5.8794,5.8624,5.9304,5.9388,5.9388,5.9388,5.9642,5.9835,5.9835,6.0003,6.0171,6.0171,6.0171,6.0171,6.0171,6.0315,6.0412,6.0412,6.058,6.082,6.1205,6.1518,6.1855,6.2263,6.3298,6.3803,6.3827,6.4572,6.4909,2.5771,2.5574,2.5535,2.5535,2.6035,2.6811,2.7546,2.8294,2.8905,2.925,3.0499,3.1608,3.1633,3.3483,3.5121,3.5491,0.0,0.0,3.7949,3.8415,3.8981,3.9786,4.1059,4.1991,4.2495,4.323,4.3711,4.3711,4.3711,0.0,4.498,4.5019,4.5019,4.5039,4.5449,4.5449,4.5019,4.4609,4.4609,4.5,4.459,4.4844,4.5664,4.5683,4.5898,4.6308,4.6308,4.6308,4.6308,4.6308,4.6308,4.6464,4.8311,5.0167,5.1976,5.432,5.628,5.7886,5.8416,5.8945,5.9212,5.827,5.8019,5.7944,5.7583,5.8686,6.0171,6.0171,5.9558,5.8601,5.7659,5.7401,5.7401,5.7401,5.7401,5.7401,5.7401,5.7401,5.7401,5.7401,5.7401,5.7401,5.7401,5.7401,5.7401,5.7401,5.7401,5.7401,5.7401,5.8259,5.8794,5.8794,5.9666,6.0171,6.0171,6.0171,6.0171,6.0171,6.0676,6.0965,6.0965,6.1494,6.1782,6.1782,6.2793,6.3322,6.3322,6.438,6.4909,6.4909,6.4909,6.4909,2.658,2.7003,2.7489,2.6482,2.717,2.7998,2.7779,2.8063,2.8593,2.9185,2.9919,3.063,3.1333,3.3193,3.4383,3.3661,3.502,0.0,3.6023,3.7822,3.9471,4.0281,4.2241,4.3546,4.337,4.355,4.3711,4.3711,4.4004,4.4297,4.459,4.5156,4.5605,4.5898,4.6035,4.5898,4.5469,4.5332,4.5195,4.5019,4.5195,4.541,4.5683,4.5976,4.6172,4.6308,4.6308,4.6308,4.6308,4.6308,4.6308,4.6396,4.69,4.8997,5.1809,5.2857,5.5394,5.8286,5.7774,5.8011,5.8223,5.6926,5.6706,5.7006,5.6912,5.7237,5.7816,5.8166,5.8088,5.7745,5.7487,5.7401,5.7228,5.6622,5.6969,5.7056,5.5861,5.6013,5.6449,5.6449,5.5926,5.5948,5.7228,5.6882,5.6622,5.7315,5.7401,5.7401,5.7401,5.7659,5.797,5.8317,5.8622,5.9312,6.0615,6.0724,6.0869,6.1253,6.1446,6.1686,6.2071,6.2239,6.2672,6.337,6.3706,6.4067,6.4428,6.5101,6.563,6.5991,6.6376,6.652,2.772,2.7987,2.8472,2.7196,2.7795,2.8576,2.7584,2.7865,2.8329,2.8461,2.9257,3.0033,3.0319,3.2598,3.4045,3.2842,3.4632,3.6067,3.5762,3.7527,3.9291,4.066,4.2327,4.3458,4.3496,4.3613,4.3711,4.3711,4.4141,4.4473,4.4629,4.5293,4.5859,4.6289,4.6308,4.6172,4.5918,4.5762,4.5625,4.5508,4.5625,4.5762,4.5918,4.6191,4.6308,4.6308,4.6308,4.6308,0.0,4.6308,4.6308,4.6308,4.6308,4.7986,5.0548,5.1528,5.3845,5.6524,5.6651,5.6987,5.7275,5.6022,5.5676,5.5911,5.5911,5.6341,5.6902,5.6878,5.6882,5.6796,5.6449,5.6362,5.6188,5.5686,5.5948,5.6123,5.4917,5.5159,5.5511,5.5511,5.5071,5.5093,5.621,5.5948,5.5686,5.6275,5.6362,5.6452,5.6632,5.6917,5.736,5.7795,5.8193,5.9162,6.0915,6.0858,6.1054,6.1782,6.1999,6.2239,6.2576,6.2961,6.3466,6.4115,6.4524,6.4885,6.5221,6.5751,6.628,6.6809,6.7121,6.7386,0.0,2.8643,2.8692,2.7515,2.7965,2.8444,2.7118,2.7565,0.0,2.748,2.8741,2.9731,2.9097,3.1934,3.4005,3.2783,3.4632,3.6321,3.6628,3.7541,3.9017,4.1114,4.1688,4.2245,4.3043,4.3476,4.3711,4.375,4.418,4.4629,4.5058,4.5488,4.5898,4.6289,4.6308,4.6308,4.6308,4.5918,4.5918,4.6289,4.5918,4.5918,4.6308,4.6308,4.6308,4.6308,4.6308,4.6308,4.6221,4.6221,4.6221,4.6221,4.6221,4.7054,4.8437,5.0269,5.1829,5.3251,5.4885,5.5852,5.6263,5.5319,5.4784,5.4564,5.4652,5.5861,5.7056,5.6188,5.5926,5.5751,5.4917,5.4741,5.4741,5.4741,5.4741,5.4741,5.4741,5.4741,5.4741,5.4741,5.4741,5.4741,5.4741,5.4741,5.4674,5.4696,5.4718,5.4893,5.5373,5.6221,5.6955,5.7447,5.8208,5.9392,6.0856,6.0611,6.0789,6.1816,6.2408,6.272,6.2744,6.3706,6.426,6.4284,6.527,6.5775,6.5823,6.6304,6.6833,6.7338,6.7386,6.765,3.0209,0.0,2.9978,2.7715,2.7783,2.8329,0.0,2.8086,2.8321,2.8731,2.9525,3.0316,3.0681,3.2514,3.3473,3.1977,3.4255,3.5987,3.5496,3.8337,4.1203,4.3394,4.3421,4.3343,4.3511,4.3652,4.3848,4.4199,4.4629,4.5058,4.5508,4.5918,4.6191,4.6289,4.6308,4.6308,4.6308,4.6211,4.6211,4.6308,4.6191,4.6211,4.6308,4.6308,4.6308,4.6308,4.6308,4.6133,4.5783,4.5783,4.5519,4.5255,4.5255,4.625,4.7814,4.8606,5.0864,5.3483,5.243,5.3078,5.428,5.3462,5.3123,5.3209,5.4387,5.5005,5.5247,5.5093,5.5005,5.5005,5.4741,5.4741,5.4741,5.4741,5.4741,5.4741,5.4741,5.4741,5.4741,5.4741,5.4741,5.4741,5.4741,5.4741,5.4783,5.5155,5.522,5.5395,5.5875,5.6122,5.6478,5.694,5.7166,5.7912,5.9386,6.0326,6.1451,6.2849,6.3466,6.3947,6.4356,6.4981,6.5534,6.5919,6.6183,6.6496,6.6905,6.7025,6.7386,6.7939,6.8324,6.8372,2.9986,3.0336,3.0044,2.8196,2.8112,2.8443,2.8109,2.8253,2.8563,2.8733,2.9633,3.0441,3.0924,3.2682,3.3652,3.2482,3.5105,3.7304,3.7214,3.9141,4.1219,4.2964,4.2804,4.2831,0.0,4.3671,4.3851,4.4375,4.498,4.543,4.5664,4.6074,4.6308,4.6308,4.6308,4.6308,4.6308,4.6308,4.6308,4.6308,4.6308,4.6308,4.6308,4.6308,4.6308,4.6308,4.6308,4.6046,4.5607,4.5607,4.5343,4.4902,4.4902,4.5507,4.6406,4.7524,4.9182,5.0871,5.0723,5.1321,5.2159,5.1659,5.1479,5.1659,5.2471,5.3119,5.3833,5.4475,5.4741,5.4741,5.4741,5.4741,5.4741,5.4741,5.4741,5.4741,5.4741,5.4741,5.4741,5.4741,5.4741,5.4741,5.4741,5.4849,5.5089,5.5351,5.557,5.5897,5.6356,5.6422,5.6618,5.7077,5.7121,5.7599,5.8856,5.9726,6.0673,6.1874,6.3145,6.3777,6.3892,6.5111,6.5943,6.6472,6.6737,6.7001,6.729,6.753,6.7939,6.8492,6.8781,6.8877,2.9333,2.9631,2.9597,2.8644,2.8659,2.8753,2.8092,2.8493,2.8916,2.8614,2.9584,3.0537,3.0865,3.2808,3.4094,3.3586,3.6272,3.8846,3.9895,4.0134,4.0612,4.1798,4.149,0.0,4.3618,4.3695,4.3902,4.4421,4.5083,4.553,4.5675,4.6026,4.6221,4.6308,4.6308,4.6308,4.6308,4.6308,4.6308,4.6308,4.6308,4.6308,4.6308,4.6308,4.6308,4.6221,4.6221,4.587,4.5431,4.5431,4.5078,4.4725,4.48,4.4759,4.4935,4.6652,4.7327,4.7713,4.9406,4.9839,4.9656,4.9931,4.9931,5.0022,5.0205,5.1207,5.2402,5.3655,5.4387,5.4652,5.4387,5.4564,5.4741,5.4741,5.4741,5.4741,5.4741,5.4741,5.4741,5.4741,5.4741,5.4674,5.4761,5.5111,5.5439,5.557,5.6007,5.6509,5.6968,5.7033,5.7186,5.7601,5.7579,5.7907,5.8806,5.8965,5.9357,6.0,6.1993,6.2916,6.2726,6.4745,6.5971,6.643,6.6956,6.7362,6.753,6.8011,6.8516,6.9021,6.9021,6.9214,2.9367,2.9672,2.9375,2.8824,2.9237,2.9649,2.9182,2.9567,3.006,3.0013,3.0648,3.159,3.2594,3.3373,3.3957,3.4179,3.6386,3.8762,4.0647,4.1202,4.1785,4.2725,4.2434,4.2688,4.4098,4.388,4.3947,4.4847,4.4635,4.4777,4.5579,4.5656,4.587,4.6308,4.6308,4.6308,4.6308,4.6308,4.6308,4.6308,4.6308,4.6308,4.6308,4.6308,4.6046,4.5695,4.5695,4.5255,4.437,4.437,4.4104,4.3785,4.4136,4.4212,4.4359,4.528,4.6425,4.7622,4.8231,4.7624,4.6803,4.7995,4.8459,4.8643,4.9931,5.0479,5.0661,5.0934,5.274,5.4387,5.3119,5.3765,5.4741,5.4741,5.4741,5.4741,5.4741,5.4741,5.4741,5.4741,5.4741,5.4783,5.5198,5.5329,5.5657,5.6465,5.6989,5.7492,5.7994,5.806,5.8082,5.8169,5.7776,5.7804,5.8313,5.8802,5.8846,5.8661,6.0497,6.1926,6.271,6.5089,6.6244,6.5944,6.6865,6.7747,6.8661,6.8733,6.9045,6.9574,6.9574,6.9382,2.8426,2.883,2.9234,3.0062,3.0559,3.055,2.9525,2.9929,3.0387,2.975,3.0568,3.1795,3.3262,3.4401,3.5719,3.7659,3.8366,3.9259,4.1184,4.1026,4.11,4.2188,0.0,4.2263,4.3725,4.3714,4.3876,4.4519,4.4572,4.4781,4.5236,4.5255,4.5343,4.5519,4.5783,4.5783,4.5519,4.5783,4.5958,4.5958,4.5958,4.5958,4.5958,4.5958,4.5783,4.5607,4.5343,4.4813,4.4193,4.4193,4.4056,4.3829,4.4013,4.4361,4.482,4.5407,4.6075,4.6653,4.6841,4.6447,4.5978,4.671,4.6897,4.7084,4.7736,4.8459,4.9105,4.9105,5.1207,5.3409,5.2671,5.3566,5.4741,5.4741,5.4741,5.4741,5.4741,5.4741,5.4741,5.4741,5.5089,5.5439,5.5395,5.6247,5.7011,5.7164,5.7623,5.8016,5.8256,5.8278,5.8191,5.7907,5.7907,5.7907,5.7885,5.806,5.8824,6.0136,6.0615,6.1501,6.3072,6.4456,6.5423,6.5776,6.6796,6.7798,6.8901,6.919,6.9454,6.9695,6.9695,6.955,2.7608,2.816,2.9217,3.0969,3.1107,3.0513,2.9849,3.0001,3.0068,2.9291,3.0329,3.1799,3.3049,3.4831,3.7179,4.0354,4.0143,4.0162,4.1629,4.1005,4.0804,4.1849,4.1684,4.2057,4.3528,4.3621,4.3708,4.4147,4.4448,4.4636,4.4725,4.4725,4.4813,4.4902,4.5255,4.5255,4.4902,4.5166,4.5343,4.5431,4.5431,4.5431,4.5431,4.5431,4.5343,4.5255,4.4902,4.4459,4.4034,4.4127,4.417,4.4105,4.4288,4.4801,4.548,4.5773,4.5883,4.5883,4.5883,4.5883,4.5883,4.5883,4.5883,4.5883,4.5883,4.671,4.7531,4.7531,4.9472,5.1659,5.2312,5.3298,5.4298,5.4652,5.4741,5.4696,5.4805,5.474,5.4806,5.4958,5.5504,5.5919,5.5897,5.7033,5.7885,5.7732,5.8038,5.8278,5.8278,5.8278,5.8125,5.7754,5.7951,5.7994,5.7732,5.771,5.867,6.1119,6.078,6.1137,6.2589,6.3588,6.4624,6.5361,6.6711,6.7667,6.8295,6.8992,6.9183,6.8988,6.9183,6.9281,2.7535,2.8255,2.9346,3.0614,2.9524,2.8626,3.0794,3.0023,2.895,2.9266,3.062,3.1684,3.1381,3.3996,3.706,3.9613,4.0575,4.1225,4.2106,4.2161,4.2271,4.2729,4.2747,4.3089,4.4011,4.38,4.3712,4.4156,4.3837,4.3748,4.4193,4.4282,4.4459,4.4902,4.4902,4.4902,4.4902,4.4459,4.4548,4.499,4.499,4.499,4.499,4.499,4.4725,4.4282,4.4282,4.4015,4.3607,4.3974,4.414,4.416,4.4911,4.548,4.5847,4.5883,4.5883,4.5883,4.5883,4.5883,4.5883,4.5883,4.5883,4.5883,4.5883,4.5978,4.6072,4.6072,4.7177,4.9012,5.1771,5.2581,5.303,5.4387,5.4741,5.4783,5.5242,5.498,5.4914,5.5832,5.5701,5.5854,5.7142,5.7099,5.7208,5.8104,5.8256,5.8278,5.8278,5.8278,5.8278,5.8235,5.7841,5.7754,5.8191,5.8235,5.8569,5.9138,6.0022,6.0317,6.0009,6.2635,6.4267,6.4333,6.628,6.705,6.6623,6.7761,6.7662,6.6792,6.7784,6.8277,2.6688,2.6812,2.7277,2.9109,2.7762,2.6789,2.9763,3.0097,2.9577,2.8733,3.0287,3.2404,3.4596,3.7161,3.9194,4.0098,4.1134,4.1922,4.2234,4.2271,4.2417,4.2821,4.2858,4.3129,4.3712,4.3589,4.3589,4.3767,4.3589,4.3589,4.3767,4.3767,4.3837,4.4015,4.4282,4.4282,4.4015,4.4104,4.4104,4.4015,4.4282,4.4459,4.4459,4.4459,4.437,4.4193,4.3856,4.3678,4.3518,4.3921,4.4233,4.4526,4.5352,4.5755,4.5883,4.5883,4.5883,4.5883,4.5883,4.5883,4.5883,4.5883,4.5883,4.5883,4.5883,4.5883,4.6072,4.699,4.699,4.7177,4.9197,5.0479,5.1359,5.2193,5.3071,5.365,5.3111,5.3548,5.4278,5.464,5.5024,5.5664,5.6849,5.7667,5.8169,5.8278,5.8278,5.8278,5.8278,5.8278,5.8169,5.7841,5.7645,5.7732,5.8235,5.8278,5.8475,5.8934,5.9336,5.9688,6.0113,6.184,6.3155,6.4146,6.5261,6.601,6.6493,6.6869,6.6892,6.6493,6.5802,6.5478,2.5957,2.5922,2.6589,2.9223,2.7824,2.6733,3.0536,3.0261,2.9057,2.873,2.9948,3.2472,3.715,3.8401,3.9164,4.0435,4.1574,4.2271,4.2271,4.2381,4.2619,4.3023,4.3059,4.3188,4.3463,4.3499,4.3499,4.3499,4.3499,4.3499,4.3499,4.3499,4.3499,4.3499,4.3837,4.3837,4.3499,4.3856,4.3856,4.3499,4.3967,4.4201,4.4201,4.4201,4.4275,4.4315,4.4046,4.3866,4.3903,4.4306,4.471,4.5113,4.5663,4.5883,4.5883,4.5883,4.5975,4.6048,4.5938,4.5975,4.6048,4.5938,4.5883,4.5883,4.5883,4.5883,4.6072,4.7084,4.6803,4.635,4.7366,4.8652,5.0026,5.0675,5.178,5.2467,5.1892,5.2454,5.3199,5.3489,5.3923,5.4612,5.5625,5.6494,5.6985,5.6835,5.6686,5.6791,5.7263,5.7358,5.7387,5.7682,5.7907,5.8125,5.8475,5.8497,5.8693,5.9174,5.9349,5.9785,6.0615,6.1555,6.2599,6.389,6.4527,6.5088,6.5491,6.5792,6.5569,6.4639,6.3761,6.3106,2.5478,2.6152,2.7787,3.1494,2.9892,2.8707,3.3645,3.0427,2.7035,2.9315,2.9742,3.1718,3.8007,3.6802,3.6207,4.0409,4.1757,4.2289,4.2271,4.2619,4.3023,4.3444,4.3499,4.3499,4.3499,4.3499,4.3499,4.3499,4.3499,4.3499,4.3499,4.3499,4.3499,4.3499,4.3499,4.3499,4.3499,4.3499,4.3499,4.3499,4.3903,4.4086,4.4086,4.4086,4.4306,4.4673,4.4673,4.4673,4.471,4.5132,4.5535,4.5883,4.5883,4.5883,4.5883,4.5883,4.614,4.6415,4.603,4.614,4.6415,4.6012,4.5883,4.5883,4.5883,4.5883,4.5883,4.5902,4.6177,4.647,4.6489,4.761,4.9098,5.0477,5.1189,5.1611,5.2073,5.1812,5.1772,5.2655,5.2475,5.2434,5.3395,5.3194,5.3073,5.3475,5.3194,5.3508,5.5031,5.5241,5.5998,5.8046,5.8693,5.8977,5.8977,5.8977,5.9174,5.9676,6.0157,6.0637,6.1096,6.2079,6.2822,6.328,6.43,6.43,6.328,6.43,6.3441,6.0657,6.1734,6.1381,2.475,2.6364,2.8011,2.9034,3.0204,3.1584,3.3372,3.1013,2.9272,3.2015,3.3964,3.5984,3.8725,3.9425,3.9908,4.061,4.1794,4.2601,4.2307,4.2876,4.3353,4.3481,4.3499,4.3499,4.3499,4.3499,4.3499,4.3499,4.3499,4.3499,4.3499,4.3499,4.3499,4.3499,4.3499,4.3499,4.3499,4.3499,4.3499,4.3499,4.3903,4.4086,4.4086,4.438,4.4563,4.4673,4.4673,4.4673,4.471,4.5132,4.5535,4.5883,4.5883,4.5883,4.5883,4.5883,4.5957,4.6048,4.5938,4.5957,4.6048,4.592,4.5883,4.5883,4.5883,4.5883,4.5957,4.6232,4.6379,4.6544,4.6837,4.7498,4.8089,4.8571,4.9608,5.0281,4.956,5.0222,5.0997,5.125,5.1192,5.1463,5.288,5.3013,5.2972,5.3093,5.3013,5.3609,5.5491,5.6973,5.8109,5.8759,5.889,5.9108,5.9458,5.948,5.9323,5.8939,6.0446,6.1489,6.162,6.2254,6.2822,6.328,6.2438,6.1798,6.1487,6.0636,5.978,5.8962,5.8097,5.7336,2.6682,2.8567,3.0245,3.0947,3.2073,3.3046,3.2915,3.2533,3.2834,3.4992,3.6291,3.77,3.9795,4.0144,4.0408,4.1104,4.1996,4.2601,4.2527,4.3078,4.3499,4.3499,4.3499,4.3499,4.3499,4.3499,4.3499,4.3499,4.3499,4.3499,4.3499,4.3499,4.3499,4.3499,4.3499,4.3499,4.3499,4.3811,4.3958,4.3976,4.4526,4.4728,4.4581,4.482,4.5003,4.515,4.515,4.515,4.5168,4.5425,4.5682,4.5883,4.5883,4.5883,4.5883,4.5883,4.5993,4.6103,4.5938,4.5993,4.6103,4.5938,4.5883,4.5883,4.5883,4.5883,4.5975,4.636,4.6599,4.6819,4.724,4.7626,4.7882,4.7736,4.8573,4.9132,4.8429,4.9058,4.9648,4.9648,4.9648,4.9942,5.09,5.1095,5.1095,5.1095,5.1718,5.2772,5.407,5.6099,5.7364,5.7364,5.7534,5.7766,5.8063,5.8253,5.8179,5.7902,5.9295,6.0141,6.031,6.1345,6.1644,6.128,6.0219,5.9696,5.9696,5.8646,5.7906,5.7163,5.6203,5.5364,2.9807,3.17,3.3597,3.5405,3.4863,3.3664,3.2779,3.4578,3.6688,3.7453,3.7161,3.7792,4.1014,3.9774,3.9073,4.1773,4.2289,4.2454,4.2821,4.3224,4.3499,4.3499,4.3499,4.3499,4.3499,4.3499,4.3499,4.3499,4.3499,4.3499,4.3499,4.3499,4.3499,4.3499,4.3499,4.3518,4.3554,4.4306,4.4691,4.4746,4.5517,4.57,4.5352,4.5352,4.5553,4.5883,4.5883,4.5883,4.5883,4.5883,4.5883,4.5883,4.5883,4.5883,4.5883,4.5883,4.6122,4.6379,4.6012,4.6122,4.636,4.6012,4.592,4.5938,4.5938,4.5975,4.6085,4.647,4.6874,4.7259,4.7644,4.8011,4.8194,4.7729,4.793,4.8286,4.8286,4.8286,4.8286,4.8286,4.8286,4.8286,4.8286,4.8322,4.8359,4.8396,5.0101,5.1493,5.1777,5.3587,5.4844,5.4844,5.5326,5.5588,5.5588,5.599,5.631,5.6669,5.7194,5.7531,5.778,5.9487,5.9801,5.8223,5.8012,5.8012,5.8012,5.78,5.695,5.5471,5.5471,5.4628,2.7058,3.0685,3.4505,3.4683,3.5511,3.5958,3.4688,3.5065,3.5795,3.5956,3.7294,3.8974,4.0832,4.1318,4.1419,4.1726,4.2344,4.2766,4.2858,4.3224,4.3499,4.3499,4.3499,4.3499,4.3499,4.3499,4.3499,4.3499,4.3499,4.3499,4.3499,4.3499,4.3499,4.3499,4.3499,4.3646,4.3958,4.4435,4.4838,4.5168,4.5663,4.5847,4.5755,4.5755,4.581,4.5883,4.5883,4.5883,4.5883,4.5883,4.5883,4.5883,4.5883,4.5883,4.5883,4.5883,4.5938,4.6012,4.592,4.5938,4.5993,4.592,4.6103,4.6342,4.6342,4.658,4.6929,4.7332,4.7497,4.7662,4.8047,4.8212,4.8069,4.7185,4.7618,4.8286,4.8286,4.8286,4.8286,4.8286,4.8286,4.8286,4.8286,4.8561,4.8891,4.9184,5.0969,5.2262,5.2358,5.4141,5.5427,5.5427,5.5527,5.5588,5.5588,5.599,5.5797,5.4882,5.6568,5.6478,5.4266,5.7143,5.854,5.8223,5.695,5.6203,5.6203,5.4825,5.396,5.3653,5.3653,5.3601,2.9063,3.2149,3.5037,3.5536,3.5723,3.5687,3.5269,3.4657,3.4694,3.6448,3.7823,3.9183,4.1014,4.1702,4.1996,4.1977,4.2472,4.2931,4.3133,4.3353,4.3499,4.3499,4.3499,4.3499,4.3499,4.3499,4.3499,4.3499,4.3499,4.3499,4.3499,4.3499,4.3499,4.3499,4.3683,4.3958,4.4361,4.515,4.5755,4.6158,4.6379,4.6269,4.5883,4.5883,4.5883,4.5883,4.5883,4.5883,4.5902,4.6085,4.6177,4.6177,4.6177,4.6177,4.614,4.5957,4.5883,4.5883,4.5883,4.5883,4.592,4.6103,4.6305,4.6507,4.6727,4.6929,4.7185,4.7589,4.7699,4.7791,4.8176,4.7889,4.7374,4.6876,4.7473,4.8187,4.7672,4.7988,4.8286,4.8286,4.8286,4.8341,4.8543,4.8928,4.9331,4.9735,5.0689,5.1387,5.1575,5.2603,5.3249,5.3249,5.3249,5.3249,5.3249,5.3828,5.3872,5.3153,5.4378,5.4496,5.3199,5.4636,5.5562,5.5774,5.4933,5.4501,5.4501,5.3544,5.3109,5.3109,5.3329,5.3531,3.109,3.3166,3.4802,3.6518,3.5406,3.401,3.4737,3.3789,3.3644,3.7155,3.8032,3.8992,4.116,4.1702,4.1904,4.2216,4.2674,4.3096,4.3444,4.3499,4.3499,4.3499,4.3499,4.3499,4.3499,4.3499,4.3499,4.3499,4.3499,4.3499,4.3499,4.3499,4.3518,4.3591,4.3921,4.4343,4.4875,4.5883,4.6654,4.7204,4.713,4.6672,4.5883,4.5883,4.5883,4.5883,4.5883,4.592,4.6012,4.6342,4.6525,4.658,4.658,4.6544,4.6434,4.6103,4.5957,4.5883,4.5883,4.5938,4.6048,4.6379,4.6466,4.6457,4.6804,4.6968,4.7077,4.7405,4.7693,4.7864,4.7996,4.7374,4.6576,4.6276,4.6975,4.7573,4.6876,4.7573,4.8286,4.8286,4.8341,4.8543,4.9038,4.9386,4.9753,5.0175,5.023,5.0358,5.067,5.0725,5.0725,5.0725,5.0725,5.0725,5.0725,5.1403,5.1825,5.1825,5.221,5.2577,5.2889,5.2669,5.2687,5.2999,5.3072,5.3109,5.3109,5.3109,5.3146,5.3219,5.3586,5.3806,2.6965,2.9571,3.2826,3.5801,3.4323,3.2185,3.2453,3.2661,3.3292,3.5407,3.7155,3.8905,4.0778,4.1721,4.2216,4.2271,4.2913,4.3426,4.3481,4.3499,4.3499,4.3499,4.3499,4.3499,4.3499,4.3499,4.3499,4.3499,4.3499,4.3499,4.3499,4.3499,4.3646,4.3995,4.405,4.4618,4.5718,4.5883,4.6525,4.7607,4.7277,4.6672,4.5883,4.5883,4.5883,4.5883,4.5883,4.6085,4.6397,4.6452,4.669,4.702,4.702,4.68,4.647,4.6415,4.6177,4.5883,4.5883,4.6122,4.6415,4.6452,4.6368,4.6163,4.6217,4.6466,4.6733,4.6786,4.7501,4.8014,4.7175,4.6776,4.6276,4.438,4.4767,4.5774,4.6576,4.7573,4.8286,4.8286,4.8579,4.9074,4.9826,5.001,5.0175,5.0578,5.0633,5.0651,5.0706,5.0725,5.0725,5.0725,5.0725,5.0725,5.0725,5.1128,5.1385,5.1385,5.1788,5.2045,5.21,5.2375,5.2559,5.2595,5.2944,5.3109,5.3109,5.3109,5.3311,5.3641,5.3696,5.4117,2.7382,3.0051,3.2438,3.388,3.3829,3.3496,3.3736,3.4808,3.6362,3.8272,3.9313,4.0095,4.0976,4.1721,4.2271,4.2271,4.2968,4.3499,4.3499,4.3499,4.3499,4.3499,4.3499,4.3499,4.3499,4.3499,4.3499,4.3499,4.3499,4.3499,4.3499,4.3701,4.3903,4.4068,4.4526,4.5132,4.5883,4.6342,4.6837,4.7369,4.7185,4.6672,4.5883,4.5883,4.5883,4.5883,4.5883,4.6122,4.6489,4.6727,4.7075,4.7442,4.7442,4.7332,4.7112,4.6654,4.636,4.6213,4.6213,4.6324,4.6544,4.702,4.7113,4.7049,4.7266,4.7446,4.7573,4.7573,4.7473,4.7274,4.6776,4.5774,4.4666,4.3772,4.3873,4.4363,4.4767,4.6175,4.7446,4.7662,4.822,4.876,4.912,4.989,5.0523,5.0688,5.0725,5.0725,5.0725,5.0725,5.0725,5.0725,5.0725,5.0725,5.0725,5.1092,5.1312,5.1312,5.1477,5.1697,5.1935,5.188,5.2064,5.2522,5.2907,5.3109,5.3109,5.3366,5.3586,5.3751,5.4172,5.4594,2.7643,2.9556,3.08,3.2705,3.3442,3.4041,3.5419,3.6977,3.863,0.0,4.0862,4.1097,4.1207,4.1794,4.2271,4.2271,4.2968,4.3499,4.3499,4.3499,4.3499,4.3499,4.3499,4.3499,4.3499,4.3499,4.3499,4.3499,4.3499,4.3536,4.3646,4.3921,4.4178,4.438,4.5077,4.5682,4.6195,4.7002,4.7259,4.6947,4.7057,4.6672,4.5883,4.5883,4.5883,4.5902,4.5993,4.6269,4.6672,4.7075,4.7479,4.7846,4.7846,4.7791,4.7607,4.6892,4.6635,4.6617,4.6507,4.6617,4.6892,4.7205,4.7165,4.7113,4.7401,4.7491,4.7491,4.7491,4.7075,4.6576,4.6075,4.4666,4.3467,4.3162,4.306,4.328,4.3888,4.5325,4.6575,4.6965,4.7526,4.8051,4.8469,4.9466,5.0394,5.0621,5.0725,5.0725,5.0725,5.0725,5.0725,5.0725,5.0725,5.0725,5.0725,5.0982,5.1165,5.1165,5.1165,5.1293,5.1605,5.1422,5.1642,5.2357,5.287,5.3164,5.3274,5.3586,5.3842,5.4062,5.4649,5.4979,2.5867,2.5725,2.6547,3.3289,3.262,3.1652,3.6425,3.7639,3.8014,3.8838,4.009,4.1189,4.1592,4.1996,4.2271,4.2271,4.2968,4.3499,4.3499,4.3499,4.3499,4.3499,4.3499,4.3499,4.3499,4.3499,4.3499,4.3499,4.3499,4.3664,4.4031,4.4068,4.4435,4.5205,4.5645,4.6232,4.7039,4.7827,4.7644,4.6507,4.691,4.6672,4.5883,4.5883,4.5883,4.5902,4.6287,4.669,4.7112,4.7497,4.7901,4.8249,4.8249,4.8029,4.7644,4.7222,4.7075,4.702,4.6617,4.6984,4.7448,4.6485,4.576,4.5254,4.5271,4.5271,4.5271,4.5271,4.5975,4.6276,4.4161,4.3569,4.3263,4.2157,4.1849,4.2544,4.492,4.5618,4.5823,4.656,4.6731,4.7287,4.8701,4.8999,4.9436,5.0517,5.0725,5.0725,5.0725,5.0725,5.0725,5.0725,5.0725,5.0725,5.0725,5.0743,5.0743,5.0743,5.0743,5.0761,5.078,5.1128,5.1513,5.1954,5.2724,5.3329,5.3696,5.3732,5.4117,5.4869,5.4924,5.5126,2.5861,2.5594,2.5618,2.9928,3.1823,3.2945,3.4301,3.7364,3.9969,4.0256,4.0729,4.1189,4.161,4.2014,4.2271,4.2271,4.2968,4.3499,4.3499,4.3499,4.3499,4.3499,4.3499,4.3499,4.3499,4.3499,4.3609,4.3848,4.3884,4.405,4.4435,4.4728,4.5113,4.5663,4.6067,4.6654,4.7479,4.7516,4.7314,4.6874,4.6764,4.6415,4.5883,4.5883,4.5883,4.592,4.6599,4.6965,4.713,4.7534,4.7919,4.8286,4.8286,4.8194,4.8029,4.7626,4.7479,4.7461,4.7314,4.7052,4.6753,4.7302,4.647,4.5372,4.6776,4.6676,4.6175,4.6175,4.5875,4.5372,4.3873,4.2958,4.241,4.2238,4.2199,4.2549,4.3946,4.4688,4.5294,4.5545,4.5795,4.6436,4.7719,4.8474,4.9122,4.9541,5.0186,5.0394,4.9645,5.029,5.0725,5.0725,5.0725,5.0725,5.0725,5.0725,5.0725,5.0725,5.0963,5.1092,5.1092,5.1495,5.2027,5.2687,5.2962,5.3329,5.3751,5.4264,5.4649,5.4924,5.5181,5.5401,2.5302,0.0,2.5805,2.8733,3.0922,3.2659,3.4278,3.6967,3.9616,4.0848,4.095,4.1079,4.1757,4.2106,4.2271,4.2271,4.2968,4.3499,4.3499,4.3499,4.3499,4.3499,4.3499,4.3499,4.3499,4.3499,4.3664,4.405,4.4086,0.0,4.4856,4.515,4.5608,4.6269,4.669,4.7149,4.7681,4.7424,4.7167,4.6892,4.6617,4.6269,4.5883,4.5883,4.5957,4.6122,4.6819,4.7112,4.7149,4.7681,4.8047,4.8286,4.8286,4.8377,4.8432,4.7901,4.7864,4.7967,4.7398,4.6789,4.6339,4.6605,4.5975,4.5271,4.6376,4.6476,4.6075,4.5774,4.507,4.4262,4.3162,4.2345,4.1929,4.2294,4.2469,4.2707,4.3279,4.3921,4.4483,4.4614,4.4825,4.5416,4.6571,4.733,4.7964,4.8368,4.9436,4.9872,4.9122,4.9977,5.0725,5.0725,5.0835,5.0908,5.0908,5.1055,5.1128,5.1128,5.1367,5.1513,5.1513,5.1917,5.2449,5.3109,5.3384,5.3751,5.4117,5.4649,5.4979,5.5126,5.5324,5.5548,0.0,0.0,0.0,0.0,2.9898,3.0495,3.642,0.0,3.6504,4.0239,4.0628,4.0756,4.2014,4.2252,4.2271,4.2271,4.2968,4.3499,4.3499,4.3499,4.3499,4.3499,4.3499,4.3499,4.3499,4.3499,4.3683,4.4068,4.4105,4.4471,4.5278,4.5352,4.5883,4.7075,4.7497,4.7699,4.7699,4.7681,4.7277,4.647,4.647,4.625,4.5883,4.5883,4.6103,4.6507,4.6929,4.7112,4.7185,4.7956,4.8286,4.8286,4.8304,4.8543,4.8799,4.8011,4.8231,4.8581,4.6789,4.6374,4.6276,4.4161,4.4177,4.4767,4.3873,4.4262,4.4868,4.3772,4.3467,4.3263,4.2141,4.1849,4.1945,4.231,4.266,4.2993,4.3343,4.3422,4.3533,4.3867,4.3931,4.4253,4.5432,4.5646,4.5949,4.7101,4.8263,4.8912,4.8912,4.9977,5.0639,5.0743,5.1092,5.133,5.133,5.1697,5.1935,5.1935,5.1954,5.1954,5.1972,5.2357,5.2742,5.3164,5.3952,5.4539,5.4924,5.4924,5.5126,5.5548,5.5548,5.5548,2.6064,0.0,0.0,0.0,0.0,0.0,0.0,0.0,3.5443,3.7201,3.7816,3.8825,4.1008,4.1886,4.2271,4.2271,4.2968,4.3499,4.3499,4.3499,4.3499,4.3499,4.3499,4.3499,4.3499,4.3756,4.4086,0.0,4.4783,4.5187,4.57,4.6287,4.6764,4.7094,4.7772,4.7992,4.7699,4.7406,4.7002,4.647,4.6195,4.5993,4.5883,4.5883,4.6103,4.6507,4.6929,4.7277,4.7571,4.8084,4.8286,4.8322,4.8616,4.8616,4.8469,4.8543,4.8026,4.7218,4.6687,4.5587,4.4363,4.4565,4.3772,4.2958,4.4262,4.4262,4.3873,4.3569,4.3467,4.3263,4.2141,4.204,4.2326,4.266,4.3009,4.3359,4.3708,4.3788,4.3819,4.3915,4.3931,4.4253,4.5432,4.5646,4.5753,4.6056,4.6995,4.7736,4.7736,4.9036,5.0182,5.1042,5.1513,5.177,5.177,5.1862,5.1935,5.1935,5.221,5.2485,5.2779,5.3164,5.3732,5.4393,5.4649,5.4961,5.5269,5.5269,5.5438,5.5548,5.5548,5.5548,0.0,0.0,0.0,0.0,0.0,0.0,0.0,0.0,0.0,0.0,3.811,3.8812,4.0764,4.1721,4.2271,4.2271,4.2968,4.3499,4.3499,4.3499,4.3499,4.3499,4.3499,4.3499,4.3499,4.3701,4.4068,4.4636,4.4893,4.5297,4.5865,4.6654,4.7112,4.7112,4.7864,4.8102,4.7699,4.7314,4.6892,4.647,4.6085,4.5883,4.5883,4.5883,4.6195,4.6764,4.7002,4.7424,4.7956,4.8194,4.8396,4.8579,4.8818,4.8854,4.8699,4.8371,4.7641,4.6806,4.5726,4.4565,4.3569,4.367,4.3162,4.2652,4.3467,4.367,4.3365,4.2958,4.2754,4.2684,4.2127,4.2231,4.2501,4.2993,4.3263,4.3502,4.3867,4.3931,4.3931,4.3931,4.3931,4.4146,4.479,4.4897,4.4897,4.4897,4.6252,4.7365,4.7536,4.9124,5.0628,5.1444,5.1935,5.2192,5.2192,5.2339,5.243,5.243,5.2815,5.3146,5.3366,5.3916,5.4448,5.4924,5.5071,5.5291,5.5548,5.5548,5.5548,5.5548,5.5548,5.5548,0.0,0.0,0.0,0.0,0.0,0.0,0.0,0.0,0.0,0.0,3.9277,3.9349,4.0432,4.1336,4.1901,4.1937,4.2718,4.3355,4.3481,4.3499,4.3499,4.3499,4.3499,4.3499,4.3499,4.3536,4.3848,4.4563,4.4691,4.5095,4.5902,4.669,4.713,4.7167,4.7901,4.8102,4.7699,4.7314,4.6892,4.647,4.6085,4.5883,4.5883,4.5938,4.6379,4.7112,4.7149,4.7589,4.8286,4.8286,4.8524,4.8909,4.8909,4.9029,4.9082,4.7826,4.716,4.6565,4.4295,4.3467,4.3162,4.2141,4.2447,4.3162,4.2157,4.255,4.306,4.2054,4.1849,4.1929,4.2294,4.2421,4.2612,4.3247,4.3438,4.3549,4.3867,4.3931,4.3931,4.3931,4.3931,4.3931,4.3931,4.3931,4.3931,4.3931,4.5662,4.7183,4.7844,4.9779,5.1269,5.174,5.225,5.2487,5.2379,5.2799,5.3109,5.3109,5.3531,5.3751,5.3806,5.4539,5.4924,5.4979,5.5346,5.5548,5.5548,5.5548,5.5548,5.5548,5.5548,5.5548,0.0,0.0,0.0,0.0,0.0,0.0,0.0,2.9671,3.0638,0.0,3.3645,3.4982,3.7494,3.8609,3.9235,3.9548,4.0861,4.2298,4.3355,4.3499,4.3499,4.3499,4.3499,4.3499,4.3499,4.3774,4.4031,4.4178,4.4801,4.5535,4.6324,4.6837,4.7259,4.7571,4.8029,4.8102,4.7699,4.7314,4.6892,4.647,4.6085,4.5883,4.5902,4.6213,4.6635,4.713,4.7442,4.7846,4.8286,4.8286,4.8524,4.8909,4.8909,4.8443,4.7689,4.7415,4.5972,4.4176,4.3687,4.2856,4.2141,4.1849,4.1952,4.2038,4.1849,4.1952,4.2054,4.1849,4.1849,4.1929,4.2294,4.258,4.2882,4.3311,4.3629,4.3851,4.3931,4.3931,4.3931,4.3931,4.3931,4.3931,4.3931,4.3931,4.3931,4.3931,4.4509,4.5784,4.7681,4.8859,4.9927,5.0901,5.2218,5.2563,5.1707,5.2527,5.3109,5.3109,5.3531,5.3897,5.4228,5.4649,5.5071,5.5324,5.5493,5.5548,5.5548,5.5548,5.5548,5.5548,5.5548,5.5548,0.0,0.0,0.0,2.9298,0.0,0.0,0.0,0.0,3.1049,3.3038,3.3834,3.4699,3.6345,3.7619,3.8392,3.8323,3.9983,4.1037,4.0574,4.2228,4.3499,4.3499,4.3499,4.3499,4.3499,4.3664,4.3866,4.4068,4.4838,4.5553,4.6158,4.6764,4.7295,4.7681,4.8084,4.8194,4.7992,4.7406,4.7002,4.6782,4.6177,4.5883,4.5902,4.6305,4.6709,4.713,4.7534,4.7809,4.7992,4.7992,4.7934,4.7816,4.8015,4.7677,4.6912,4.5974,4.4802,4.3467,4.2856,4.2243,4.1849,4.1849,4.1849,4.1849,4.1849,4.1849,4.1849,4.1849,4.1976,4.2199,4.2548,4.2882,4.3232,4.3581,4.3804,4.3931,4.3931,4.3931,4.3931,4.3931,4.3931,4.3931,4.3931,4.3931,4.3994,4.4185,4.4886,4.5889,4.7449,4.8458,4.9348,5.0087,5.147,5.2034,5.1485,5.2436,5.3109,5.3109,5.3696,5.4117,5.4338,5.4924,5.5346,5.5548,5.5548,5.5548,5.5548,5.5548,5.5548,5.5548,5.5548,5.5548,0.0,0.0,0.0,0.0,0.0,2.9737,0.0,0.0,0.0,0.0,0.0,0.0,0.0,0.0,0.0,0.0,0.0,0.0,0.0,4.0307,0.0,4.1977,4.2891,4.3303,4.2837,4.291,4.327,4.4068,4.4379,4.5034,4.5975,4.6635,4.724,4.7791,4.8121,4.8286,4.8286,4.7497,4.7112,4.7094,4.6287,4.592,4.6012,4.6324,4.6745,4.724,4.7479,4.7626,4.7699,4.7412,4.6968,4.6498,4.6906,4.6741,4.6014,4.453,4.3612,4.306,4.2141,4.1849,4.1849,4.1849,4.1849,4.1849,4.1849,4.1897,4.1945,4.1945,4.2199,4.2564,4.2898,4.32,4.3502,4.3851,4.3931,4.3931,4.3931,4.3931,4.3931,4.3931,4.3931,4.3931,4.3931,4.3994,4.4137,4.4439,4.5438,4.6369,4.7198,4.8214,4.89,4.9241,5.0586,5.1358,5.1045,5.2345,5.3146,5.3219,5.3916,5.4374,5.4448,5.5068,5.5548,5.5548,5.5548,5.5548,5.5548,5.5548,5.5548,5.5548,5.5548,5.5548,0.0,0.0,0.0,0.0,2.9298,0.0,0.0,0.0,3.0255,3.1237,0.0,0.0,0.0,0.0,0.0,0.0,0.0,0.0,3.7491,3.8045,3.7915,3.6612,4.067,4.264,4.039,4.0914,4.207,4.3996,4.2803,4.3304,4.6247,4.6507,4.7057,4.8176,4.8267,4.8286,4.8286,4.7497,4.7112,4.7094,4.6287,4.6067,4.6415,4.6452,4.6892,4.7607,4.7314,4.7369,4.7564,4.6322,4.5727,4.57,4.6091,4.5521,4.4306,4.3734,4.2888,4.1936,4.1849,4.1849,4.1849,4.1849,4.1849,4.1849,4.1849,4.2072,4.2326,4.2326,4.2564,4.2898,4.3263,4.3375,4.3502,4.3851,4.3931,4.3931,4.3931,4.3931,4.3931,4.3931,4.3931,4.3931,4.3931,4.4201,4.4439,4.4471,4.5105,4.5948,4.7153,4.7656,4.7966,4.8016,5.0017,5.0917,4.9958,5.1815,5.3274,5.3641,5.4062,5.4484,5.4814,5.5291,5.5548,5.5548,5.5548,5.5548,5.5548,5.5548,5.5548,5.5548,5.5548,5.5548,0.0,0.0,0.0,0.0,0.0,0.0,2.9201,0.0,2.9965,0.0,0.0,0.0,0.0,0.0,0.0,0.0,3.5577,0.0,0.0,0.0,3.8651,0.0,0.0,0.0,0.0,4.0335,4.147,4.3576,4.2359,4.2828,4.5991,4.658,4.7277,4.8249,4.8286,4.8286,4.8286,4.7736,4.7332,4.7112,4.6764,4.6434,4.6158,4.6855,4.724,4.7351,4.7424,4.7113,4.642,4.554,4.4647,4.3679,4.3832,4.3724,4.3283,4.2738,4.2243,4.1849,4.1849,4.1849,4.1849,4.1849,4.1849,4.1881,4.2088,4.2262,4.2469,4.2866,4.3232,4.3533,4.3676,4.3867,4.401,4.3947,4.3931,4.3931,4.3931,4.3931,4.3931,4.3931,4.4105,4.4248,4.4248,4.4375,4.4614,4.5011,4.5329,4.5806,4.6446,4.6703,4.68,4.68,4.8924,5.0248,5.0028,5.1904,5.3384,5.4062,5.4448,5.4869,5.5291,5.5438,5.5548,5.5548,5.5548,5.5548,5.5548,5.5548,5.5548,5.5548,5.5548,5.5548,2.8733,0.0,0.0,0.0,0.0,0.0,0.0,0.0,0.0,0.0,0.0,0.0,0.0,0.0,0.0,0.0,0.0,0.0,0.0,0.0,0.0,0.0,0.0,0.0,0.0,0.0,0.0,0.0,0.0,4.2097,4.5823,4.6617,4.7351,4.8249,4.8286,4.8286,4.8286,4.7901,4.7552,4.7259,4.7039,4.669,4.625,4.691,4.7167,4.7112,4.7167,4.6567,4.5488,4.4808,4.3683,4.2426,4.2128,4.2256,4.2514,4.1958,4.1849,4.1849,4.1849,4.1849,4.1865,4.1961,4.1992,4.2056,4.2421,4.2596,4.2771,4.3263,4.3661,4.3931,4.3931,4.4137,4.4264,4.3994,4.3931,4.3931,4.3931,4.3931,4.3962,4.4074,4.4296,4.4534,4.4741,4.4757,4.4932,4.5408,4.5583,4.5726,4.5996,4.6028,4.6028,4.6028,4.7908,4.9479,4.9984,5.1805,5.342,5.4429,5.4869,5.5236,5.5434,5.5548,5.5548,5.5548,5.5548,5.5548,5.5548,5.5548,5.5548,5.5548,5.5548,5.5548,0.0,0.0,0.0,3.1024,0.0,0.0,0.0,0.0,3.1029,0.0,0.0,0.0,0.0,0.0,0.0,0.0,0.0,0.0,0.0,0.0,0.0,0.0,0.0,0.0,0.0,0.0,0.0,0.0,0.0,0.0,4.6206,4.6489,4.7039,4.8249,4.8286,4.8286,4.8286,4.7901,4.7681,4.7662,4.6874,4.669,4.7039,4.6287,4.6379,4.7057,4.6287,4.5807,4.5408,4.3935,4.3149,4.2822,4.1697,4.1516,4.1833,4.1833,4.1849,4.1849,4.1849,4.1849,4.1897,4.2262,4.2374,4.2437,4.2771,4.3104,4.3375,4.3406,4.3661,4.3931,4.3931,4.3947,4.3947,4.3947,4.3931,4.3931,4.3931,4.3931,4.4042,4.4391,4.4471,4.4709,4.5361,4.5456,4.5456,4.5504,4.5805,4.6028,4.6028,4.6028,4.6028,4.6028,4.743,4.8639,4.9514,5.1379,5.3233,5.4775,5.5291,5.5434,5.5548,5.5548,5.5548,5.5548,5.5548,5.5548,5.5548,5.5548,5.5548,5.5548,5.5548,5.5548,0.0,0.0,2.7981,3.0231,0.0,0.0,0.0,0.0,0.0,0.0,0.0,0.0,0.0,0.0,0.0,0.0,0.0,0.0,0.0,0.0,0.0,0.0,0.0,0.0,0.0,0.0,0.0,0.0,0.0,0.0,0.0,4.6599,4.7204,4.7864,4.8157,4.8286,4.8286,4.8157,4.7827,4.7314,4.7295,4.6929,4.6305,4.658,4.669,4.6672,4.5729,4.4885,4.405,4.2842,4.2015,4.1493,4.1331,4.1532,4.1849,4.1849,4.1849,4.1849,4.1849,4.2008,4.2231,4.2342,4.2532,4.2771,4.312,4.3311,4.3502,4.3978,4.4201,4.4296,4.4296,4.4296,4.4233,4.3994,4.3931,4.3931,4.3931,4.3931,4.4042,4.4407,4.4661,4.4963,4.5408,4.5901,4.6219,4.6219,4.6314,4.6489,4.6711,4.652,4.6489,4.6711,4.7625,4.8955,5.0539,5.3007,5.46,5.4924,5.5328,5.5548,5.5548,5.5548,5.5548,5.5548,5.5548,5.5548,5.5548,5.5548,5.5548,5.5548,5.5548,5.5548,2.7253,2.7038,0.0,2.9792,2.951,0.0,3.0907,0.0,3.2006,0.0,0.0,0.0,0.0,0.0,0.0,0.0,0.0,0.0,0.0,0.0,0.0,0.0,0.0,0.0,0.0,0.0,0.0,0.0,0.0,0.0,0.0,0.0,4.7295,4.7681,4.8084,4.8286,4.8286,4.8286,4.7956,4.7314,4.7424,4.7002,4.6122,4.6507,4.6334,4.5698,4.503,4.4045,4.2792,4.2259,4.1536,4.1007,4.1357,4.1643,4.1849,4.1849,4.1929,4.204,4.204,4.2262,4.258,4.2707,4.2898,4.3136,4.3486,4.3597,4.3661,4.401,4.4185,4.4264,4.4137,4.4296,4.4391,4.4026,4.4042,4.409,4.3962,4.4042,4.4233,4.4566,4.4932,4.5329,4.5805,4.6266,4.6568,4.6568,4.6663,4.6838,4.7029,4.6886,4.6838,4.7029,4.7671,4.8964,5.1308,5.3397,5.4819,5.505,5.5236,5.5401,5.5434,5.5401,5.5401,5.5548,5.5548,5.5548,5.5548,5.5548,5.5548,5.5548,5.5548,5.5548]}]]